Date StartTime U_cm/s V_cm/s W_cm/s Ustd_cm/s Vstd_cm/s Wstd_cm/s Uvar_(cm/s)^2 Vvar_(cm/s)^2 Wvar_(cm/s)^2 KE_(m/s)^2 TurbulentKE_(m/s)^2 HorizWindSpeed_cm/s FrictionSpeec_cm/s DragCoef SpeedOfSound_m/s SonicTemperature_C Pressure_mb 
09/07/2014  00:00:00      -49.968       14.413       -5.722       29.196       20.157       18.445      852.384      406.310      340.209        0.217        0.080       52.005       13.860        0.071      344.554       21.455      861.125
09/07/2014  00:01:00      -46.256       24.374       -7.615       25.172       22.204       10.573      633.634      493.001      111.778        0.201        0.062       52.285       10.532        0.041      344.556       21.460      861.131
09/07/2014  00:02:00      -63.184       21.705      -12.677       19.914       21.569       12.828      396.567      465.208      164.564        0.283        0.051       66.808        8.861        0.018      344.589       21.516      861.133
09/07/2014  00:03:00      -53.510       23.385       -5.913       19.609       18.328       13.120      384.528      335.915      172.139        0.217        0.045       58.397        5.175        0.008      344.533       21.419      861.124
09/07/2014  00:04:00      -47.062       20.932       -5.947       13.580        9.685        9.821      184.412       93.804       96.456        0.153        0.019       51.507        5.005        0.009      344.558       21.464      861.126
09/07/2014  00:05:00      -41.618       40.238       -6.399       17.662       26.088       11.361      311.933      680.558      129.084        0.226        0.056       57.889       14.469        0.062      344.558       21.462      861.122
09/07/2014  00:06:00      -28.148      117.447      -21.310       21.464       24.506       15.545      460.687      600.565      241.637        0.817        0.065      120.773       11.619        0.009      344.544       21.439      861.116
09/07/2014  00:07:00      -59.730      121.322      -11.287       35.344       38.532       25.217     1249.215     1484.754      635.882        1.089        0.168      135.228       15.891        0.014      344.623       21.573      861.110
09/07/2014  00:08:00      -59.201      159.541      -10.291       32.562       41.764       21.276     1060.296     1744.234      452.687        1.616        0.163      170.171       21.314        0.016      344.822       21.912      861.105
09/07/2014  00:09:00     -109.506       65.125      -17.266       30.978       44.915       21.948      959.614     2017.387      481.723        0.999        0.173      127.407       20.216        0.025      344.739       21.772      861.117
09/07/2014  00:10:00      -98.441       -6.435      -10.394       30.892       31.609       12.341      954.330      999.123      152.306        0.597        0.105       98.651        8.872        0.008      344.326       21.065      861.115
09/07/2014  00:11:00     -128.990      -34.300       -3.909       24.559       23.193       17.370      603.123      537.902      301.728        0.964        0.072      133.473       15.188        0.013      344.071       20.630      861.118
09/07/2014  00:12:00     -105.165      -30.129       -2.133       40.630       27.380       18.047     1650.814      749.665      325.680        0.735        0.136      109.396       18.606        0.029      344.052       20.598      861.115
09/07/2014  00:13:00     -101.486        3.796       -5.974       24.012       18.806       14.170      576.584      353.682      200.781        0.574        0.057      101.557       10.058        0.010      344.120       20.713      861.118
09/07/2014  00:14:00      -84.395      -21.553       -4.507       28.691       17.511       14.467      823.199      306.645      209.291        0.447        0.067       87.103       13.925        0.026      344.025       20.551      861.115
09/07/2014  00:15:00     -111.846       -2.618      -14.424       18.623       18.786       11.612      346.811      352.927      134.843        0.678        0.042      111.876        7.618        0.005      344.145       20.756      861.111
09/07/2014  00:16:00     -119.153      -19.093      -11.459       38.984       20.960       15.898     1519.739      439.330      252.750        0.845        0.111      120.673       15.791        0.017      343.993       20.497      861.113
09/07/2014  00:17:00      -93.039       -8.773       -6.184       25.951       23.017       16.383      673.430      529.787      268.391        0.512        0.074       93.452       15.702        0.028      343.925       20.381      861.119
09/07/2014  00:18:00      -72.883       10.383       -8.521       17.520       17.044       11.671      306.964      290.511      136.201        0.311        0.037       73.619        8.468        0.013      343.918       20.369      861.128
09/07/2014  00:19:00      -49.934       26.276        0.609       27.137       23.054       17.053      736.413      531.493      290.797        0.237        0.078       56.425       12.471        0.049      344.011       20.528      861.116
09/07/2014  00:20:00      -89.096       -0.276      -14.167       33.797       29.489       13.529     1142.216      869.625      183.038        0.517        0.110       89.097        8.807        0.010      344.228       20.898      861.107
09/07/2014  00:21:00      -77.281      -43.391      -11.223       25.308       17.894       11.164      640.470      320.191      124.638        0.453        0.054       88.629        5.052        0.003      343.913       20.359      861.103
09/07/2014  00:22:00      -15.149       -4.689        0.895       17.937       10.636       14.667      321.737      113.124      215.131        0.045        0.032       15.858        4.603        0.084      343.860       20.270      861.102
09/07/2014  00:23:00      -69.404      -21.569       -5.962       35.416       20.161       14.494     1254.288      406.450      210.089        0.359        0.094       72.679        8.049        0.012      343.942       20.410      861.099
09/07/2014  00:24:00     -134.854      -51.248       -2.975       28.622       13.095       10.502      819.198      171.466      110.284        1.096        0.055      144.263       11.725        0.007      343.850       20.253      861.099
09/07/2014  00:25:00      -76.643      -40.017        0.222       13.920       15.645       10.661      193.754      244.761      113.662        0.401        0.028       86.461        5.843        0.005      343.787       20.144      861.084
09/07/2014  00:26:00      -54.218      -27.592       -1.662       21.786       13.998        9.210      474.614      195.954       84.832        0.223        0.038       60.835        9.356        0.024      343.884       20.309      861.075
09/07/2014  00:27:00     -104.809      -25.523       -7.491       25.183       17.451       11.342      634.163      304.538      128.652        0.638        0.053      107.872       11.481        0.011      343.858       20.267      861.083
09/07/2014  00:28:00      -73.345       -7.929       -3.735       34.338       17.791       11.623     1179.132      316.511      135.105        0.354        0.082       73.772       14.959        0.041      343.857       20.265      861.085
09/07/2014  00:29:00      -93.470       17.165      -13.137       40.730       30.634       24.495     1658.923      938.414      600.003        0.620        0.160       95.033       19.485        0.042      343.830       20.219      861.084
09/07/2014  00:30:00      -80.423      -16.039       -6.794       32.290       23.527       15.373     1042.663      553.532      236.337        0.430        0.092       82.006       12.305        0.023      343.887       20.315      861.087
09/07/2014  00:31:00     -110.765      -42.865       -9.991       69.595       46.924       19.407     4843.527     2201.862      376.625        1.081        0.371      118.770       23.183        0.038      343.727       20.042      861.095
09/07/2014  00:32:00     -118.029       -4.091       -8.806       37.449       19.642       16.510     1402.395      385.817      272.580        0.804        0.103      118.100       18.810        0.025      343.425       19.527      861.111
09/07/2014  00:33:00      -93.761      -35.485       -5.035       19.522       31.211       13.321      381.102      974.119      177.455        0.580        0.077      100.251        8.534        0.007      343.567       19.768      861.107
09/07/2014  00:34:00      -81.609      -42.356       -2.356       52.056       22.111       15.504     2709.855      488.893      240.381        0.595        0.172       91.946       16.722        0.033      343.438       19.551      861.100
09/07/2014  00:35:00      -74.737      -22.928       -9.800       13.743       15.687       10.484      188.863      246.096      109.907        0.338        0.027       78.175        4.552        0.003      343.566       19.767      861.095
09/07/2014  00:36:00     -121.928      -39.077      -11.366       16.974       17.955       10.798      288.118      322.397      116.602        0.862        0.036      128.036        8.000        0.004      343.436       19.546      861.101
09/07/2014  00:37:00      -51.257      -57.339       -2.644       43.402       25.809       16.897     1883.746      666.085      285.496        0.438        0.142       76.909       15.514        0.041      343.422       19.524      861.101
09/07/2014  00:38:00      -86.266      -77.566       -5.294       43.056       29.243       19.883     1853.824      855.168      395.338        0.829        0.155      116.010       21.359        0.034      343.539       19.720      861.113
09/07/2014  00:39:00      -43.790      -58.789        2.081       25.635       36.234       15.567      657.163     1312.898      242.342        0.379        0.111       73.305       18.083        0.061      343.510       19.673      861.122
09/07/2014  00:40:00     -112.944      -84.640       -0.593       54.557       48.638       26.057     2976.467     2365.680      678.986        1.297        0.301      141.140       23.513        0.028      343.466       19.596      861.121
09/07/2014  00:41:00     -136.427      -68.313        2.957       55.714       39.687       29.860     3104.064     1575.072      891.629        1.443        0.279      152.575       31.303        0.042      343.395       19.478      861.137
09/07/2014  00:42:00     -138.933      -87.522       -0.733       39.207       33.512       22.120     1537.221     1123.026      489.292        1.506        0.157      164.202       19.018        0.013      343.491       19.639      861.141
09/07/2014  00:43:00     -137.070      -63.270       -0.304       39.677       28.985       21.834     1574.258      840.149      476.723        1.284        0.145      150.968       20.637        0.019      343.448       19.567      861.147
09/07/2014  00:44:00      -86.736      -43.653        5.964       38.508       26.107       21.431     1482.828      681.570      459.293        0.604        0.131       97.102       18.495        0.036      343.422       19.522      861.157
09/07/2014  00:45:00      -85.703      -58.186        0.546       41.252       27.101       22.117     1701.691      734.450      489.152        0.683        0.146      103.589       23.955        0.053      343.463       19.592      861.175
09/07/2014  00:46:00      -35.298      -25.797        8.612       37.372       30.611       20.197     1396.676      937.021      407.932        0.236        0.137       43.720       14.339        0.108      343.434       19.543      861.173
09/07/2014  00:47:00      -81.922      -51.135       -7.091       29.204       17.892       14.397      852.852      320.117      207.278        0.538        0.069       96.571        6.685        0.005      343.456       19.579      861.172
09/07/2014  00:48:00      -92.231      -31.889        2.537       20.971       14.295       15.402      439.794      204.354      237.213        0.521        0.044       97.588       11.440        0.014      343.410       19.502      861.181
09/07/2014  00:49:00      -71.977      -36.632        1.504       27.229       24.916       14.237      741.405      620.818      202.685        0.404        0.078       80.763       11.344        0.020      343.367       19.428      861.191
09/07/2014  00:50:00      -81.636      -47.953       -1.032       42.027       26.178       18.662     1766.254      685.265      348.271        0.588        0.140       94.678       20.416        0.046      343.332       19.369      861.195
09/07/2014  00:51:00     -103.390      -46.438       -1.127       25.286       30.724       15.762      639.388      943.939      248.432        0.734        0.092      113.341       13.708        0.015      343.333       19.371      861.208
09/07/2014  00:52:00     -126.398      -68.322      -10.028       34.654       31.755       19.081     1200.885     1008.382      364.067        1.166        0.129      143.681       18.890        0.017      343.343       19.389      861.192
09/07/2014  00:53:00     -125.150      -48.866       -6.495       26.652       28.720       15.612      710.313      824.812      243.735        0.994        0.089      134.352       10.660        0.006      343.277       19.275      861.178
09/07/2014  00:54:00      -88.391      -65.036        4.540       44.935       32.786       18.445     2019.163     1074.945      340.207        0.775        0.172      109.739       18.238        0.028      343.233       19.201      861.189
09/07/2014  00:55:00      -32.087      -49.308       10.711       41.190       38.349       24.260     1696.631     1470.612      588.524        0.367        0.188       58.829       20.936        0.127      343.226       19.189      861.198
09/07/2014  00:56:00      -59.952      -44.023        5.466       43.449       33.604       17.750     1887.831     1129.243      315.077        0.445        0.167       74.379       23.629        0.101      343.250       19.228      861.192
09/07/2014  00:57:00      -35.443      -21.926        7.006       33.859       24.141       15.569     1146.402      582.790      242.391        0.188        0.099       41.677       11.291        0.073      343.224       19.185      861.204
09/07/2014  00:58:00      -25.949      -36.656       10.326       25.270       22.270       15.140      638.587      495.971      229.233        0.174        0.068       44.911       11.734        0.068      343.331       19.366      861.204
09/07/2014  00:59:00      -20.628      -41.241        6.470       35.568       25.335       19.308     1265.067      641.872      372.807        0.222        0.114       46.113       13.897        0.091      343.328       19.362      861.203
09/07/2014  01:00:00      -54.896      -54.486        2.814       34.321       26.060       17.411     1177.902      679.109      303.139        0.407        0.108       77.345       13.689        0.031      343.292       19.301      861.211
09/07/2014  01:01:00      -71.379      -44.181       -5.717       26.913       29.986       16.069      724.293      899.153      258.214        0.448        0.094       83.946       12.668        0.023      343.268       19.260      861.220
09/07/2014  01:02:00      -60.829      -40.174       -5.074       33.371       21.141       14.180     1113.610      446.942      201.072        0.355        0.088       72.898       15.893        0.048      343.193       19.134      861.217
09/07/2014  01:03:00      -49.746      -25.416        4.762       26.262       15.472       15.679      689.700      239.368      245.839        0.216        0.059       55.863       15.298        0.075      343.088       18.954      861.208
09/07/2014  01:04:00      -36.444      -25.388        2.207       24.666       14.522       11.243      608.426      210.885      126.414        0.146        0.047       44.416       12.375        0.078      343.141       19.044      861.214
09/07/2014  01:05:00       -3.003      -15.896       11.164       20.705       14.478       15.893      428.710      209.617      252.595        0.064        0.045       16.178       14.507        0.804      342.995       18.795      861.223
09/07/2014  01:06:00      -24.679      -35.885      -13.004       21.955       17.229       10.347      482.025      296.829      107.070        0.148        0.044       43.552        7.569        0.030      343.074       18.930      861.224
09/07/2014  01:07:00      -41.226      -41.888        5.034       34.141       26.899       20.469     1165.598      723.579      418.968        0.289        0.115       58.772       18.260        0.097      343.040       18.872      861.235
09/07/2014  01:08:00      -92.559      -84.319       -4.618       30.991       33.615       19.535      960.419     1129.957      381.600        0.908        0.124      125.208       18.045        0.021      343.051       18.890      861.242
09/07/2014  01:09:00     -102.651     -105.287        2.446       48.023       41.745       25.068     2306.253     1742.655      628.412        1.315        0.234      147.046       23.724        0.026      343.026       18.848      861.236
09/07/2014  01:10:00     -116.735      -85.787       -6.648       33.866       34.272       21.637     1146.923     1174.571      468.142        1.191        0.139      144.867       16.883        0.014      343.023       18.843      861.233
09/07/2014  01:11:00     -128.670      -74.350       -3.414       34.590       32.510       20.064     1196.456     1056.920      402.546        1.238        0.133      148.607       18.444        0.015      343.066       18.917      861.231
09/07/2014  01:12:00      -80.560      -57.087        4.217       38.548       42.511       22.394     1485.925     1807.161      501.495        0.678        0.190       98.736       24.114        0.060      343.034       18.862      861.231
09/07/2014  01:13:00      -55.121      -43.177        5.702       25.764       24.516       17.944      663.763      601.024      321.977        0.326        0.079       70.019        6.030        0.007      342.997       18.799      861.240
09/07/2014  01:14:00      -29.883      -32.739        4.058       34.817       28.101       19.109     1212.200      789.663      365.152        0.217        0.118       44.327       16.205        0.134      343.035       18.863      861.259
09/07/2014  01:15:00      -40.797      -22.768        9.003       21.804       16.213       13.947      475.429      262.856      194.526        0.160        0.047       46.721        9.873        0.045      343.024       18.844      861.269
09/07/2014  01:16:00      -67.055      -28.827       -3.880       24.081       26.631       13.206      579.872      709.226      174.403        0.340        0.073       72.989        9.043        0.015      343.056       18.901      861.264
09/07/2014  01:17:00      -75.359      -28.070       -0.432       52.970       18.563       16.650     2805.817      344.574      277.224        0.495        0.171       80.417       21.641        0.072      342.978       18.767      861.250
09/07/2014  01:18:00      -14.794      -20.341       14.345       37.707       18.673       21.299     1421.788      348.664      453.639        0.153        0.111       25.152       20.531        0.666      342.895       18.626      861.234
09/07/2014  01:19:00      -78.384      -23.976        0.702       39.397       25.944       19.223     1552.106      673.081      369.510        0.466        0.130       81.969       18.505        0.051      342.906       18.644      861.223
09/07/2014  01:20:00     -106.032      -14.653       -0.940       48.270       27.146       20.231     2329.946      736.913      409.299        0.747        0.174      107.039       21.432        0.040      342.715       18.317      861.208
09/07/2014  01:21:00      -94.467      -48.852        9.794       42.873       29.004       18.155     1838.088      841.211      329.616        0.721        0.150      106.351       18.262        0.029      342.743       18.366      861.207
09/07/2014  01:22:00     -110.470      -52.344        0.161       36.829       24.825       16.932     1356.396      616.264      286.680        0.860        0.113      122.244       18.294        0.022      342.717       18.322      861.226
09/07/2014  01:23:00      -75.502      -49.260        4.040       46.287       36.399       25.139     2142.533     1324.882      631.983        0.612        0.205       90.150       25.469        0.080      342.653       18.213      861.230
09/07/2014  01:24:00      -97.504      -57.106        6.191       41.548       35.452       25.695     1726.273     1256.851      660.219        0.822        0.182      112.996       22.207        0.039      342.669       18.240      861.234
09/07/2014  01:25:00     -125.597      -35.089       -5.155       33.327       27.142       21.684     1110.702      736.691      470.182        0.967        0.116      130.406       19.879        0.023      342.733       18.349      861.238
09/07/2014  01:26:00     -120.858      -25.874       -7.000       21.488       27.977       17.961      461.719      782.727      322.609        0.845        0.078      123.597       14.540        0.014      342.773       18.416      861.238
09/07/2014  01:27:00     -123.049      -34.606      -10.443       23.413       25.746       19.602      548.161      662.876      384.254        0.902        0.080      127.823       13.648        0.011      342.743       18.366      861.229
09/07/2014  01:28:00      -87.480      -22.030        0.641       37.001       29.993       19.486     1369.040      899.574      379.685        0.539        0.132       90.211       19.110        0.045      342.648       18.205      861.221
09/07/2014  01:29:00     -111.246       -3.810       -0.972       39.793       40.101       25.456     1583.500     1608.074      647.993        0.811        0.192      111.311       19.792        0.032      342.504       17.960      861.212
09/07/2014  01:30:00     -111.939      -14.445       -1.684       48.721       42.280       26.889     2373.718     1787.560      723.015        0.881        0.244      112.867       25.828        0.052      342.437       17.846      861.193
09/07/2014  01:31:00     -140.713       20.624       -5.425       25.653       20.971       16.098      658.099      439.767      259.150        1.081        0.068      142.216        8.565        0.004      342.548       18.035      861.192
09/07/2014  01:32:00      -96.787      -16.271       -4.068       29.688       30.315       14.233      881.348      918.995      202.580        0.583        0.100       98.145        5.648        0.003      342.569       18.070      861.191
09/07/2014  01:33:00      -72.767      -11.054       -6.306       26.301       24.659       14.720      691.763      608.080      216.693        0.349        0.076       73.601       14.315        0.038      342.589       18.104      861.176
09/07/2014  01:34:00      -74.653      -25.151       -0.065       30.871       31.532       17.990      953.000      994.259      323.650        0.424        0.114       78.776       18.170        0.053      342.565       18.064      861.184
09/07/2014  01:35:00      -35.520      -38.776        8.776       57.411       23.190       19.654     3296.005      537.785      386.294        0.353        0.211       52.585       23.246        0.195      342.473       17.906      861.188
09/07/2014  01:36:00      -89.608      -59.407        1.334       39.992       26.071       20.365     1599.348      679.672      414.719        0.713        0.135      107.511       21.756        0.041      342.530       18.004      861.180
09/07/2014  01:37:00      -80.349      -27.268       -5.811       43.329       29.052       24.880     1877.410      844.008      618.993        0.529        0.167       84.850       15.750        0.034      342.621       18.158      861.174
09/07/2014  01:38:00      -85.668      -32.236       -1.934       46.487       30.332       19.339     2161.024      920.037      374.004        0.592        0.173       91.532       16.761        0.034      342.549       18.037      861.149
09/07/2014  01:39:00     -101.941      -59.831       -8.214       32.962       18.865       16.483     1086.488      355.901      271.689        0.788        0.086      118.203       16.315        0.019      342.565       18.063      861.146
09/07/2014  01:40:00      -64.130      -37.427        8.161       50.404       30.521       21.246     2540.517      931.546      451.376        0.475        0.196       74.253       27.058        0.133      342.527       17.999      861.140
09/07/2014  01:41:00     -101.933      -37.949       -6.269       28.818       15.714       12.573      830.452      246.935      158.081        0.655        0.062      108.768       11.394        0.011      342.517       17.983      861.136
09/07/2014  01:42:00     -119.670      -48.315      -10.547       22.792       23.786       14.352      519.473      565.781      205.986        0.903        0.065      129.055       10.161        0.006      342.471       17.904      861.136
09/07/2014  01:43:00     -138.826      -71.317       -0.804       25.685       25.280       16.785      659.744      639.096      281.723        1.297        0.079      156.072       12.105        0.006      342.404       17.791      861.134
09/07/2014  01:44:00     -107.007      -63.797        2.402       50.124       38.336       24.735     2512.437     1469.623      611.801        1.006        0.230      124.581       27.988        0.050      342.402       17.786      861.121
09/07/2014  01:45:00     -130.464      -62.916       -5.465       35.466       33.232       22.633     1257.807     1104.390      512.255        1.194        0.144      144.842       20.524        0.020      342.419       17.816      861.127
09/07/2014  01:46:00     -121.384      -44.455       -9.635       39.109       23.707       20.679     1529.528      562.021      427.608        0.966        0.126      129.269       20.300        0.025      342.435       17.841      861.126
09/07/2014  01:47:00     -135.470      -45.848      -13.978       21.026       16.436       15.393      442.105      270.149      236.954        1.080        0.047      143.018        7.466        0.003      342.440       17.853      861.122
09/07/2014  01:48:00     -122.799      -13.024      -12.972       39.344       20.017       13.606     1547.939      400.663      185.116        0.878        0.107      123.488       14.473        0.014      342.443       17.855      861.122
09/07/2014  01:49:00     -118.096       -3.163      -13.085       23.527       27.159       17.420      553.515      737.598      303.461        0.786        0.080      118.138       14.491        0.015      342.468       17.898      861.111
09/07/2014  01:50:00     -104.152      -22.880      -17.743       16.974       16.747       11.080      288.102      280.448      122.770        0.619        0.035      106.635        8.605        0.007      342.447       17.863      861.116
09/07/2014  01:51:00     -109.438      -27.787      -16.448       14.601       14.967       10.761      213.183      224.022      115.807        0.679        0.028      112.910        7.132        0.004      342.456       17.879      861.111
09/07/2014  01:52:00     -123.962      -37.707       -9.272       19.566       19.909       11.984      382.841      396.382      143.624        0.890        0.046      129.570        5.666        0.002      342.473       17.907      861.117
09/07/2014  01:53:00     -119.113      -46.944       -0.887       37.002       29.714       22.074     1369.167      882.903      487.273        0.957        0.137      128.030       14.635        0.013      342.395       17.774      861.111
09/07/2014  01:54:00     -141.615      -38.243      -11.259       32.211       20.480       16.942     1037.576      419.419      287.044        1.169        0.087      146.687       16.908        0.013      342.368       17.727      861.110
09/07/2014  01:55:00     -131.071      -54.493       -3.008       38.560       24.824       20.286     1486.886      616.228      411.519        1.134        0.126      141.947       19.297        0.018      342.310       17.628      861.110
09/07/2014  01:56:00     -155.457      -67.810       -5.423       44.321       37.127       21.928     1964.362     1378.417      480.847        1.631        0.191      169.603       15.359        0.008      342.216       17.470      861.101
09/07/2014  01:57:00     -170.708      -55.348       -6.590       36.689       36.639       22.568     1346.086     1342.383      509.317        1.772        0.160      179.456       19.432        0.012      342.148       17.355      861.095
09/07/2014  01:58:00     -128.540      -35.878        0.230       53.190       39.794       28.342     2829.181     1583.568      803.266        1.151        0.261      133.454       28.302        0.045      342.142       17.344      861.100
09/07/2014  01:59:00     -151.024      -28.717      -11.885       34.212       24.161       19.630     1170.464      583.747      385.327        1.296        0.107      153.730       17.264        0.013      342.186       17.419      861.099
09/07/2014  02:00:00     -155.851      -16.957      -19.231       43.933       37.619       22.407     1930.136     1415.209      502.058        1.440        0.192      156.771       21.075        0.018      342.218       17.473      861.096
09/07/2014  02:01:00     -193.200      -13.283      -21.914       24.910       22.995       18.745      620.530      528.789      351.376        1.974        0.075      193.656       12.598        0.004      342.328       17.659      861.111
09/07/2014  02:02:00     -189.856       -2.849      -27.719       28.123       24.344       16.798      790.922      592.608      282.170        1.924        0.083      189.877       12.692        0.004      342.330       17.663      861.115
09/07/2014  02:03:00     -203.454       11.720      -23.602       32.868       23.418       16.120     1080.310      548.383      259.840        2.199        0.094      203.791       14.800        0.005      342.394       17.771      861.112
09/07/2014  02:04:00     -188.132        2.557      -29.668       26.462       27.594       19.177      700.231      761.454      367.768        1.905        0.091      188.149       15.593        0.007      342.440       17.851      861.120
09/07/2014  02:05:00     -130.280       27.538      -16.693       38.906       47.384       29.238     1513.652     2245.229      854.879        1.131        0.231      133.158       27.956        0.044      342.425       17.824      861.134
09/07/2014  02:06:00     -138.884       23.778      -16.455       47.474       34.655       21.202     2253.752     1200.986      449.515        1.201        0.195      140.905       20.472        0.021      342.575       18.081      861.142
09/07/2014  02:07:00      -80.452       -1.112      -15.386       21.866       20.360       18.197      478.126      414.545      331.131        0.397        0.061       80.460       13.750        0.029      342.567       18.067      861.155
09/07/2014  02:08:00      -58.062       31.819      -15.149       20.495       44.422       20.728      420.038     1973.320      429.637        0.372        0.141       66.209        7.378        0.012      342.520       17.987      861.141
09/07/2014  02:09:00     -115.642       47.228      -14.189       31.807       22.531       19.966     1011.673      507.628      398.642        0.886        0.096      124.914       10.080        0.007      342.590       18.106      861.130
09/07/2014  02:10:00     -111.731       52.253      -16.415       31.542       27.445       19.718      994.892      753.243      388.783        0.881        0.107      123.345       15.573        0.016      342.724       18.333      861.125
09/07/2014  02:11:00     -134.239       46.608      -16.648       26.009       31.476       21.562      676.458      990.714      464.917        1.130        0.107      142.100       18.049        0.016      342.652       18.211      861.110
09/07/2014  02:12:00      -87.122        3.844      -10.584       26.237       28.487       15.502      688.384      811.501      240.309        0.473        0.087       87.207        9.371        0.012      342.663       18.230      861.122
09/07/2014  02:13:00      -86.617      -31.047      -20.258       25.428       26.411       16.618      646.574      697.524      276.143        0.525        0.081       92.013       12.081        0.017      342.607       18.136      861.132
09/07/2014  02:14:00      -41.940      -29.677        2.805       35.033       24.836       21.564     1227.331      616.839      465.016        0.248        0.115       51.378       12.649        0.061      342.463       17.891      861.139
09/07/2014  02:15:00      -83.892      -49.769       -9.559       35.478       30.599       21.218     1258.675      936.326      450.206        0.613        0.132       97.543       14.688        0.023      342.397       17.777      861.161
09/07/2014  02:16:00     -116.877      -68.379       -1.274       42.246       34.031       24.535     1784.700     1158.079      601.959        1.094        0.177      135.410       23.621        0.030      342.442       17.854      861.167
09/07/2014  02:17:00     -108.599      -75.241        3.128       61.645       47.717       27.972     3800.120     2276.932      782.453        1.216        0.343      132.117       31.765        0.058      342.550       18.038      861.167
09/07/2014  02:18:00      -73.732      -46.853        4.449       41.861       37.537       24.674     1752.352     1409.041      608.826        0.571        0.189       87.359       24.621        0.079      342.571       18.072      861.184
09/07/2014  02:19:00      -51.590      -47.198        1.984       37.737       24.753       18.181     1424.115      612.730      330.550        0.363        0.118       69.923       18.912        0.073      342.539       18.018      861.198
09/07/2014  02:20:00      -52.358      -19.133        2.386       38.580       32.361       17.612     1488.403     1047.267      310.180        0.298        0.142       55.745       20.355        0.133      342.497       17.948      861.199
09/07/2014  02:21:00      -73.863      -11.426      -12.050       18.130       19.623       12.585      328.713      385.060      158.374        0.330        0.044       74.741       11.497        0.024      342.528       18.001      861.209
09/07/2014  02:22:00      -58.718      -23.029       -8.621       17.152       17.022       12.318      294.201      289.750      151.745        0.239        0.037       63.073        9.990        0.025      342.552       18.041      861.226
09/07/2014  02:23:00      -22.101      -25.111       -1.511       35.856       18.750       15.043     1285.638      351.569      226.305        0.149        0.093       33.451       10.100        0.091      342.621       18.159      861.223
09/07/2014  02:24:00      -93.047      -55.928       -0.947       29.759       25.297       18.612      885.624      639.939      346.412        0.683        0.094      108.562       15.100        0.019      342.551       18.039      861.226
09/07/2014  02:25:00     -100.889     -115.646        0.980       79.766       71.733       35.776     6362.671     5145.564     1279.899        1.817        0.639      153.468       44.552        0.084      342.310       17.629      861.234
09/07/2014  02:26:00     -203.844     -113.363      -15.089       48.765       57.601       33.438     2378.005     3317.858     1118.111        3.072        0.341      233.246       23.632        0.010      342.100       17.269      861.242
09/07/2014  02:27:00     -150.685      -85.923        0.919       54.869       37.132       26.761     3010.597     1378.750      716.130        1.760        0.255      173.461       25.100        0.021      342.240       17.510      861.228
09/07/2014  02:28:00      -77.147      -37.297       -4.566       25.923       49.928       23.150      671.983     2492.820      535.900        0.553        0.185       85.690       18.863        0.048      342.354       17.706      861.213
09/07/2014  02:29:00      -80.687       10.588       -4.424       16.679       18.592       13.660      278.199      345.664      186.583        0.373        0.041       81.379       10.222        0.016      342.347       17.693      861.201
09/07/2014  02:30:00     -104.979       21.366       -2.571       31.333       26.270       16.782      981.771      690.109      281.651        0.672        0.098      107.131       16.761        0.024      342.436       17.844      861.184
09/07/2014  02:31:00     -120.122      -38.045       -5.975       31.425       29.302       16.230      987.520      858.624      263.426        0.901        0.105      126.003       15.298        0.015      342.268       17.558      861.176
09/07/2014  02:32:00     -125.330      -75.858       -7.229       31.056       23.626       18.087      964.494      558.198      327.137        1.168        0.092      146.500       17.155        0.014      342.193       17.431      861.177
09/07/2014  02:33:00     -112.601      -50.863        4.023       35.555       35.466       22.575     1264.130     1257.840      509.613        0.916        0.152      123.555       21.512        0.030      342.150       17.359      861.191
09/07/2014  02:34:00      -85.611      -65.548        1.678       48.406       41.449       27.931     2343.168     1717.995      780.144        0.823        0.242      107.823       27.458        0.065      342.144       17.347      861.202
09/07/2014  02:35:00     -126.887      -82.883       -2.180       37.753       29.823       18.911     1425.312      889.387      357.609        1.282        0.134      151.558       18.624        0.015      342.189       17.425      861.201
09/07/2014  02:36:00      -63.318      -34.154        2.391       26.395       24.455       14.746      696.697      598.031      217.456        0.335        0.076       71.942       11.320        0.025      342.108       17.286      861.197
09/07/2014  02:37:00      -62.069      -19.982       -6.627       13.266       13.913       10.554      175.981      193.577      111.392        0.239        0.024       65.206        5.533        0.007      342.112       17.294      861.194
09/07/2014  02:38:00      -66.971      -20.336       -6.476       21.820       17.989       12.945      476.113      323.614      167.584        0.295        0.048       69.990       10.785        0.024      342.028       17.152      861.195
09/07/2014  02:39:00      -18.584      -28.815        4.517       28.845       17.191       14.420      832.006      295.535      207.948        0.127        0.067       34.288       15.909        0.215      342.003       17.110      861.197
09/07/2014  02:40:00      -52.042      -42.376        6.918       37.488       25.808       16.643     1405.318      666.057      276.985        0.345        0.117       67.112       15.881        0.056      341.997       17.099      861.208
09/07/2014  02:41:00      -52.931      -58.045       -5.705       32.447       20.431       15.101     1052.779      417.411      228.028        0.395        0.085       78.555       11.232        0.020      342.061       17.207      861.228
09/07/2014  02:42:00      -70.191      -32.079       -5.422       22.931       18.636       19.978      525.825      347.297      399.131        0.363        0.064       77.174       13.963        0.033      342.070       17.223      861.250
09/07/2014  02:43:00      -29.138      -28.085       -0.041       18.368       15.512        9.081      337.400      240.636       82.459        0.115        0.033       40.469        7.685        0.036      342.216       17.469      861.250
09/07/2014  02:44:00      -74.105      -34.663        0.540       28.204       25.586       13.685      795.471      654.642      187.266        0.417        0.082       81.811       12.261        0.022      342.198       17.440      861.247
09/07/2014  02:45:00      -24.309      -42.092       14.118       37.258       25.471       23.264     1388.140      648.755      541.215        0.257        0.129       48.607       21.642        0.198      341.977       17.065      861.266
09/07/2014  02:46:00      -28.517      -38.617        5.332       40.062       32.865       18.183     1604.956     1080.090      330.628        0.267        0.151       48.005       17.205        0.128      341.851       16.852      861.266
09/07/2014  02:47:00      -50.271      -41.337        5.746       37.316       25.034       15.329     1392.453      626.684      234.988        0.326        0.113       65.084       17.613        0.073      341.854       16.856      861.250
09/07/2014  02:48:00      -30.259      -47.636        4.571       34.427       34.863       19.466     1185.195     1215.395      378.916        0.299        0.139       56.434       16.304        0.083      341.787       16.742      861.250
09/07/2014  02:49:00      -72.816      -62.269        1.424       33.736       27.444       21.495     1138.100      753.192      462.054        0.577        0.118       95.810       17.565        0.034      341.778       16.727      861.250
09/07/2014  02:50:00      -92.164      -79.559       -3.102       45.259       40.510       29.017     2048.346     1641.044      841.966        0.968        0.227      121.753       21.744        0.032      341.690       16.578      861.245
09/07/2014  02:51:00     -126.041      -98.350       -8.726       61.976       35.301       28.700     3841.074     1246.153      823.671        1.577        0.296      159.872       29.973        0.035      341.652       16.513      861.238
09/07/2014  02:52:00     -134.996      -97.131        0.772       47.367       39.323       27.212     2243.636     1546.292      740.505        1.609        0.227      166.309       26.794        0.026      341.737       16.657      861.232
09/07/2014  02:53:00      -89.829      -62.480        1.247       43.426       32.087       25.988     1885.829     1029.570      675.387        0.778        0.180      109.421       21.658        0.039      341.713       16.616      861.237
09/07/2014  02:54:00     -108.021      -70.111       -1.332       36.835       27.365       18.845     1356.795      748.841      355.122        0.952        0.123      128.779       20.179        0.025      341.684       16.567      861.235
09/07/2014  02:55:00     -136.075      -36.641      -12.282       27.397       22.591       14.384      750.606      510.372      206.887        1.074        0.073      140.922        8.537        0.004      341.705       16.604      861.226
09/07/2014  02:56:00     -138.734      -30.426       -9.684       30.376       27.237       17.344      922.689      741.881      300.817        1.112        0.098      142.031       14.518        0.010      341.624       16.465      861.228
09/07/2014  02:57:00     -112.462      -38.280       -2.002       41.958       25.502       22.057     1760.496      650.372      486.515        0.851        0.145      118.798       23.161        0.038      341.578       16.386      861.234
09/07/2014  02:58:00     -118.552      -74.309       -0.956       42.378       34.037       21.521     1795.915     1158.499      463.144        1.150        0.171      139.915       17.966        0.016      341.712       16.615      861.226
09/07/2014  02:59:00     -106.981      -82.385        0.569       44.229       43.975       23.088     1956.236     1933.809      533.075        1.133        0.221      135.026       19.276        0.020      341.771       16.714      861.229
09/07/2014  03:00:00     -117.578      -94.028       -3.453       30.540       22.793       20.206      932.702      519.499      408.283        1.227        0.093      150.552       18.717        0.015      341.738       16.660      861.228
09/07/2014  03:01:00      -97.045      -55.783        0.841       36.120       24.592       19.197     1304.659      604.766      368.507        0.740        0.114      111.935       18.086        0.026      341.572       16.378      861.220
09/07/2014  03:02:00      -95.801      -39.764       -4.946       21.421       23.883       15.844      458.879      570.401      251.031        0.603        0.064      103.726       10.453        0.010      341.528       16.303      861.217
09/07/2014  03:03:00      -99.110      -33.302       -5.493       15.418       20.837       11.341      237.724      434.175      128.614        0.588        0.040      104.555        4.823        0.002      341.566       16.368      861.233
09/07/2014  03:04:00      -80.583      -56.697        4.697       37.524       27.191       20.683     1408.030      739.342      427.775        0.615        0.129       98.530       17.793        0.033      341.612       16.445      861.232
09/07/2014  03:05:00      -67.962      -57.228        4.661       43.733       33.002       19.483     1912.567     1089.105      379.570        0.565        0.169       88.847       23.397        0.069      341.608       16.439      861.243
09/07/2014  03:06:00     -100.734      -45.640       -0.552       35.718       19.806       15.389     1275.781      392.270      236.826        0.707        0.095      110.590       10.309        0.009      341.545       16.331      861.258
09/07/2014  03:07:00     -105.393      -34.971        2.165       32.450       28.242       19.410     1053.002      797.594      376.736        0.728        0.111      111.043       17.613        0.025      341.543       16.328      861.254
09/07/2014  03:08:00     -109.800      -45.771       -3.739       33.301       26.418       19.503     1108.955      697.926      380.351        0.818        0.109      118.958       12.046        0.010      341.602       16.429      861.256
09/07/2014  03:09:00     -154.374      -55.525       -6.484       24.056       21.791       15.200      578.683      474.844      231.055        1.412        0.064      164.056       11.388        0.005      341.590       16.409      861.264
09/07/2014  03:10:00      -97.763      -50.849        3.814       40.454       30.490       22.781     1636.488      929.636      518.968        0.762        0.154      110.197       24.621        0.050      341.529       16.304      861.254
09/07/2014  03:11:00     -117.055      -47.399       -1.975       23.858       26.819       17.951      569.188      719.247      322.222        0.878        0.081      126.288       17.193        0.019      341.560       16.358      861.247
09/07/2014  03:12:00     -103.683      -35.505       -4.792       22.214       26.416       14.884      493.452      697.796      221.531        0.672        0.071      109.593       12.674        0.013      341.624       16.466      861.241
09/07/2014  03:13:00      -99.787      -33.660       -5.702       29.889       20.885       13.749      893.335      436.199      189.026        0.632        0.076      105.311       15.398        0.021      341.564       16.363      861.238
09/07/2014  03:14:00     -114.167      -33.751       -9.619       25.947       15.422       16.484      673.246      237.844      271.734        0.772        0.059      119.051       10.038        0.007      341.497       16.250      861.223
09/07/2014  03:15:00      -78.790      -44.898       -4.682       21.914       21.409       14.517      480.218      458.353      210.739        0.470        0.057       90.684       12.172        0.018      341.407       16.099      861.219
09/07/2014  03:16:00     -105.179      -27.780       -4.612       28.591       19.743       15.656      817.439      389.769      245.106        0.665        0.073      108.785       14.906        0.019      341.433       16.142      861.228
09/07/2014  03:17:00      -98.081      -22.953       -4.941       29.839       30.348       12.124      890.361      920.999      146.983        0.606        0.098      100.731        7.509        0.006      341.419       16.120      861.220
09/07/2014  03:18:00     -106.735      -56.453       -3.283       25.702       16.712       13.217      660.611      279.282      174.699        0.785        0.056      120.745       10.510        0.008      341.433       16.143      861.210
09/07/2014  03:19:00      -89.562      -51.064       -0.525       34.102       20.980       15.976     1162.972      440.164      255.226        0.624        0.093      103.097       17.620        0.029      341.419       16.117      861.216
09/07/2014  03:20:00     -116.710      -50.141       -6.998       16.186       20.801       11.077      261.981      432.698      122.697        0.850        0.041      127.025        7.908        0.004      341.504       16.262      861.199
09/07/2014  03:21:00     -146.652      -28.592      -18.492       18.568       13.330       11.550      344.753      177.691      133.398        1.166        0.033      149.413        6.842        0.002      341.504       16.261      861.191
09/07/2014  03:22:00     -122.659      -15.271      -11.261       27.808       25.269       19.510      773.304      638.504      380.626        0.860        0.090      123.606       16.442        0.018      341.422       16.124      861.183
09/07/2014  03:23:00     -129.602      -16.537       -8.719       20.651       26.020       15.697      426.482      677.045      246.410        0.925        0.067      130.652       11.603        0.008      341.490       16.239      861.178
09/07/2014  03:24:00      -93.260      -59.522       -5.761       43.599       32.299       19.920     1900.896     1043.222      396.791        0.781        0.167      110.636       22.415        0.041      341.413       16.109      861.171
09/07/2014  03:25:00      -93.198      -46.983        1.552       56.419       33.781       24.480     3183.123     1141.156      599.290        0.791        0.246      104.371       11.958        0.013      341.478       16.218      861.167
09/07/2014  03:26:00      -96.414      -79.182        4.678       52.473       46.898       23.505     2753.448     2199.411      552.472        1.055        0.275      124.761       22.405        0.032      341.532       16.310      861.155
09/07/2014  03:27:00     -158.375      -58.548       -9.811       27.469       28.588       22.950      754.557      817.299      526.720        1.535        0.105      168.851        9.980        0.003      341.581       16.393      861.133
09/07/2014  03:28:00     -130.400      -44.487        1.813       39.561       26.523       18.000     1565.066      703.443      324.013        1.079        0.130      137.779       18.187        0.017      341.539       16.321      861.121
09/07/2014  03:29:00     -133.276      -43.391       -4.949       28.506       27.647       13.029      812.583      764.372      169.749        1.071        0.087      140.161       10.545        0.006      341.459       16.186      861.116
09/07/2014  03:30:00     -148.805      -62.543       -2.077       26.555       22.811       18.452      705.165      520.354      340.461        1.381        0.078      161.414       16.013        0.010      341.361       16.019      861.125
09/07/2014  03:31:00      -68.233      -64.636        5.729       55.644       45.610       31.059     3096.283     2080.238      964.667        0.750        0.307       93.987       30.862        0.108      341.408       16.101      861.133
09/07/2014  03:32:00     -123.438     -106.666      -11.598       52.557       47.986       28.114     2762.272     2302.625      790.400        1.630        0.293      163.140       29.188        0.032      341.487       16.232      861.138
09/07/2014  03:33:00      -73.880      -60.340        4.451       66.691       43.135       36.837     4447.682     1860.670     1356.939        0.839        0.383       95.390       32.662        0.117      341.388       16.066      861.149
09/07/2014  03:34:00      -80.858      -78.528       -1.219       48.722       51.313       26.662     2373.849     2633.063      710.845        0.921        0.286      112.715       22.702        0.041      341.411       16.105      861.151
09/07/2014  03:35:00     -112.725     -107.661        0.780       54.453       65.220       36.380     2965.136     4253.620     1323.470        1.642        0.427      155.878       37.262        0.057      341.303       15.922      861.140
09/07/2014  03:36:00     -148.615      -81.704       -1.007       65.763       47.574       30.921     4324.726     2263.239      956.087        1.815        0.377      169.594       32.099        0.036      341.331       15.967      861.124
09/07/2014  03:37:00     -118.719     -134.022        8.051       65.578       51.744       40.783     4300.483     2677.446     1663.286        2.038        0.432      179.042       43.072        0.058      341.234       15.803      861.133
09/07/2014  03:38:00     -173.387      -91.705      -20.291       57.486       42.910       30.722     3304.668     1841.294      943.814        2.249        0.304      196.145       22.327        0.013      341.238       15.809      861.127
09/07/2014  03:39:00     -153.440      -79.158        3.254       49.602       40.334       28.294     2460.365     1626.871      800.525        1.735        0.244      172.655       27.350        0.025      341.218       15.777      861.112
09/07/2014  03:40:00     -149.802      -70.722       -4.212       39.219       35.338       23.696     1538.092     1248.759      561.493        1.540        0.167      165.657       21.509        0.017      341.274       15.872      861.095
09/07/2014  03:41:00     -117.323      -26.169       -4.048       44.816       30.220       24.125     2008.505      913.260      582.016        0.898        0.175      120.206       25.408        0.045      341.311       15.936      861.081
09/07/2014  03:42:00     -125.242      -47.231        3.786       43.138       45.329       19.173     1860.908     2054.703      367.606        1.111        0.214      133.852       12.271        0.008      341.297       15.912      861.067
09/07/2014  03:43:00     -146.784      -49.856       -2.394       41.923       33.692       19.797     1757.561     1135.121      391.907        1.366        0.164      155.020       20.472        0.017      341.177       15.709      861.062
09/07/2014  03:44:00     -141.201      -64.820       -2.488       49.450       27.366       27.766     2445.292      748.919      770.972        1.405        0.198      155.368       29.121        0.035      341.281       15.885      861.073
09/07/2014  03:45:00      -70.302      -86.493        3.714       49.330       45.742       25.756     2433.436     2092.317      663.364        0.881        0.259      111.460       27.900        0.063      341.251       15.834      861.102
09/07/2014  03:46:00      -92.021     -113.119       -0.874       78.406       61.745       47.584     6147.446     3812.466     2264.193        1.674        0.611      145.821       46.306        0.101      341.195       15.738      861.113
09/07/2014  03:47:00     -131.738      -90.211        4.062       48.100       50.291       37.058     2313.575     2529.233     1373.321        1.586        0.311      159.665       31.614        0.039      341.148       15.660      861.096
09/07/2014  03:48:00      -94.205      -61.582       -1.946       54.671       34.352       25.653     2988.904     1180.045      658.059        0.875        0.241      112.548       21.690        0.037      341.234       15.807      861.085
09/07/2014  03:49:00     -118.978      -82.719       -4.922       48.087       43.257       27.177     2312.316     1871.196      738.595        1.297        0.246      144.907       26.872        0.034      341.173       15.702      861.073
09/07/2014  03:50:00     -128.742     -124.616        2.850       68.566       67.879       34.099     4701.281     4607.592     1162.715        2.129        0.524      179.175       37.273        0.043      341.147       15.655      861.060
09/07/2014  03:51:00     -201.932     -144.749       -8.183       39.742       57.983       36.120     1579.400     3362.082     1304.620        3.402        0.312      248.452       27.075        0.012      341.155       15.666      861.041
09/07/2014  03:52:00     -154.865     -108.258        2.678       67.951       58.387       32.595     4617.372     3409.027     1062.437        2.240        0.454      188.952       32.666        0.030      341.156       15.670      861.042
09/07/2014  03:53:00     -119.960      -94.415        6.183       69.519       57.596       37.742     4832.916     3317.298     1424.427        1.646        0.479      152.658       43.266        0.080      341.164       15.686      861.039
09/07/2014  03:54:00     -169.366     -103.109       -3.377       56.704       41.247       30.427     3215.299     1701.286      925.794        2.258        0.292      198.283       29.355        0.022      341.160       15.679      861.039
09/07/2014  03:55:00     -118.037      -42.194       -4.672       54.392       40.579       20.975     2958.511     1646.643      439.945        1.039        0.252      125.352       15.285        0.015      341.176       15.707      861.049
09/07/2014  03:56:00      -50.029      -28.681        4.131       39.507       27.707       24.794     1560.800      767.705      614.734        0.314        0.147       57.667       26.373        0.209      341.175       15.705      861.066
09/07/2014  03:57:00        5.336      -41.240       14.240       10.504       15.447       10.462      110.344      238.617      109.458        0.120        0.023       41.584        8.315        0.040      341.316       15.944      861.067
09/07/2014  03:58:00       -9.609      -19.395        5.147       14.708       10.585       10.396      216.328      112.039      108.080        0.047        0.022       21.645        7.352        0.115      341.210       15.767      861.082
09/07/2014  03:59:00      -21.283      -22.176        2.634       26.595       14.922       16.014      707.317      222.667      256.458        0.107        0.059       30.736        8.220        0.072      341.138       15.643      861.096
09/07/2014  04:00:00      -16.522      -17.233        4.234       25.179       32.918       23.079      633.965     1083.622      532.659        0.142        0.113       23.873       18.991        0.633      341.294       15.906      861.098
09/07/2014  04:01:00      -48.920      -43.445       -1.656       31.997       28.441       23.224     1023.823      808.881      539.360        0.333        0.119       65.427       18.271        0.078      341.253       15.836      861.091
09/07/2014  04:02:00      -99.954      -63.249       -1.608       39.638       29.736       18.560     1571.140      884.259      344.465        0.840        0.140      118.284       16.544        0.020      341.114       15.603      861.067
09/07/2014  04:03:00      -93.500      -64.514        6.569       53.423       44.272       30.588     2854.009     1960.044      935.619        0.935        0.287      113.598       29.191        0.066      341.024       15.451      861.052
09/07/2014  04:04:00      -94.748      -68.392        5.828       64.485       45.330       27.345     4158.336     2054.771      747.764        1.032        0.348      116.853       27.184        0.054      341.013       15.432      861.036
09/07/2014  04:05:00      -84.852      -54.962        8.595       45.332       32.680       23.716     2054.972     1068.003      562.437        0.699        0.184      101.097       19.191        0.036      341.004       15.415      861.026
09/07/2014  04:06:00      -86.023      -36.527        0.608       39.889       32.296       20.125     1591.164     1043.045      405.016        0.589        0.152       93.457       23.088        0.061      340.977       15.372      861.037
09/07/2014  04:07:00      -55.294      -37.100        1.829       27.869       23.471       17.874      776.673      550.911      319.477        0.304        0.082       66.587       15.194        0.052      341.030       15.459      861.042
09/07/2014  04:08:00      -93.492      -75.798       -6.327       26.439       26.351       18.916      699.019      694.378      357.813        0.814        0.088      120.358       13.958        0.013      341.092       15.565      861.051
09/07/2014  04:09:00      -61.673      -74.277        1.727       43.699       29.651       18.382     1909.617      879.153      337.895        0.622        0.156       96.543       15.696        0.026      341.109       15.594      861.066
09/07/2014  04:10:00      -66.921      -59.422       -3.166       53.256       45.749       22.130     2836.233     2092.961      489.723        0.672        0.271       89.495       12.239        0.019      341.068       15.525      861.066
09/07/2014  04:11:00      -89.985      -59.506       -2.223       61.431       46.390       34.339     3773.824     2152.062     1179.164        0.937        0.355      107.881       32.902        0.093      340.948       15.320      861.058
09/07/2014  04:12:00     -151.223      -81.960      -10.098       64.571       44.403       34.443     4169.422     1971.657     1186.303        1.851        0.366      172.005       30.706        0.032      340.944       15.312      861.039
09/07/2014  04:13:00     -127.591      -70.341        3.429       58.012       37.303       26.079     3365.372     1391.510      680.117        1.334        0.272      145.696       25.210        0.030      340.902       15.243      861.026
09/07/2014  04:14:00     -138.157      -49.679       -4.502       32.020       17.695       14.869     1025.277      313.118      221.074        1.157        0.078      146.817       13.175        0.008      340.928       15.287      861.027
09/07/2014  04:15:00     -103.747      -17.178       -5.351       28.846       26.259       18.954      832.074      689.550      359.236        0.648        0.094      105.160       12.968        0.015      340.844       15.145      861.030
09/07/2014  04:16:00      -82.815      -30.681        2.539       54.820       35.808       20.335     3005.239     1282.202      413.497        0.625        0.235       88.315       27.352        0.096      340.765       15.012      861.026
09/07/2014  04:17:00      -87.827      -19.024       -0.263       39.191       34.851       21.976     1535.910     1214.595      482.943        0.565        0.162       89.864       23.127        0.066      340.751       14.987      861.022
09/07/2014  04:18:00      -63.525      -33.931        9.828       33.930       27.836       23.113     1151.258      774.824      534.216        0.387        0.123       72.019       18.451        0.066      340.755       14.995      861.019
09/07/2014  04:19:00      -68.078      -47.527        4.896       41.478       31.937       22.108     1720.440     1019.949      488.749        0.507        0.161       83.027       19.470        0.055      340.867       15.183      861.014
09/07/2014  04:20:00      -82.013      -38.655       -3.330       35.867       26.380       18.701     1286.423      695.917      349.732        0.528        0.117       90.666        5.664        0.004      340.834       15.128      861.003
09/07/2014  04:21:00      -58.087       -8.461       11.440       60.750       21.679       20.350     3690.545      469.990      414.119        0.407        0.229       58.700       22.022        0.141      340.770       15.019      860.997
09/07/2014  04:22:00      -59.176      -32.847        7.164       37.155       26.360       16.697     1380.489      694.825      278.784        0.349        0.118       67.681       16.697        0.061      340.804       15.078      860.974
09/07/2014  04:23:00      -47.881      -50.576        0.047       22.246       15.334       14.236      494.903      235.118      202.677        0.289        0.047       69.645        8.361        0.014      340.936       15.301      860.967
09/07/2014  04:24:00      -15.262      -65.556       -6.031       21.243       25.146       14.392      451.249      632.312      207.130        0.293        0.065       67.309       11.039        0.027      340.988       15.389      860.967
09/07/2014  04:25:00      -29.084       -9.967        4.742       27.731       16.952       15.899      769.004      287.369      252.768        0.114        0.065       30.744       16.103        0.274      340.912       15.262      860.959
09/07/2014  04:26:00      -68.675        9.815       -1.853       16.940       18.457        9.085      286.969      340.661       82.535        0.276        0.036       69.373        7.878        0.013      340.928       15.287      860.950
09/07/2014  04:27:00     -109.430      -28.214       -9.735       22.118       21.857       14.215      489.215      477.716      202.068        0.702        0.058      113.009       11.414        0.010      340.850       15.155      860.955
09/07/2014  04:28:00     -104.691      -19.932       -8.229       31.611       16.555       16.393      999.284      274.054      268.737        0.648        0.077      106.571       16.170        0.023      340.676       14.860      860.957
09/07/2014  04:29:00      -85.865      -37.283       -7.299       19.336       15.014       14.463      373.872      225.434      209.181        0.481        0.040       93.610       10.538        0.013      340.737       14.964      860.952
09/07/2014  04:30:00      -80.660      -38.209       -2.578       19.656       16.586       11.860      386.364      275.084      140.666        0.439        0.040       89.252        9.400        0.011      340.727       14.946      860.943
09/07/2014  04:31:00      -61.446      -30.923       -0.520       38.460       21.514       15.688     1479.200      462.832      246.111        0.346        0.109       68.789       21.099        0.094      340.693       14.890      860.945
09/07/2014  04:32:00      -13.763      -17.436        4.675       23.876       14.156        8.027      570.083      200.398       64.425        0.067        0.042       22.213        6.197        0.078      340.740       14.970      860.958
09/07/2014  04:33:00      -20.264      -31.031       -3.440       17.226       14.059       11.929      296.739      197.643      142.289        0.101        0.032       37.062        9.097        0.060      340.824       15.112      860.963
09/07/2014  04:34:00      -20.454      -32.036        3.028       17.717       20.864       12.573      313.902      435.293      158.078        0.118        0.045       38.009        8.279        0.047      340.823       15.109      860.972
09/07/2014  04:35:00      -87.935      -62.632       -4.301       34.394       29.449       16.071     1182.920      867.262      258.277        0.699        0.115      107.960       14.172        0.017      340.794       15.062      860.982
09/07/2014  04:36:00     -136.152      -57.937      -13.358       36.532       29.472       15.466     1334.576      868.592      239.186        1.226        0.122      147.967       15.862        0.011      340.760       15.003      860.994
09/07/2014  04:37:00      -96.324      -66.009       -3.041       54.779       39.199       29.627     3000.791     1536.548      877.731        0.953        0.271      116.771       27.714        0.056      340.611       14.751      860.998
09/07/2014  04:38:00     -113.610      -73.195        3.087       62.996       47.701       29.094     3968.524     2275.382      846.442        1.268        0.355      135.147       29.948        0.049      340.651       14.818      861.002
09/07/2014  04:39:00     -103.105      -80.956        2.440       55.229       43.535       30.479     3050.222     1895.321      928.971        1.153        0.294      131.090       30.458        0.054      340.670       14.851      861.010
09/07/2014  04:40:00      -88.967      -79.729        1.906       43.498       37.980       19.626     1892.073     1442.461      385.165        0.900        0.186      119.465       22.069        0.034      340.714       14.925      861.011
09/07/2014  04:41:00      -92.502      -45.732       -7.821       31.591       17.009       15.042      997.996      289.317      226.256        0.611        0.076      103.189       14.995        0.021      340.744       14.976      861.008
09/07/2014  04:42:00      -77.591      -38.208       -7.624       14.329       19.032        8.988      205.333      362.209       80.786        0.409        0.032       86.488        9.117        0.011      340.763       15.009      861.012
09/07/2014  04:43:00      -89.784      -40.149       -2.954       18.780       20.374       15.500      352.682      415.087      240.252        0.534        0.050       98.353        9.780        0.010      340.674       14.859      861.025
09/07/2014  04:44:00      -34.864      -25.108       11.700       38.311       19.625       20.319     1467.763      385.146      412.858        0.212        0.113       42.964       20.799        0.234      340.643       14.805      861.040
09/07/2014  04:45:00      -30.697      -45.097        8.930       29.766       29.977       20.409      886.030      898.644      416.521        0.263        0.110       54.553       18.172        0.111      340.704       14.908      861.050
09/07/2014  04:46:00      -76.485      -68.421        1.116       39.601       29.617       22.545     1568.269      877.151      508.263        0.674        0.148      102.622       15.045        0.021      340.679       14.867      861.039
09/07/2014  04:47:00     -101.291      -43.296        0.532       34.787       23.491       18.361     1210.144      551.836      337.114        0.712        0.105      110.157       16.012        0.021      340.613       14.755      861.026
09/07/2014  04:48:00      -78.443      -30.652        5.181       33.332       29.840       21.372     1111.023      890.432      456.779        0.479        0.123       84.219       18.220        0.047      340.543       14.635      861.023
09/07/2014  04:49:00     -105.420      -36.151        3.316       33.052       21.027       17.265     1092.424      442.120      298.076        0.713        0.092      111.447       14.216        0.016      340.548       14.646      861.028
09/07/2014  04:50:00     -116.959      -47.138       -3.366       31.057       36.008       18.130      964.564     1296.566      328.711        0.925        0.129      126.100       15.051        0.014      340.644       14.806      861.022
09/07/2014  04:51:00     -115.839      -36.087        3.516       40.180       29.925       20.886     1614.408      895.531      436.206        0.884        0.147      121.330       18.287        0.023      340.662       14.837      861.011
09/07/2014  04:52:00      -93.077      -41.768        3.442       32.304       18.811       16.676     1043.562      353.859      278.087        0.605        0.084      102.019       18.680        0.034      340.546       14.642      861.023
09/07/2014  04:53:00      -76.638      -31.859       12.183       44.682       33.565       23.722     1996.462     1126.581      562.735        0.536        0.184       82.996       25.004        0.091      340.540       14.631      861.046
09/07/2014  04:54:00      -86.667      -14.594        0.379       39.899       30.420       16.964     1591.905      925.347      287.781        0.526        0.140       87.888       19.159        0.048      340.498       14.561      861.046
09/07/2014  04:55:00      -76.259      -18.270       -3.856       14.036       18.498       13.213      197.018      342.180      174.596        0.344        0.036       78.417        6.189        0.006      340.571       14.683      861.043
09/07/2014  04:56:00      -81.771       -0.723       -8.043       23.596       20.452       13.583      556.788      418.270      184.501        0.396        0.058       81.774       12.817        0.025      340.493       14.551      861.045
09/07/2014  04:57:00     -111.379      -21.377       -8.958       32.704       19.421       14.234     1069.546      377.186      202.600        0.730        0.082      113.412       14.194        0.016      340.550       14.647      861.056
09/07/2014  04:58:00     -127.542      -50.397       -0.574       27.158       20.294       16.587      737.558      411.841      275.134        1.012        0.071      137.138       16.051        0.014      340.552       14.651      861.064
09/07/2014  04:59:00      -85.855      -48.864       -1.490       43.905       25.574       17.314     1927.639      654.027      299.787        0.632        0.144       98.786       15.104        0.023      340.521       14.599      861.062
09/07/2014  05:00:00      -89.895      -44.653        4.103       35.565       24.137       17.362     1264.848      582.611      301.446        0.612        0.107      100.374       14.515        0.021      340.534       14.620      861.070
09/07/2014  05:01:00     -122.899      -51.190       -4.874       20.416       18.909       13.183      416.795      357.549      173.803        0.935        0.047      133.134       10.376        0.006      340.573       14.688      861.082
09/07/2014  05:02:00     -116.417      -64.789       -0.679       32.795       21.440       14.977     1075.479      459.668      224.324        0.975        0.088      133.232       14.362        0.012      340.536       14.625      861.079
09/07/2014  05:03:00      -99.662      -52.472       -1.504       30.130       26.502       17.154      907.842      702.356      294.276        0.730        0.095      112.632       14.112        0.016      340.482       14.534      861.078
09/07/2014  05:04:00     -118.209      -49.979       -3.264       26.759       22.816       14.759      716.023      520.578      217.833        0.897        0.073      128.341       10.580        0.007      340.521       14.598      861.072
09/07/2014  05:05:00     -101.709      -45.030        6.183       35.726       28.291       19.788     1276.349      800.399      391.570        0.744        0.123      111.231       19.594        0.031      340.467       14.508      861.070
09/07/2014  05:06:00      -71.684      -59.124        9.055       39.125       35.635       22.133     1530.730     1269.857      489.885        0.600        0.165       92.921       19.479        0.044      340.540       14.632      861.064
09/07/2014  05:07:00      -63.548      -63.135       -1.425       50.698       36.349       21.489     2570.321     1321.244      461.779        0.619        0.218       89.579       24.901        0.077      340.533       14.619      861.057
09/07/2014  05:08:00      -88.276      -73.430       -0.698       47.831       34.922       21.187     2287.843     1219.534      448.886        0.857        0.198      114.824       21.786        0.036      340.483       14.536      861.062
09/07/2014  05:09:00     -102.712     -102.474       -7.031       37.621       41.104       23.192     1415.323     1689.575      537.884        1.237        0.182      145.089       16.657        0.013      340.496       14.555      861.057
09/07/2014  05:10:00     -154.768     -106.143      -12.392       40.364       50.498       34.306     1629.282     2550.084     1176.935        2.036        0.268      187.669       27.233        0.021      340.479       14.527      861.056
09/07/2014  05:11:00     -136.159     -129.659       -9.199       65.593       42.564       33.134     4302.455     1811.726     1097.845        2.132        0.361      188.018       35.258        0.035      340.399       14.392      861.062
09/07/2014  05:12:00     -146.132      -95.537       -9.465       37.108       57.258       31.366     1377.027     3278.497      983.821        1.810        0.282      174.590       32.878        0.035      340.401       14.394      861.061
09/07/2014  05:13:00     -134.990      -90.885        5.138       42.929       52.125       27.106     1842.941     2717.041      734.761        1.590        0.265      162.734       28.712        0.031      340.361       14.328      861.052
09/07/2014  05:14:00     -118.073      -67.348        4.676       50.986       39.927       29.104     2599.605     1594.200      847.034        1.177        0.252      135.930       20.930        0.024      340.377       14.357      861.039
09/07/2014  05:15:00     -112.516      -83.690       -7.360       35.624       31.131       22.939     1269.097      969.118      526.218        1.124        0.138      140.228       16.461        0.014      340.390       14.377      861.044
09/07/2014  05:16:00      -79.412      -71.948        2.997       46.119       36.806       25.553     2126.935     1354.707      652.975        0.781        0.207      107.158       24.189        0.051      340.449       14.476      861.055
09/07/2014  05:17:00      -68.730      -97.642        2.886       37.617       40.651       19.073     1415.048     1652.535      363.797        0.885        0.172      119.406       20.068        0.028      340.486       14.539      861.071
09/07/2014  05:18:00      -99.975     -122.137      -10.629       57.143       52.716       27.706     3265.315     2778.927      767.636        1.592        0.341      157.837       26.591        0.028      340.417       14.422      861.095
09/07/2014  05:19:00      -77.115     -116.427       -8.595       58.584       60.712       32.395     3432.133     3685.916     1049.430        1.387        0.408      139.649       33.925        0.059      340.284       14.196      861.110
09/07/2014  05:20:00      -48.675      -91.099       10.650       68.501       50.464       34.105     4692.454     2546.572     1163.162        0.959        0.420      103.288       28.435        0.076      340.276       14.184      861.120
09/07/2014  05:21:00      -98.968     -111.741       -6.065       55.669       60.889       39.404     3099.015     3707.438     1552.646        1.534        0.418      149.267       34.534        0.054      340.184       14.029      861.126
09/07/2014  05:22:00     -110.275      -89.991        1.742       71.707       67.275       33.082     5141.840     4525.982     1094.434        1.551        0.538      142.334       27.431        0.037      340.160       13.990      861.135
09/07/2014  05:23:00      -95.790      -92.650       -5.345       85.338       72.742       39.665     7282.624     5291.407     1573.349        1.597        0.707      133.266       33.713        0.064      340.147       13.965      861.124
09/07/2014  05:24:00     -128.005      -92.439        5.735       64.010       65.281       35.764     4097.247     4261.589     1279.045        1.730        0.482      157.893       31.261        0.039      340.098       13.882      861.136
09/07/2014  05:25:00     -155.298      -53.819        0.171       68.480       45.559       33.704     4689.538     2075.622     1135.945        1.746        0.395      164.360       36.303        0.049      340.090       13.870      861.135
09/07/2014  05:26:00     -177.444      -82.693       -5.744       56.732       61.889       33.622     3218.472     3830.241     1130.450        2.327        0.409      195.767       27.615        0.020      340.142       13.957      861.114
09/07/2014  05:27:00     -124.073      -73.648      -10.235       51.732       35.834       27.008     2676.182     1284.102      729.413        1.281        0.234      144.285       20.857        0.021      340.192       14.042      861.101
09/07/2014  05:28:00     -123.839      -45.585        2.042       40.235       31.239       24.164     1618.863      975.894      583.886        1.030        0.159      131.963       23.265        0.031      340.193       14.045      861.082
09/07/2014  05:29:00      -90.118      -63.455       -8.877       38.021       23.556       20.725     1445.573      554.873      429.539        0.733        0.121      110.217       21.973        0.040      340.241       14.124      861.070
09/07/2014  05:30:00      -38.617      -43.032        9.350       42.560       27.312       21.349     1811.317      745.944      455.773        0.322        0.151       57.819       24.776        0.184      340.242       14.128      861.078
09/07/2014  05:31:00      -11.047      -33.313        9.276       34.104       24.224       20.628     1163.092      586.822      425.502        0.175        0.109       35.097       18.493        0.278      340.274       14.180      861.099
09/07/2014  05:32:00      -47.883      -85.535        9.035       64.212       70.275       42.420     4123.173     4938.563     1799.492        1.027        0.543       98.026       45.247        0.213      340.205       14.066      861.119
09/07/2014  05:33:00     -117.365      -86.983        5.433       81.272       75.897       36.220     6605.133     5760.399     1311.891        1.752        0.684      146.084       38.786        0.070      340.099       13.886      861.127
09/07/2014  05:34:00     -188.019      -80.188       -0.605       78.256       56.160       38.628     6124.022     3153.956     1492.139        2.627        0.539      204.405       42.761        0.044      340.062       13.820      861.120
09/07/2014  05:35:00     -110.997      -87.218       -3.394       59.719       53.716       30.244     3566.303     2885.416      914.718        1.365        0.368      141.164       27.583        0.038      340.094       13.877      861.100
09/07/2014  05:36:00     -120.212      -35.994       -8.585       34.934       33.082       22.510     1220.350     1094.449      506.682        0.932        0.141      125.485       16.118        0.016      340.162       13.991      861.078
09/07/2014  05:37:00     -108.232      -22.236       -3.938       49.346       47.155       28.414     2435.049     2223.620      807.372        0.884        0.273      110.493       27.830        0.063      340.101       13.888      861.073
09/07/2014  05:38:00     -136.359       -2.020       -8.447       35.844       36.313       23.295     1284.820     1318.649      542.677        1.091        0.157      136.374       19.846        0.021      339.962       13.654      861.060
09/07/2014  05:39:00     -155.275       40.716      -14.501       37.024       19.997       12.952     1370.779      399.868      167.763        1.396        0.097      160.525        7.552        0.002      340.203       14.061      861.051
09/07/2014  05:40:00      -92.813       -4.237       -5.593       35.759       28.096       17.130     1278.734      789.409      293.424        0.551        0.118       92.910       19.303        0.043      340.262       14.161      861.055
09/07/2014  05:41:00      -15.286      -35.541       12.070       37.727       25.958       19.456     1423.358      673.811      378.518        0.206        0.124       38.689       16.024        0.172      340.198       14.052      861.074
09/07/2014  05:42:00      -39.991      -45.791       13.317       51.326       38.443       31.591     2634.399     1477.839      997.986        0.449        0.256       60.795       33.578        0.305      340.040       13.787      861.094
09/07/2014  05:43:00     -120.377     -123.030       -3.133       54.347       64.566       33.439     2953.575     4168.811     1118.189        1.894        0.412      172.125       32.420        0.035      340.053       13.806      861.111
09/07/2014  05:44:00     -170.780      -87.227       -7.886       52.417       54.329       33.175     2747.553     2951.604     1100.578        2.182        0.340      191.766       30.838        0.026      340.029       13.767      861.116
09/07/2014  05:45:00     -140.127      -27.845       -7.702       54.315       42.628       24.165     2950.144     1817.175      583.932        1.291        0.268      142.867       20.866        0.021      340.054       13.810      861.094
09/07/2014  05:46:00     -100.379      -57.696       -0.798       43.821       44.101       23.339     1920.244     1944.898      544.731        0.891        0.220      115.779       22.226        0.037      340.073       13.843      861.083
09/07/2014  05:47:00     -132.372      -79.067        3.154       45.292       37.060       26.737     2051.401     1373.421      714.888        1.396        0.207      154.188       23.675        0.024      340.137       13.950      861.086
09/07/2014  05:48:00      -99.110      -81.886        5.126       53.365       42.304       29.794     2847.860     1789.613      887.685        1.104        0.276      128.562       26.980        0.044      340.105       13.897      861.123
09/07/2014  05:49:00     -118.795      -82.415       -2.394       38.401       30.360       24.445     1474.649      921.743      597.563        1.195        0.150      144.584       17.704        0.015      340.177       14.019      861.144
09/07/2014  05:50:00     -104.517      -65.000       -5.305       33.765       30.904       16.570     1140.092      955.074      274.570        0.877        0.118      123.080       13.356        0.012      340.194       14.047      861.164
09/07/2014  05:51:00      -86.938      -67.496        2.226       49.718       27.566       26.364     2471.892      759.857      695.047        0.802        0.196      110.063       29.795        0.073      340.211       14.074      861.178
09/07/2014  05:52:00      -63.848      -54.892        4.817       40.582       26.182       21.375     1646.874      685.474      456.902        0.495        0.139       84.200       17.351        0.042      340.184       14.028      861.191
09/07/2014  05:53:00      -58.675      -50.538       -9.628       24.185       21.219       14.721      584.920      450.238      216.710        0.367        0.063       77.440        8.875        0.013      340.179       14.020      861.183
09/07/2014  05:54:00      -86.784      -39.738       -7.576       19.723       15.100       14.327      388.991      228.016      205.255        0.500        0.041       95.450       10.442        0.012      340.141       13.956      861.189
09/07/2014  05:55:00      -28.020      -24.801        7.558       28.889       25.525       19.195      834.556      651.541      368.460        0.166        0.093       37.420       18.616        0.248      340.090       13.871      861.203
09/07/2014  05:56:00      -26.295      -29.585        9.571       35.503       26.797       20.328     1260.447      718.055      413.234        0.202        0.120       39.582       15.478        0.153      340.111       13.906      861.203
09/07/2014  05:57:00      -77.989      -78.062        4.810       69.184       54.365       29.204     4786.477     2955.566      852.845        1.040        0.430      110.345       31.641        0.082      340.049       13.802      861.198
09/07/2014  05:58:00     -159.191      -71.669       -1.103       41.951       42.728       29.906     1759.855     1825.658      894.395        1.748        0.224      174.580       22.684        0.017      340.111       13.906      861.192
09/07/2014  05:59:00     -144.493      -43.344        3.760       47.682       33.643       21.467     2273.601     1131.852      460.820        1.332        0.193      150.854       24.301        0.026      340.131       13.939      861.179
09/07/2014  06:00:00     -108.843      -21.414       -4.728       43.082       25.142       18.627     1856.074      632.128      346.958        0.758        0.142      110.930       19.048        0.029      340.086       13.863      861.170
09/07/2014  06:01:00      -74.516      -17.240        1.245       38.931       28.540       20.296     1515.624      814.534      411.931        0.430        0.137       76.485       19.820        0.067      340.002       13.722      861.168
09/07/2014  06:02:00     -103.795      -69.934        1.316       43.667       35.141       24.027     1906.834     1234.886      577.284        0.969        0.186      125.156       19.150        0.023      340.093       13.876      861.170
09/07/2014  06:03:00      -78.762      -35.948        6.993       52.097       27.360       26.647     2714.093      748.549      710.038        0.586        0.209       86.578       17.236        0.040      339.969       13.667      861.194
09/07/2014  06:04:00      -56.567      -45.115        0.143       52.194       35.260       28.127     2724.166     1243.242      791.124        0.500        0.238       72.355       23.517        0.106      339.949       13.632      861.226
09/07/2014  06:05:00      -50.084      -49.303       10.112       52.979       48.014       27.194     2806.773     2305.312      739.530        0.545        0.293       70.279       18.153        0.067      339.918       13.581      861.255
09/07/2014  06:06:00     -101.804      -66.844       -7.816       33.895       29.142       18.984     1148.880      849.255      360.404        0.863        0.118      121.788       16.645        0.019      340.006       13.729      861.273
09/07/2014  06:07:00     -128.743      -60.392        4.136       40.425       44.369       26.241     1634.206     1968.627      688.600        1.226        0.215      142.204       27.253        0.037      340.009       13.735      861.258
09/07/2014  06:08:00      -93.637      -46.118        3.872       45.119       27.190       21.693     2035.738      739.290      470.590        0.708        0.162      104.377       19.154        0.034      340.045       13.795      861.244
09/07/2014  06:09:00      -38.142      -47.650        8.956       35.581       23.023       16.862     1266.035      530.049      284.329        0.294        0.104       61.036       16.563        0.074      340.097       13.883      861.241
09/07/2014  06:10:00      -83.734      -35.388       -6.389       37.096       28.779       20.443     1376.126      828.244      417.909        0.546        0.131       90.905       17.931        0.039      340.116       13.914      861.240
09/07/2014  06:11:00      -94.794      -69.419       -5.031       49.873       35.201       19.519     2487.280     1239.098      380.977        0.897        0.205      117.494       19.699        0.028      340.054       13.810      861.248
09/07/2014  06:12:00      -65.838      -41.748        7.817       41.701       27.086       22.290     1739.015      733.626      496.864        0.455        0.148       77.958       15.955        0.042      339.986       13.697      861.265
09/07/2014  06:13:00     -125.091      -69.086        4.162       58.941       38.908       26.652     3474.038     1513.842      710.317        1.307        0.285      142.901       30.982        0.047      339.966       13.661      861.285
09/07/2014  06:14:00     -132.144      -70.604       -4.172       38.715       31.136       25.439     1498.820      969.471      647.168        1.279        0.156      149.823       22.095        0.022      339.963       13.656      861.299
09/07/2014  06:15:00      -82.119      -74.439      -11.983       41.713       29.269       24.009     1739.956      856.672      576.411        0.780        0.159      110.836       22.778        0.042      340.006       13.729      861.301
09/07/2014  06:16:00      -72.910      -52.560        3.433       45.457       39.414       20.440     2066.320     1553.502      417.792        0.606        0.202       89.880       22.624        0.063      339.959       13.649      861.301
09/07/2014  06:17:00      -56.830      -29.015        1.267       49.948       32.173       21.938     2494.763     1035.110      481.283        0.404        0.201       63.808       19.522        0.094      339.960       13.651      861.304
09/07/2014  06:18:00      -46.637      -38.935        4.493       54.968       19.317       23.404     3021.461      373.137      547.752        0.383        0.197       60.753       23.789        0.153      339.940       13.616      861.303
09/07/2014  06:19:00      -86.415      -60.619       -3.782       32.953       30.269       22.398     1085.880      916.232      501.688        0.683        0.125      105.556       14.085        0.018      339.966       13.661      861.299
09/07/2014  06:20:00      -77.654      -88.261       -2.505       48.217       33.975       18.955     2324.881     1154.308      359.281        0.883        0.192      117.559       12.091        0.011      339.994       13.711      861.311
09/07/2014  06:21:00      -83.831     -100.270       -4.767       52.749       41.747       31.398     2782.461     1742.776      985.858        1.131        0.276      130.697       33.381        0.065      339.922       13.586      861.326
09/07/2014  06:22:00      -91.249     -102.446       -3.738       54.292       40.334       30.012     2947.645     1626.858      900.695        1.215        0.274      137.191       31.965        0.054      339.885       13.524      861.332
09/07/2014  06:23:00      -98.795      -62.345       -4.420       35.939       28.094       22.977     1291.604      789.264      527.942        0.814        0.130      116.821       18.366        0.025      339.855       13.475      861.344
09/07/2014  06:24:00      -69.792      -56.057       -1.633       52.911       27.340       18.714     2799.619      747.466      350.202        0.596        0.195       89.517       22.749        0.065      339.862       13.486      861.354
09/07/2014  06:25:00     -106.642      -24.387       -7.337       46.984       33.156       25.722     2207.474     1099.318      661.629        0.799        0.198      109.395       25.014        0.052      339.887       13.528      861.372
09/07/2014  06:26:00     -124.038      -73.189       -6.668       33.514       29.525       19.132     1123.157      871.705      366.049        1.157        0.118      144.021       20.294        0.020      339.725       13.255      861.382
09/07/2014  06:27:00     -122.700      -55.270       -9.948       30.730       26.162       17.991      944.335      684.425      323.681        1.008        0.098      134.573       15.929        0.014      339.729       13.262      861.403
09/07/2014  06:28:00     -117.012      -52.492      -12.761       20.420       14.618       15.676      416.985      213.690      245.723        0.874        0.044      128.247        5.916        0.002      339.712       13.230      861.421
09/07/2014  06:29:00     -102.614      -43.560      -16.371       13.587       10.205       11.608      184.598      104.137      134.738        0.656        0.021      111.477        4.417        0.002      339.688       13.192      861.425
09/07/2014  06:30:00      -76.380      -42.368        5.291       36.611       18.967       22.521     1340.397      359.748      507.207        0.493        0.110       87.344       25.661        0.086      339.702       13.217      861.422
09/07/2014  06:31:00      -49.230      -37.888        7.254       42.487       25.943       17.226     1805.163      673.035      296.735        0.334        0.139       62.122       21.566        0.121      339.771       13.332      861.421
09/07/2014  06:32:00      -32.606      -26.474       10.951       41.641       19.945       20.864     1734.011      397.789      435.307        0.223        0.128       42.000       23.048        0.301      339.739       13.280      861.430
09/07/2014  06:33:00      -15.762       -8.519       10.500       30.434       18.985       14.982      926.231      360.429      224.475        0.097        0.076       17.917       13.086        0.533      339.733       13.268      861.460
09/07/2014  06:34:00      -19.935      -44.434        3.920       35.917       30.740       20.856     1290.056      944.957      434.966        0.253        0.133       48.701       23.233        0.228      339.841       13.451      861.489
09/07/2014  06:35:00      -75.210      -92.748       -3.402       52.967       39.711       29.279     2805.554     1576.995      857.254        0.975        0.262      119.410       27.313        0.052      339.876       13.509      861.506
09/07/2014  06:36:00      -98.619      -70.315       -3.982       50.298       32.064       23.188     2529.887     1028.095      537.688        0.939        0.205      121.120       27.355        0.051      339.836       13.442      861.500
09/07/2014  06:37:00      -97.538      -52.575        5.898       54.702       38.925       25.018     2992.338     1515.178      625.902        0.872        0.257      110.805       25.084        0.051      339.826       13.424      861.495
09/07/2014  06:38:00      -80.466      -59.391        2.202       50.610       28.421       25.076     2561.394      807.764      628.800        0.700        0.200      100.010       27.287        0.074      339.887       13.528      861.482
09/07/2014  06:39:00     -117.269      -51.660      -12.313       13.863       15.666       11.232      192.169      245.426      126.148        0.857        0.028      128.144        2.219        0.000      339.858       13.480      861.465
09/07/2014  06:40:00     -121.577      -52.014      -17.797       21.258       16.870       13.696      451.883      284.611      187.577        0.936        0.046      132.236       11.525        0.008      339.973       13.672      861.453
09/07/2014  06:41:00     -126.776      -59.169       -7.773       24.679       17.751       16.001      609.040      315.090      256.021        1.041        0.059      139.904       13.147        0.009      339.780       13.349      861.463
09/07/2014  06:42:00      -90.812      -69.927       -3.182       40.043       24.372       23.226     1603.470      593.984      539.445        0.794        0.137      114.615       19.017        0.028      339.770       13.331      861.485
09/07/2014  06:43:00      -98.825      -60.303        0.822       48.598       31.478       18.387     2361.746      990.871      338.089        0.855        0.185      115.771       18.985        0.027      339.717       13.243      861.511
09/07/2014  06:44:00      -53.673      -68.454       12.266       55.948       51.579       29.457     3130.195     2660.414      867.705        0.719        0.333       86.987       31.209        0.129      339.874       13.506      861.521
09/07/2014  06:45:00     -112.431      -83.614        4.004       37.469       41.865       23.923     1403.945     1752.667      572.289        1.169        0.186      140.115       24.092        0.030      339.843       13.453      861.516
09/07/2014  06:46:00     -129.878      -73.402       -2.755       31.318       35.576       17.232      980.830     1265.666      296.943        1.240        0.127      149.185       13.583        0.008      339.851       13.468      861.498
09/07/2014  06:47:00      -59.719      -34.547        1.260       55.379       20.963       19.181     3066.827      439.458      367.915        0.432        0.194       68.992       25.733        0.139      339.789       13.364      861.493
09/07/2014  06:48:00      -72.004      -38.655       -3.791       37.227       27.243       14.496     1385.846      742.178      210.133        0.452        0.117       81.724       16.594        0.041      339.840       13.449      861.493
09/07/2014  06:49:00      -76.138      -30.130       -6.268       21.553       20.340        9.611      464.515      413.707       92.369        0.386        0.049       81.884        7.926        0.009      339.843       13.455      861.494
09/07/2014  06:50:00      -24.557      -42.832        2.974       32.079       24.034       17.115     1029.035      577.654      292.933        0.217        0.095       49.373       13.364        0.073      339.981       13.687      861.505
09/07/2014  06:51:00      -30.626      -31.644       11.792       28.370       27.599       20.425      804.871      761.713      417.174        0.203        0.099       44.037       14.947        0.115      339.983       13.691      861.519
09/07/2014  06:52:00      -98.203      -59.763       -7.104       38.564       21.745       17.502     1487.198      472.842      306.313        0.777        0.113      114.959       15.250        0.018      339.921       13.587      861.532
09/07/2014  06:53:00     -100.010      -53.737       -3.614       22.507       19.246       18.298      506.557      370.397      334.832        0.706        0.061      113.533       16.645        0.021      339.921       13.586      861.529
09/07/2014  06:54:00     -130.650      -46.614      -18.908       16.021       13.739       12.382      256.680      188.760      153.323        1.010        0.030      138.716        4.429        0.001      339.920       13.583      861.517
09/07/2014  06:55:00     -150.319      -30.612      -20.889       36.956       20.826       18.770     1365.781      433.724      352.324        1.306        0.108      153.405       13.963        0.008      339.898       13.547      861.512
09/07/2014  06:56:00     -105.574      -12.434       -2.169       55.712       34.593       29.972     3103.874     1196.685      898.324        0.825        0.260      106.304       30.456        0.082      339.916       13.577      861.510
09/07/2014  06:57:00     -139.028      -22.757      -16.731       32.302       40.255       22.871     1043.412     1620.485      523.105        1.166        0.159      140.879       14.415        0.010      340.010       13.737      861.520
09/07/2014  06:58:00      -93.674      -46.381      -11.963       18.011       22.676       14.802      324.393      514.194      219.094        0.606        0.053      104.528        4.376        0.002      339.916       13.577      861.538
09/07/2014  06:59:00      -80.168      -50.432      -10.925       30.610       16.721       11.621      936.948      279.582      135.057        0.522        0.068       94.711        7.855        0.007      340.027       13.764      861.558
09/07/2014  07:00:00      -35.705      -71.270        8.260       48.370       37.339       25.135     2339.614     1394.186      631.756        0.539        0.218       79.713       25.767        0.104      340.090       13.871      861.575
09/07/2014  07:01:00      -81.068     -172.699       -9.474       34.299       54.386       24.610     1176.408     2957.856      605.635        2.061        0.237      190.780       22.388        0.014      339.864       13.487      861.592
09/07/2014  07:02:00      -46.433      -97.786        1.005       64.577       45.312       30.085     4170.238     2053.142      905.132        0.942        0.356      108.250       26.920        0.062      339.896       13.543      861.605
09/07/2014  07:03:00     -121.119      -33.149       -5.676       57.468       35.906       25.269     3302.573     1289.232      638.543        1.051        0.262      125.573       23.274        0.034      339.862       13.486      861.603
09/07/2014  07:04:00     -106.589      -47.150       -7.891       32.393       38.208       15.841     1049.292     1459.818      250.952        0.820        0.138      116.552       10.203        0.008      339.965       13.660      861.596
09/07/2014  07:05:00      -70.048      -27.331       -5.017       34.595       21.755       15.492     1196.803      473.266      239.994        0.379        0.096       75.191       16.592        0.049      339.989       13.700      861.602
09/07/2014  07:06:00      -53.329      -34.876       -0.639       36.469       16.514       14.372     1329.978      272.698      206.563        0.293        0.090       63.720       15.544        0.060      339.988       13.700      861.612
09/07/2014  07:07:00      -93.694      -25.511       -9.635       14.423       11.533       11.268      208.026      133.016      126.965        0.500        0.023       97.105        5.351        0.003      339.999       13.717      861.600
09/07/2014  07:08:00      -61.248      -28.772       -9.613       16.176       12.199       11.227      261.657      148.827      126.038        0.260        0.027       67.670        8.740        0.017      340.079       13.853      861.597
09/07/2014  07:09:00      -64.464      -45.795       -1.852       30.558       21.005       15.530      933.821      441.192      241.171        0.394        0.081       79.075       16.763        0.045      340.125       13.930      861.581
09/07/2014  07:10:00      -23.472      -43.671       19.958       43.416       34.750       25.903     1884.972     1207.585      670.945        0.331        0.188       49.579       28.963        0.341      340.086       13.863      861.593
09/07/2014  07:11:00      -72.143     -128.266       -5.429       47.971       33.801       24.413     2301.248     1142.478      596.005        1.286        0.202      147.162       19.588        0.018      339.860       13.482      861.596
09/07/2014  07:12:00      -50.382      -72.258       -4.087       45.829       31.991       23.773     2100.340     1023.423      565.153        0.573        0.184       88.089       21.461        0.059      339.870       13.500      861.608
09/07/2014  07:13:00      -61.682      -37.873       -0.136       37.037       32.148       21.373     1371.761     1033.495      456.816        0.405        0.143       72.381       11.207        0.024      340.014       13.743      861.620
09/07/2014  07:14:00     -101.639      -85.596       -5.457       36.034       25.873       22.403     1298.463      669.409      501.911        1.008        0.123      132.880       19.247        0.021      339.923       13.589      861.624
09/07/2014  07:15:00      -99.382      -50.820        3.614       51.083       40.915       30.316     2609.471     1674.054      919.073        0.884        0.260      111.622       32.245        0.083      339.972       13.671      861.636
09/07/2014  07:16:00     -130.408      -34.237       -6.475       23.944       25.948       17.560      573.328      673.297      308.349        0.989        0.078      134.828       17.252        0.016      339.939       13.619      861.612
09/07/2014  07:17:00      -73.519      -35.543       -3.005       28.382       24.908       17.697      805.533      620.425      313.184        0.421        0.087       81.660       14.614        0.032      339.994       13.710      861.604
09/07/2014  07:18:00      -44.385      -54.616       -7.851       31.434       27.497       21.133      988.086      756.074      446.590        0.360        0.110       70.377       20.913        0.088      340.102       13.890      861.593
09/07/2014  07:19:00       -3.184      -27.582       18.768       30.868       24.246       21.011      952.842      587.890      441.462        0.155        0.099       27.765       17.954        0.418      340.245       14.132      861.601
09/07/2014  07:20:00      -36.677      -31.224       10.216       57.168       31.956       24.581     3268.134     1021.163      604.242        0.366        0.245       48.168       33.815        0.493      340.226       14.100      861.599
09/07/2014  07:21:00      -79.088      -78.051        3.989       55.588       55.338       25.212     3090.041     3062.283      635.627        0.957        0.339      111.116       30.546        0.076      340.097       13.883      861.614
09/07/2014  07:22:00     -115.872      -93.427       -8.645       41.220       36.074       26.251     1699.055     1301.368      689.114        1.296        0.184      148.845       19.997        0.018      340.058       13.816      861.602
09/07/2014  07:23:00     -136.804      -97.599      -13.571       40.222       28.653       23.366     1617.838      820.972      545.959        1.570        0.149      168.050       19.709        0.014      340.062       13.822      861.595
09/07/2014  07:24:00      -92.365      -33.893       -1.581       27.849       27.307       19.732      775.593      745.697      389.369        0.580        0.096       98.387       15.823        0.026      340.122       13.924      861.575
09/07/2014  07:25:00      -79.477      -27.609       -0.524       52.425       30.431       20.555     2748.342      926.070      422.509        0.559        0.205       84.136       27.029        0.103      340.187       14.035      861.571
09/07/2014  07:26:00     -137.744      -33.017       -0.829       27.666       25.097       20.475      765.385      629.837      419.217        1.094        0.091      141.645       16.188        0.013      340.213       14.079      861.574
09/07/2014  07:27:00      -56.995      -31.073        6.852       35.505       35.482       20.194     1260.620     1258.988      407.813        0.359        0.146       64.915       19.319        0.089      340.276       14.185      861.592
09/07/2014  07:28:00      -56.066     -102.479       -2.550       25.942       32.715       15.937      672.994     1070.263      253.983        0.782        0.100      116.813       13.283        0.013      340.252       14.144      861.614
09/07/2014  07:29:00      -61.562      -80.749        1.468       36.473       41.756       27.370     1330.283     1743.600      749.116        0.707        0.191      101.539       21.251        0.044      340.160       13.988      861.616
09/07/2014  07:30:00     -107.648      -61.826        3.323       40.718       52.995       26.057     1657.966     2808.493      678.982        1.028        0.257      124.139       29.443        0.056      340.125       13.930      861.616
09/07/2014  07:31:00      -91.274      -57.782        3.587       78.153       39.200       29.453     6107.910     1536.601      867.484        1.010        0.426      108.026       39.210        0.132      340.174       14.012      861.609
09/07/2014  07:32:00      -58.958      -65.058       14.964       65.186       49.456       32.729     4249.165     2445.890     1071.213        0.785        0.388       87.799       37.979        0.187      340.195       14.046      861.614
09/07/2014  07:33:00      -79.300      -63.392       -1.797       45.659       38.080       26.598     2084.767     1450.111      707.477        0.728        0.212      101.523       27.749        0.075      340.286       14.201      861.611
09/07/2014  07:34:00      -36.884      -24.621        0.443       32.510       22.805       18.421     1056.877      520.076      339.321        0.194        0.096       44.347       17.975        0.164      340.417       14.423      861.623
09/07/2014  07:35:00      -34.735      -37.690        4.221       29.127       26.082       20.747      848.379      680.257      430.422        0.230        0.098       51.255       17.296        0.114      340.501       14.565      861.627
09/07/2014  07:36:00     -105.176      -34.046       -8.826       40.225       18.611       16.093     1618.039      346.362      258.996        0.726        0.111      110.549       19.183        0.030      340.368       14.341      861.628
09/07/2014  07:37:00     -112.583      -35.471      -13.241       21.852       25.104       16.209      477.531      630.198      262.718        0.774        0.069      118.039       13.128        0.012      340.425       14.438      861.639
09/07/2014  07:38:00      -61.084       -7.580       -3.456       37.872       44.298       20.181     1434.301     1962.301      407.259        0.380        0.190       61.552       17.333        0.079      340.738       14.965      861.644
09/07/2014  07:39:00      -34.120       28.485       -5.013       25.710       22.857       19.436      660.992      522.435      377.746        0.178        0.078       44.447       14.738        0.110      341.062       15.515      861.643
09/07/2014  07:40:00      -30.263      -14.949        3.332       26.873       21.133       19.225      722.150      446.587      369.595        0.134        0.077       33.754       18.347        0.295      340.972       15.362      861.647
09/07/2014  07:41:00       -5.184      -63.032       -2.293       24.112       24.399       16.291      581.377      595.306      265.410        0.272        0.072       63.245       13.154        0.043      340.755       14.995      861.650
09/07/2014  07:42:00       -6.765      -36.237       14.408       25.919       24.944       20.542      671.785      622.225      421.988        0.164        0.086       36.863       16.564        0.202      340.883       15.212      861.670
09/07/2014  07:43:00      -37.558      -31.612        2.172       38.163       37.769       19.092     1456.390     1426.522      364.486        0.283        0.162       49.091       24.900        0.257      340.832       15.125      861.669
09/07/2014  07:44:00      -65.865      -43.475       -4.824       28.320       22.067       13.900      802.022      486.948      193.220        0.387        0.074       78.920       14.126        0.032      340.783       15.042      861.685
09/07/2014  07:45:00      -46.947      -26.975       -0.923       12.853       12.758        9.921      165.209      162.762       98.434        0.168        0.021       54.145        6.809        0.016      340.866       15.183      861.669
09/07/2014  07:46:00      -42.383      -38.768       -5.276       10.610       12.305        8.470      112.565      151.414       71.736        0.183        0.017       57.440        3.381        0.003      340.964       15.347      861.677
09/07/2014  07:47:00      -17.838      -43.814        4.040       19.705       28.732       18.098      388.269      825.532      327.540        0.190        0.077       47.306       10.046        0.045      341.031       15.462      861.688
09/07/2014  07:48:00      -60.276      -75.504       -5.479       29.773       27.667       12.156      886.414      765.445      147.763        0.558        0.090       96.613       15.182        0.025      340.950       15.324      861.693
09/07/2014  07:49:00      -59.152      -64.835       -5.796       23.478       20.312       10.856      551.213      412.585      117.856        0.441        0.054       87.764        7.387        0.007      340.910       15.256      861.704
09/07/2014  07:50:00      -36.944      -18.026       -0.355       14.011       28.655       10.633      196.306      821.110      113.060        0.141        0.057       41.107       11.476        0.078      341.114       15.601      861.699
09/07/2014  07:51:00      -23.113      -31.784       -3.526        9.385       15.929        8.650       88.086      253.722       74.820        0.099        0.021       39.299        4.113        0.011      341.028       15.457      861.700
09/07/2014  07:52:00      -47.331      -38.261      -15.978       11.173       11.910        6.147      124.840      141.839       37.788        0.213        0.015       60.862        4.694        0.006      341.116       15.606      861.710
09/07/2014  07:53:00      -22.010      -11.798        1.370       16.751       20.976       14.903      280.582      439.983      222.114        0.078        0.047       24.973       11.951        0.229      341.360       16.019      861.715
09/07/2014  07:54:00      -17.087      -10.849       -0.914       14.236       16.405        8.835      202.651      269.138       78.049        0.048        0.027       20.240        9.707        0.230      341.358       16.015      861.719
09/07/2014  07:55:00      -20.592       -0.011        9.155       16.585        8.114       13.456      275.063       65.842      181.057        0.051        0.026       20.592        8.014        0.151      341.492       16.242      861.718
09/07/2014  07:56:00      -27.159      -19.782       -2.399       13.333       16.683       10.114      177.761      278.321      102.296        0.085        0.028       33.600        6.528        0.038      341.266       15.859      861.724
09/07/2014  07:57:00      -32.374      -29.590        7.569       11.275       11.650       12.748      127.118      135.724      162.508        0.120        0.021       43.860        8.221        0.035      341.273       15.871      861.723
09/07/2014  07:58:00      -25.104       -8.547       10.309       16.114       13.882       10.028      259.653      192.710      100.555        0.068        0.028       26.519        6.646        0.063      341.450       16.170      861.711
09/07/2014  07:59:00      -39.075      -12.770        1.949       10.026       11.132       10.818      100.523      123.924      117.032        0.102        0.017       41.108        8.316        0.041      341.257       15.845      861.700
09/07/2014  08:00:00      -53.844      -27.979       -3.009       15.433        9.751        9.979      238.188       95.076       99.587        0.206        0.022       60.680        7.272        0.014      341.296       15.911      861.689
09/07/2014  08:01:00      -36.406      -29.460       -4.115       26.866       18.796       11.619      721.778      353.297      135.010        0.171        0.061       46.832        7.488        0.026      341.382       16.056      861.688
09/07/2014  08:02:00      -16.768      -21.277        4.279       23.665       20.036       15.569      560.009      401.449      242.378        0.098        0.060       27.090       12.554        0.215      341.555       16.347      861.700
09/07/2014  08:03:00        2.782      -29.170       11.154       17.727       27.704       18.743      314.264      767.488      351.307        0.121        0.072       29.302       14.467        0.244      341.682       16.565      861.710
09/07/2014  08:04:00      -17.098       -9.232       14.133       13.562       13.722       11.398      183.929      188.297      129.908        0.054        0.025       19.431       10.768        0.307      341.867       16.879      861.725
09/07/2014  08:05:00       10.310      -76.319        1.988       39.030       36.579       19.935     1523.335     1338.042      397.397        0.460        0.163       77.012       20.838        0.073      341.581       16.394      861.738
09/07/2014  08:06:00       49.361      -85.267      -18.934       27.515       34.727       17.113      757.102     1205.998      292.867        0.616        0.113       98.524       11.212        0.013      341.785       16.738      861.757
09/07/2014  08:07:00       20.503       22.512       57.903       23.586       33.731       25.628      556.299     1137.771      656.786        0.332        0.118       30.450       21.472        0.497      342.179       17.409      861.752
09/07/2014  08:08:00        9.595       47.949       61.616       26.272       37.585       28.835      690.226     1412.632      831.429        0.456        0.147       48.900       30.297        0.384      341.967       17.049      861.749
09/07/2014  08:09:00       19.570      -41.181       25.856       26.160       38.550       27.975      684.367     1486.111      782.573        0.285        0.148       45.595       27.746        0.370      341.928       16.981      861.736
09/07/2014  08:10:00       20.913      -57.254       33.785       25.618       42.154       28.795      656.275     1776.973      829.127        0.406        0.163       60.954       19.440        0.102      342.067       17.217      861.731
09/07/2014  08:11:00       30.182       -7.454       44.382       35.731       51.793       39.758     1276.670     2682.538     1580.734        0.424        0.277       31.089       37.775        1.476      342.285       17.588      861.737
09/07/2014  08:12:00       19.333       46.658       78.999       32.781       40.245       20.487     1074.566     1619.682      419.703        0.595        0.156       50.505       21.998        0.190      342.065       17.215      861.752
09/07/2014  08:13:00       28.947       16.857       46.701       40.327       52.492       37.576     1626.241     2755.441     1411.962        0.455        0.290       33.498       36.141        1.164      342.151       17.360      861.755
09/07/2014  08:14:00       24.923      -28.161       16.816       31.364       71.045       40.326      983.702     5047.415     1626.205        0.468        0.383       37.606       43.621        1.345      341.873       16.889      861.752
09/07/2014  08:15:00       24.550      -92.969       -1.632       20.341       22.677       21.112      413.763      514.266      445.709        0.531        0.069       96.156       11.344        0.014      341.860       16.867      861.736
09/07/2014  08:16:00       20.946       15.223       40.996       30.148       50.801       27.439      908.900     2580.707      752.885        0.330        0.212       25.894       26.300        1.032      342.236       17.503      861.725
09/07/2014  08:17:00       61.638       72.626       36.123       36.539       31.297       29.683     1335.109      979.498      881.066        0.679        0.160       95.256       16.925        0.032      341.853       16.855      861.709
09/07/2014  08:18:00       98.652       78.428       48.610       24.422       24.028       27.612      596.451      577.326      762.411        1.009        0.097      126.028       19.369        0.024      341.717       16.624      861.696
09/07/2014  08:19:00       89.749       62.622       34.426       31.829       18.609       23.416     1013.111      346.297      548.288        0.753        0.095      109.437       13.422        0.015      341.760       16.696      861.690
09/07/2014  08:20:00       71.971       47.628       29.128       39.853       32.508       39.946     1588.227     1056.780     1595.702        0.627        0.212       86.303       29.960        0.121      341.959       17.036      861.694
09/07/2014  08:21:00       82.959       60.805        0.586       35.837       33.579       24.978     1284.272     1127.563      623.924        0.681        0.152      102.856       18.736        0.033      341.861       16.870      861.699
09/07/2014  08:22:00       33.452       27.428        1.174       30.550       24.256       17.242      933.282      588.376      297.299        0.185        0.091       43.259       15.402        0.127      342.027       17.149      861.700
09/07/2014  08:23:00       10.621       24.835        2.697       18.648       20.079       20.425      347.739      403.176      417.198        0.095        0.058       27.011       15.330        0.322      342.379       17.748      861.699
09/07/2014  08:24:00        4.791       18.807       17.590       29.757       24.621       28.293      885.483      606.173      800.499        0.149        0.115       19.408       12.617        0.423      342.600       18.123      861.687
09/07/2014  08:25:00       22.204       18.296       30.010       25.913       39.634       23.456      671.482     1570.859      550.163        0.226        0.140       28.771       14.865        0.267      342.491       17.938      861.681
09/07/2014  08:26:00       56.767       42.939        4.859       40.754       21.728       21.541     1660.903      472.089      464.003        0.384        0.130       71.177       10.875        0.023      342.348       17.696      861.667
09/07/2014  08:27:00       77.644       64.422       13.306       38.784       31.117       31.178     1504.205      968.268      972.079        0.690        0.172      100.890       18.884        0.035      342.049       17.189      861.657
09/07/2014  08:28:00       73.694       57.477       10.626       23.997       34.566       23.175      575.836     1194.790      537.067        0.558        0.115       93.458        7.355        0.006      342.055       17.196      861.648
09/07/2014  08:29:00        8.274       25.773       27.613       20.865       25.550       18.091      435.361      652.782      327.277        0.146        0.071       27.068       12.138        0.201      342.659       18.225      861.643
09/07/2014  08:30:00       60.826       46.210       10.515       25.714       32.783       25.876      661.213     1074.726      669.547        0.418        0.120       76.388        8.971        0.014      342.141       17.343      861.637
09/07/2014  08:31:00       38.181       64.097       45.170       46.239       23.662       31.915     2138.048      559.899     1018.538        0.566        0.186       74.607       30.220        0.164      342.315       17.638      861.634
09/07/2014  08:32:00       76.260       43.038        2.522       39.500       28.919       27.398     1560.278      836.333      750.666        0.541        0.157       87.567       20.482        0.055      342.224       17.485      861.619
09/07/2014  08:33:00       94.231       42.311       -4.385       32.617       27.247       24.332     1063.859      742.414      592.048        0.654        0.120      103.294       20.863        0.041      342.128       17.322      861.626
09/07/2014  08:34:00       40.327       45.647       -1.670       44.550       19.179       30.441     1984.746      367.820      926.652        0.350        0.164       60.909       17.562        0.083      341.964       17.044      861.635
09/07/2014  08:35:00        5.490       53.179       77.840       31.091       34.683       19.733      966.674     1202.892      389.378        0.574        0.128       53.461       19.029        0.127      342.529       18.002      861.635
09/07/2014  08:36:00       35.314       60.384       54.523       46.643       30.907       35.051     2175.566      955.262     1228.544        0.611        0.218       69.952       33.305        0.227      342.282       17.582      861.646
09/07/2014  08:37:00       24.483       39.249       49.088       28.317       28.050       17.537      801.832      786.796      307.562        0.322        0.095       46.259       10.256        0.049      342.297       17.608      861.660
09/07/2014  08:38:00       29.190       14.053       56.104       49.925       37.230       30.446     2492.474     1386.087      926.952        0.450        0.240       32.396       18.956        0.342      342.455       17.876      861.675
09/07/2014  08:39:00       40.986       33.094       33.226       24.062       31.157       25.269      579.001      970.746      638.498        0.303        0.109       52.679       10.626        0.041      342.354       17.705      861.678
09/07/2014  08:40:00       38.816       21.432       49.334       32.241       60.440       47.681     1039.510     3652.944     2273.461        0.568        0.348       44.339       50.390        1.292      342.547       18.034      861.678
09/07/2014  08:41:00       47.738       26.523       44.131       27.019       35.479       26.353      730.013     1258.744      694.504        0.381        0.134       54.611       22.324        0.167      342.641       18.193      861.677
09/07/2014  08:42:00       10.397       45.091       71.383       26.561       47.868       28.633      705.506     2291.317      819.831        0.553        0.191       46.275       28.537        0.380      342.856       18.559      861.677
09/07/2014  08:43:00       40.762       81.771       83.412       28.774       39.735       21.377      827.970     1578.897      456.975        0.908        0.143       91.368       13.695        0.022      342.408       17.797      861.684
09/07/2014  08:44:00       26.623       73.771       74.295       39.027       39.596       35.833     1523.138     1567.851     1283.999        0.802        0.219       78.428       29.616        0.143      342.522       17.990      861.703
09/07/2014  08:45:00       21.738       58.702       71.929       30.915       34.273       19.716      955.720     1174.606      388.711        0.581        0.126       62.598       17.051        0.074      342.500       17.951      861.708
09/07/2014  08:46:00       34.962       50.764       61.748       33.663       28.845       26.289     1133.229      832.011      691.131        0.513        0.133       61.639       18.459        0.090      342.345       17.689      861.707
09/07/2014  08:47:00       30.315       -9.380       43.778       29.277       58.993       35.789      857.145     3480.137     1280.840        0.427        0.281       31.733       42.541        1.797      342.607       18.137      861.710
09/07/2014  08:48:00        5.838       13.621       30.510       19.997       31.523       23.623      399.860      993.687      558.025        0.155        0.098       14.820       15.618        1.111      342.840       18.532      861.708
09/07/2014  08:49:00       49.935       56.594       21.144       31.442       27.107       21.415      988.615      734.789      458.614        0.416        0.109       75.475       13.722        0.033      342.584       18.097      861.709
09/07/2014  08:50:00       64.965       70.655       57.495       55.266       44.108       33.398     3054.297     1945.498     1115.403        0.932        0.306       95.982       27.636        0.083      342.598       18.120      861.712
09/07/2014  08:51:00       86.078       44.278       20.541       58.572       43.486       31.407     3430.653     1891.052      986.420        0.805        0.315       96.799       32.234        0.111      342.542       18.025      861.715
09/07/2014  08:52:00       89.449       43.004       28.031       42.667       32.251       29.574     1820.467     1040.145      874.648        0.719        0.187       99.249       20.342        0.042      342.637       18.186      861.718
09/07/2014  08:53:00       30.969       16.731       13.900       26.273       27.934       22.786      690.251      780.310      519.210        0.171        0.099       35.200       16.712        0.225      343.000       18.804      861.713
09/07/2014  08:54:00       35.961       28.934       14.627       30.051       22.358       28.674      903.051      499.883      822.188        0.228        0.111       46.156       20.754        0.202      342.796       18.456      861.708
09/07/2014  08:55:00       39.724       62.538       68.277       57.125       49.571       39.045     3263.291     2457.261     1524.541        0.870        0.362       74.088       38.895        0.276      342.785       18.437      861.687
09/07/2014  08:56:00       39.698       61.735       52.501       41.690       48.353       52.024     1738.019     2338.022     2706.504        0.746        0.339       73.398       48.247        0.432      342.783       18.436      861.665
09/07/2014  08:57:00       27.856       51.664       38.087       31.538       18.985       22.513      994.675      360.444      506.821        0.338        0.093       58.695       18.038        0.094      342.695       18.284      861.656
09/07/2014  08:58:00      102.496       88.836        6.878       37.812       32.093       33.467     1429.754     1029.944     1120.033        1.101        0.179      135.637       21.058        0.024      342.622       18.160      861.640
09/07/2014  08:59:00      109.070       55.489        2.279       44.987       30.741       36.543     2023.863      945.032     1335.414        0.964        0.215      122.373       24.974        0.042      342.570       18.072      861.640
09/07/2014  09:00:00       45.819       41.060       14.215       40.434       30.244       28.661     1634.939      914.707      821.466        0.368        0.169       61.525       24.437        0.158      342.851       18.551      861.658
09/07/2014  09:01:00       40.487       42.795       44.513       34.162       17.048       19.031     1167.048      290.632      362.169        0.364        0.091       58.912       11.066        0.035      342.796       18.457      861.670
09/07/2014  09:02:00       -2.521       12.149       33.064       13.401       24.558       19.244      179.577      603.112      370.320        0.120        0.058       12.407       11.225        0.818      343.490       19.639      861.680
09/07/2014  09:03:00       21.885       37.935       42.912       34.684       26.413       29.181     1202.959      697.667      851.522        0.326        0.138       43.795       14.710        0.113      343.290       19.298      861.687
09/07/2014  09:04:00       61.256       51.531        9.513       25.859       20.009       23.712      668.690      400.368      562.259        0.406        0.082       80.048        6.633        0.007      342.677       18.255      861.678
09/07/2014  09:05:00       42.609       48.451       18.760       28.430       24.142       25.945      808.284      582.826      673.155        0.329        0.103       64.522       17.896        0.077      342.956       18.730      861.668
09/07/2014  09:06:00       61.599       42.160       13.893       37.152       28.300       29.445     1380.266      800.912      867.012        0.441        0.152       74.645       20.974        0.079      343.054       18.895      861.664
09/07/2014  09:07:00       80.164       52.680        4.940       38.769       33.806       26.914     1503.003     1142.842      724.368        0.630        0.169       95.924       19.767        0.042      342.945       18.711      861.665
09/07/2014  09:08:00       56.361       47.243        7.422       32.862       26.956       25.795     1079.921      726.608      665.388        0.397        0.124       73.542       16.905        0.053      343.071       18.925      861.654
09/07/2014  09:09:00       74.305       37.221        4.612       19.693       18.521       22.715      387.807      343.028      515.991        0.409        0.062       83.106        5.485        0.004      343.020       18.837      861.649
09/07/2014  09:10:00       33.048       53.528       18.625       32.209       31.146       28.926     1037.411      970.047      836.705        0.357        0.142       62.908       22.201        0.125      343.558       19.753      861.641
09/07/2014  09:11:00       17.250       15.910       27.715       34.056       33.075       26.657     1159.796     1093.939      710.617        0.214        0.148       23.467       16.333        0.484      343.702       19.999      861.639
09/07/2014  09:12:00       16.539       29.334       24.599       38.644       31.894       18.330     1493.364     1017.223      335.972        0.229        0.142       33.675       14.288        0.180      343.636       19.888      861.635
09/07/2014  09:13:00       10.367       18.350       64.638       31.196       37.641       23.287      973.194     1416.829      542.275        0.378        0.147       21.076       20.868        0.980      344.069       20.626      861.645
09/07/2014  09:14:00        8.032        4.683       54.030       23.467       61.205       19.445      550.693     3746.005      378.091        0.384        0.234        9.297       18.595        4.000      343.678       19.959      861.651
09/07/2014  09:15:00       24.792       36.762       35.154       28.757       23.351       23.170      826.962      545.278      536.857        0.256        0.095       44.341       12.791        0.083      343.767       20.112      861.651
09/07/2014  09:16:00       11.695        7.998       31.097       27.562       27.246       28.896      759.650      742.328      834.997        0.175        0.117       14.169       23.896        2.844      343.925       20.381      861.660
09/07/2014  09:17:00       21.103       43.862       54.143       36.337       33.613       18.560     1320.396     1129.805      344.461        0.405        0.140       48.675       16.970        0.122      343.790       20.150      861.647
09/07/2014  09:18:00       -5.727       16.096       44.367       18.650       22.336       20.546      347.823      498.902      422.125        0.176        0.063       17.085       11.191        0.429      344.349       21.106      861.647
09/07/2014  09:19:00       20.829       37.371       57.156       26.231       33.166       16.727      688.086     1099.985      279.777        0.358        0.103       42.784        8.110        0.036      344.097       20.674      861.643
09/07/2014  09:20:00        7.195       -0.956       39.716       31.476       58.524       32.287      990.752     3425.085     1042.454        0.354        0.273        7.258       31.555       18.900      343.840       20.236      861.630
09/07/2014  09:21:00       40.058      -80.546        4.227       32.667       58.774       33.890     1067.140     3454.376     1148.505        0.689        0.284       89.957       32.418        0.130      343.366       19.427      861.622
09/07/2014  09:22:00       74.058       81.741       17.139       32.839       30.524       38.899     1078.408      931.741     1513.142        0.799        0.176      110.300       12.253        0.012      343.376       19.443      861.630
09/07/2014  09:23:00       67.529       64.096       32.982       32.216       34.522       28.820     1037.881     1191.751      830.567        0.641        0.153       93.105       14.523        0.024      343.758       20.096      861.632
09/07/2014  09:24:00       34.287       21.953       11.699       44.922       60.747       32.787     2017.995     3690.237     1074.980        0.429        0.339       40.713       23.176        0.324      343.760       20.099      861.632
09/07/2014  09:25:00       70.974       44.074       14.731       39.385       35.558       34.268     1551.169     1264.337     1174.262        0.559        0.199       83.545       17.595        0.044      343.671       19.947      861.626
09/07/2014  09:26:00       36.089       40.564        2.639       53.829       46.715       26.764     2897.513     2182.320      716.316        0.437        0.290       54.294       24.795        0.209      343.855       20.262      861.617
09/07/2014  09:27:00       22.910       58.020       -5.511       20.031       42.930       21.147      401.232     1842.949      447.192        0.331        0.135       62.380       20.295        0.106      343.576       19.786      861.607
09/07/2014  09:28:00       33.832       48.740        4.726       31.575       28.786       27.962      996.988      828.618      781.880        0.307        0.130       59.331       24.425        0.169      343.713       20.018      861.610
09/07/2014  09:29:00       -2.710       36.789       14.315       25.600       32.098       23.279      655.357     1030.284      541.919        0.190        0.111       36.889       13.200        0.128      344.079       20.645      861.604
09/07/2014  09:30:00       -2.862      -35.521        7.673       26.122       46.297       22.321      682.376     2143.429      498.224        0.233        0.166       35.637       18.297        0.264      344.094       20.670      861.602
09/07/2014  09:31:00       58.876      -48.418        8.961       40.038       40.619       38.066     1603.069     1649.909     1449.022        0.530        0.235       76.228       33.369        0.192      343.920       20.372      861.606
09/07/2014  09:32:00       47.086       40.602       41.188       30.917       52.434       24.636      955.862     2749.332      606.927        0.494        0.216       62.173       19.456        0.098      343.836       20.228      861.603
09/07/2014  09:33:00       54.708       57.162       45.705       28.853       18.404       27.244      832.482      338.716      742.230        0.513        0.096       79.123       10.152        0.016      343.740       20.065      861.598
09/07/2014  09:34:00       27.047       27.533       39.558       21.228       17.820       17.600      450.609      317.546      309.754        0.207        0.054       38.595        4.879        0.016      344.186       20.827      861.609
09/07/2014  09:35:00        1.874       20.767       21.473       26.971       29.494       22.235      727.446      869.904      494.377        0.149        0.105       20.851       16.343        0.614      344.371       21.144      861.613
09/07/2014  09:36:00      -15.559      -51.635        7.737       26.686       28.440       21.717      712.160      808.811      471.617        0.248        0.100       53.928        9.867        0.033      344.125       20.723      861.619
09/07/2014  09:37:00       -6.490      -27.620       16.971       13.567       25.849       18.149      184.064      668.174      329.388        0.114        0.059       28.372       15.790        0.310      344.434       21.252      861.623
09/07/2014  09:38:00        0.046      -53.140        3.598       36.212       34.839       18.785     1311.333     1213.763      352.876        0.286        0.144       53.140        4.608        0.008      344.175       20.806      861.614
09/07/2014  09:39:00       -5.491       -3.668       37.145       21.371       29.317       24.090      456.704      859.484      580.323        0.166        0.095        6.604       22.762       11.880      344.883       22.019      861.613
09/07/2014  09:40:00        0.937       19.467       32.853       25.394       25.953       27.200      644.845      673.584      739.828        0.176        0.103       19.490       19.297        0.980      344.367       21.136      861.611
09/07/2014  09:41:00      -23.175      -27.570        5.756       27.248       45.301       22.570      742.477     2052.193      509.412        0.232        0.165       36.017       23.661        0.432      344.288       21.001      861.620
09/07/2014  09:42:00      -31.854      -25.848        9.879       35.723       23.415       19.420     1276.134      548.248      377.148        0.199        0.110       41.022       20.349        0.246      344.246       20.929      861.631
09/07/2014  09:43:00      -30.279      -27.055       -0.832       14.471       24.789       12.747      209.403      614.518      162.478        0.132        0.049       40.606       14.008        0.119      344.049       20.592      861.639
09/07/2014  09:44:00      -22.954      -30.202       -4.702       15.845       28.601       17.330      251.062      818.006      300.320        0.142        0.068       37.935       14.738        0.151      344.242       20.921      861.638
09/07/2014  09:45:00      -26.877      -44.440       -1.402       40.434       35.081       28.777     1634.875     1230.661      828.125        0.320        0.185       51.936       24.316        0.219      344.315       21.046      861.648
09/07/2014  09:46:00      -45.834      -43.565       12.996       21.292       32.054       22.064      453.370     1027.477      486.825        0.307        0.098       63.235       14.645        0.054      344.197       20.846      861.653
09/07/2014  09:47:00      -22.017      -16.714       32.873       22.217       32.412       23.113      493.577     1050.559      534.217        0.196        0.104       27.642       20.602        0.556      344.795       21.868      861.646
09/07/2014  09:48:00       18.152       18.594       49.112       37.192       30.085       22.679     1383.264      905.094      514.345        0.294        0.140       25.985       12.658        0.237      345.268       22.677      861.635
09/07/2014  09:49:00        4.761       17.139       35.478       28.580       26.280       20.489      816.838      690.637      419.787        0.175        0.096       17.788       12.321        0.480      345.017       22.248      861.625
09/07/2014  09:50:00        5.901      -72.632       -9.311       33.394       25.063       32.411     1115.140      628.156     1050.477        0.409        0.140       72.872       23.975        0.108      344.507       21.375      861.617
09/07/2014  09:51:00        9.286      -25.308       17.872       36.134       24.201       23.462     1305.660      585.692      550.449        0.174        0.122       26.957       20.073        0.554      344.774       21.830      861.610
09/07/2014  09:52:00       -9.463       10.284       23.594       23.288       22.743       15.529      542.342      517.235      241.140        0.103        0.065       13.975        8.681        0.386      344.982       22.188      861.606
09/07/2014  09:53:00       -7.702       17.612       40.745       24.728       22.936       23.768      611.468      526.062      564.925        0.187        0.085       19.222       14.709        0.586      345.187       22.539      861.607
09/07/2014  09:54:00       35.164       37.054       25.411       15.768       15.063       22.869      248.619      226.888      523.006        0.213        0.050       51.083       12.115        0.056      344.387       21.170      861.603
09/07/2014  09:55:00       18.940       16.057       21.993       22.091       19.757       25.727      488.032      390.320      661.890        0.132        0.077       24.830       11.586        0.218      344.918       22.078      861.606
09/07/2014  09:56:00       -4.472       42.163       22.011       34.430       16.795       21.499     1185.409      282.057      462.208        0.211        0.096       42.399       11.681        0.076      344.601       21.535      861.605
09/07/2014  09:57:00      -30.251       22.795       18.265       33.626       24.413       27.252     1130.738      596.004      742.647        0.212        0.123       37.878       21.159        0.312      344.718       21.735      861.611
09/07/2014  09:58:00      -65.993        0.448       -4.768       32.138       24.191       17.966     1032.843      585.207      322.782        0.316        0.097       65.994       18.178        0.076      344.502       21.368      861.604
09/07/2014  09:59:00      -64.800       -2.456      -12.269       16.524       11.386       11.816      273.034      129.647      139.620        0.245        0.027       64.847        4.699        0.005      344.326       21.065      861.604
09/07/2014  10:00:00      -63.959        0.493      -11.773       11.533        5.677        8.385      133.003       32.231       70.305        0.223        0.012       63.961        3.223        0.003      344.332       21.077      861.592
09/07/2014  10:01:00      -73.240      -17.369       -6.085       19.849       17.603       12.796      393.966      309.869      163.731        0.329        0.043       75.272        7.928        0.011      344.456       21.287      861.589
09/07/2014  10:02:00      -49.113      -10.857        3.394       18.643       16.588       11.236      347.563      275.166      126.254        0.165        0.037       50.299        6.277        0.016      344.577       21.495      861.581
09/07/2014  10:03:00      -39.099        3.025       -4.205       10.952        8.904       10.314      119.947       79.277      106.372        0.093        0.015       39.216        6.603        0.028      344.619       21.566      861.560
09/07/2014  10:04:00      -30.901        3.615        5.207        9.136        9.733        9.903       83.460       94.728       98.079        0.064        0.014       31.112        6.043        0.038      344.758       21.803      861.546
09/07/2014  10:05:00      -10.703      -15.731        1.936        9.567       15.536       12.859       91.522      241.383      165.348        0.043        0.025       19.026        5.646        0.088      344.851       21.965      861.534
09/07/2014  10:06:00       35.474       15.530       22.709       62.181       32.142       30.698     3866.467     1033.097      942.378        0.393        0.292       38.724       13.250        0.117      345.536       23.138      861.515
09/07/2014  10:07:00      111.363       87.703        4.864       33.154       32.602       37.508     1099.174     1062.876     1406.818        1.184        0.178      141.752       16.816        0.014      344.951       22.134      861.510
09/07/2014  10:08:00       35.421       50.116       37.499       56.751       64.724       54.426     3220.723     4189.153     2962.203        0.777        0.519       61.370       33.741        0.302      345.197       22.554      861.507
09/07/2014  10:09:00       88.778       48.831       21.712       58.972       36.714       37.226     3477.659     1347.894     1385.786        0.847        0.311      101.321       20.298        0.040      345.004       22.225      861.505
09/07/2014  10:10:00       48.473       70.966       28.784       35.557       36.807       42.530     1264.324     1354.749     1808.825        0.632        0.221       85.941       25.360        0.087      345.098       22.386      861.500
09/07/2014  10:11:00       36.008       69.147       91.204       53.280       51.363       31.553     2838.742     2638.205      995.615        1.043        0.324       77.961       29.301        0.141      345.271       22.683      861.491
09/07/2014  10:12:00       41.919       80.872       54.018       55.936       38.672       49.698     3128.833     1495.512     2469.858        0.915        0.355       91.090       48.550        0.284      345.281       22.699      861.481
09/07/2014  10:13:00       64.397       40.936       18.164       46.998       50.252       46.443     2208.785     2525.234     2156.911        0.652        0.345       76.307       37.987        0.248      345.289       22.713      861.473
09/07/2014  10:14:00       59.115       58.532       35.988       35.244       35.823       35.240     1242.136     1283.312     1241.888        0.599        0.188       83.190       22.108        0.071      345.424       22.945      861.453
09/07/2014  10:15:00       46.364       54.130       42.302       47.826       40.855       32.230     2287.321     1669.122     1038.794        0.593        0.250       71.272       23.509        0.109      345.421       22.941      861.435
09/07/2014  10:16:00       92.855       96.982       57.075       59.002       38.740       42.954     3481.233     1500.780     1845.027        1.405        0.341      134.267       31.968        0.057      345.268       22.678      861.425
09/07/2014  10:17:00      129.466       80.505       20.684       36.684       29.311       36.446     1345.704      859.155     1328.286        1.360        0.177      152.455       16.582        0.012      344.949       22.131      861.409
09/07/2014  10:18:00       77.723       76.176       56.372       30.747       29.420       23.167      945.368      865.563      536.732        0.868        0.117      108.829       20.474        0.035      345.072       22.342      861.407
09/07/2014  10:19:00       41.264       35.189       15.606       32.171       20.842       18.566     1034.998      434.392      344.684        0.250        0.091       54.230        4.525        0.007      345.165       22.500      861.404
09/07/2014  10:20:00       16.347       27.624        8.317       15.292       19.578       22.873      233.840      383.288      523.171        0.112        0.057       32.098       14.658        0.209      345.653       23.338      861.387
09/07/2014  10:21:00       16.844       22.993       18.920       26.695       17.651       23.027      712.600      311.551      530.263        0.136        0.078       28.503        8.532        0.090      345.775       23.546      861.380
09/07/2014  10:22:00        2.826       21.223       41.086       19.656       24.169       17.013      386.374      584.143      289.450        0.170        0.063       21.410       13.708        0.410      346.674       25.091      861.370
09/07/2014  10:23:00       78.023       65.988       42.476       38.497       34.407       40.279     1482.035     1183.860     1622.438        0.827        0.214      102.186       20.331        0.040      345.403       22.910      861.361
09/07/2014  10:24:00       12.258       19.560       30.025       41.922       32.082       29.627     1757.487     1029.283      877.776        0.255        0.183       23.083       15.231        0.435      345.746       23.497      861.352
09/07/2014  10:25:00        5.285      -48.393        2.069       22.778       48.011       29.485      518.825     2305.013      869.357        0.303        0.185       48.681       34.946        0.515      345.977       23.895      861.340
09/07/2014  10:26:00      -25.605      -46.849       23.536       32.415       37.065       27.567     1050.714     1373.813      759.930        0.329        0.159       53.390       15.975        0.090      345.924       23.803      861.335
09/07/2014  10:27:00       26.779      -56.290       22.998       45.078       65.000       37.565     2032.010     4225.037     1411.097        0.604        0.383       62.335       30.778        0.244      345.827       23.636      861.327
09/07/2014  10:28:00       10.946       24.879       56.266       39.258       28.748       19.370     1541.217      826.431      375.194        0.332        0.137       27.180       17.774        0.428      346.286       24.426      861.327
09/07/2014  10:29:00       44.832       52.687        6.582       34.531       25.515       28.118     1192.361      651.016      790.620        0.373        0.132       69.180       17.296        0.063      345.722       23.457      861.327
09/07/2014  10:30:00       25.921       49.227       23.827       42.596       41.277       29.225     1814.397     1703.788      854.081        0.402        0.219       55.635       27.781        0.249      346.229       24.327      861.312
09/07/2014  10:31:00       32.994       17.775       53.766       28.760       32.278       31.486      827.136     1041.840      991.377        0.358        0.143       37.477       16.749        0.200      346.320       24.483      861.302
09/07/2014  10:32:00       37.597       20.616       35.735       34.644       65.026       35.319     1200.208     4228.345     1247.430        0.489        0.334       42.879       22.541        0.276      345.913       23.783      861.280
09/07/2014  10:33:00       40.505       -7.462       38.790       59.773       58.416       51.124     3572.761     3412.387     2613.636        0.640        0.480       41.187       47.072        1.306      346.306       24.459      861.277
09/07/2014  10:34:00       30.690       -5.266       49.553       49.605       64.235       47.471     2460.627     4126.149     2253.498        0.613        0.442       31.139       33.189        1.136      346.347       24.529      861.261
09/07/2014  10:35:00       66.397       75.881      102.411       69.692       66.428       37.425     4857.003     4412.716     1400.619        1.566        0.534      100.830       35.339        0.123      346.017       23.962      861.256
09/07/2014  10:36:00      124.051      116.694       70.994       51.888       44.818       43.443     2692.335     2008.612     1887.276        2.032        0.329      170.312       27.131        0.025      345.705       23.425      861.246
09/07/2014  10:37:00       80.496       67.069       33.166       43.305       38.820       38.953     1875.305     1507.003     1517.300        0.849        0.245      104.775        9.683        0.009      345.622       23.282      861.246
09/07/2014  10:38:00       27.505       58.132       45.250       39.087       28.245       28.486     1527.781      797.782      811.427        0.466        0.157       64.311        9.114        0.020      346.107       24.117      861.221
09/07/2014  10:39:00       35.088       27.295       33.797       37.177       23.813       27.310     1382.116      567.042      745.839        0.291        0.135       44.454       14.046        0.100      346.393       24.608      861.215
09/07/2014  10:40:00        0.930       27.834       33.445       11.588       24.077       20.459      134.289      579.688      418.557        0.151        0.057       27.850        9.916        0.127      346.324       24.492      861.205
09/07/2014  10:41:00      -54.420        5.581       29.984       22.628       14.944       14.121      512.026      223.313      199.397        0.241        0.047       54.705       10.638        0.038      346.040       24.001      861.208
09/07/2014  10:42:00      -42.783       -1.501       -0.374       19.653       12.428       14.934      386.226      154.462      223.016        0.130        0.038       42.809        3.403        0.006      345.854       23.682      861.193
09/07/2014  10:43:00        9.038       33.029       26.190       38.003       47.411       32.462     1444.231     2247.844     1053.780        0.330        0.237       34.243       15.366        0.201      346.466       24.734      861.180
09/07/2014  10:44:00       30.809      -20.178       46.134       59.797       89.905       49.876     3575.635     8082.980     2487.593        0.881        0.707       36.828       57.075        2.402      346.284       24.422      861.166
09/07/2014  10:45:00       25.448      102.588      110.691       59.377       55.237       47.929     3525.592     3051.100     2297.201        1.615        0.444      105.697       39.214        0.138      346.355       24.544      861.160
09/07/2014  10:46:00       13.688       13.514       48.468       38.511       34.517       22.401     1483.134     1191.454      501.802        0.295        0.159       19.235        9.078        0.223      346.615       24.990      861.157
09/07/2014  10:47:00       23.814       33.697       20.143       32.945       31.642       22.575     1085.396     1001.193      509.611        0.235        0.130       41.263       15.042        0.133      346.442       24.693      861.145
09/07/2014  10:48:00        8.854        2.170       14.201       41.596       35.556       18.925     1730.223     1264.215      358.149        0.182        0.168        9.116        9.344        1.051      346.697       25.131      861.122
09/07/2014  10:49:00      191.755       92.969       24.295       70.184       50.017       39.247     4925.806     2501.674     1540.292        2.748        0.448      213.104       23.229        0.012      346.165       24.214      861.104
09/07/2014  10:50:00      158.089       97.649       54.803       75.856       56.349       40.646     5754.146     3175.169     1652.122        2.405        0.529      185.816       39.098        0.044      345.963       23.867      861.100
09/07/2014  10:51:00      106.907      107.618       53.340       45.049       46.177       58.316     2029.397     2132.285     3400.812        1.671        0.378      151.693       40.205        0.070      345.985       23.907      861.094
09/07/2014  10:52:00       65.845       73.305       95.857       59.899       46.663       40.671     3587.909     2177.413     1654.130        1.316        0.371       98.535       20.436        0.043      346.178       24.238      861.094
09/07/2014  10:53:00      137.427       95.197       38.637       46.468       37.506       43.751     2159.240     1406.665     1914.109        1.746        0.274      167.178       32.401        0.038      345.711       23.436      861.090
09/07/2014  10:54:00      110.644       97.390       -1.250       44.100       36.565       36.191     1944.810     1336.967     1309.765        1.316        0.230      147.401       25.861        0.031      345.803       23.594      861.094
09/07/2014  10:55:00       78.665       61.843       22.217       38.454       37.382       43.523     1478.718     1397.386     1894.255        0.764        0.239      100.064        8.831        0.008      346.174       24.232      861.079
09/07/2014  10:56:00       21.392       39.486       26.807       40.332       38.050       32.962     1626.672     1447.807     1086.461        0.345        0.208       44.909       26.227        0.341      346.782       25.278      861.075
09/07/2014  10:57:00       98.264       59.783       -1.089       54.740       29.019       33.881     2996.493      842.091     1147.938        0.911        0.249      115.021       24.671        0.046      346.078       24.068      861.062
09/07/2014  10:58:00       33.130       63.271       37.639       30.796       32.554       25.716      948.423     1059.759      661.319        0.459        0.133       71.420       14.467        0.041      346.417       24.650      861.051
09/07/2014  10:59:00       18.934       27.322       20.401       33.994       45.011       23.445     1155.585     2025.967      549.649        0.263        0.187       33.241       16.683        0.252      346.862       25.414      861.051
09/07/2014  11:00:00      -14.095      -16.957       12.576       21.649       29.970       21.182      468.675      898.193      448.673        0.123        0.091       22.050       14.515        0.433      346.887       25.459      861.041
09/07/2014  11:01:00       -6.999       -4.210       23.626       18.353       29.526       20.821      336.843      871.769      433.513        0.113        0.082        8.168       19.045        5.437      346.912       25.502      861.041
09/07/2014  11:02:00      -10.186       -6.697       46.376       25.339       56.647       40.270      642.045     3208.830     1621.662        0.389        0.274       12.190       42.867       12.365      347.103       25.831      861.021
09/07/2014  11:03:00       33.719       85.118       74.366       50.725       54.945       48.470     2573.033     3018.987     2349.308        1.093        0.397       91.553       32.623        0.127      346.601       24.966      861.014
09/07/2014  11:04:00       49.399       34.721       12.791       52.890       41.746       25.741     2797.332     1742.693      662.590        0.451        0.260       60.381       22.751        0.142      346.610       24.982      861.010
09/07/2014  11:05:00      111.755       66.466        7.470       52.982       45.589       44.164     2807.078     2078.343     1950.458        1.190        0.342      130.026       24.221        0.035      346.504       24.799      860.997
09/07/2014  11:06:00      119.330       87.340       15.296       45.442       35.748       27.208     2064.936     1277.905      740.279        1.309        0.204      147.878       13.506        0.008      346.151       24.192      860.997
09/07/2014  11:07:00       37.403       31.198       25.109       52.225       34.929       45.624     2727.497     1220.003     2081.524        0.451        0.301       48.706       35.183        0.522      346.608       24.979      860.999
09/07/2014  11:08:00      149.590       98.887       57.176       67.905       45.834       46.475     4611.033     2100.716     2159.906        2.215        0.444      179.320       30.645        0.029      346.159       24.204      861.005
09/07/2014  11:09:00      104.732       65.745       38.320       61.283       54.016       38.885     3755.575     2917.754     1512.063        1.247        0.409      123.658       25.414        0.042      346.335       24.508      861.008
09/07/2014  11:10:00      116.290      103.360       21.453       35.613       34.122       38.735     1268.303     1164.317     1500.376        1.430        0.197      155.586       14.672        0.009      346.133       24.160      861.007
09/07/2014  11:11:00       99.448       83.515        1.124       24.582       21.432       23.997      604.296      459.333      575.872        0.925        0.082      129.864       11.790        0.008      346.137       24.167      860.998
09/07/2014  11:12:00       71.918       50.512       13.730       32.374       33.726       26.345     1048.074     1137.448      694.078        0.540        0.144       87.885        8.290        0.009      346.481       24.759      860.994
09/07/2014  11:13:00       32.421       48.515      -15.036       31.017       32.030       24.565      962.081     1025.931      603.438        0.311        0.130       58.351       20.533        0.124      346.553       24.883      860.969
09/07/2014  11:14:00      -29.834       15.292        7.589       20.034       15.444       23.800      401.380      238.524      566.444        0.119        0.060       33.524        5.291        0.025      346.726       25.182      860.946
09/07/2014  11:15:00      -18.546       35.193       12.540       17.645       30.302       26.726      311.354      918.235      714.288        0.184        0.097       39.780       18.539        0.217      347.333       26.228      860.923
09/07/2014  11:16:00      -64.167       43.130       -2.269       38.927       26.963       23.390     1515.325      727.024      547.107        0.439        0.139       77.315       20.596        0.071      346.760       25.240      860.899
09/07/2014  11:17:00      -34.594       46.555       11.978       30.215       37.391       27.667      912.925     1398.056      765.459        0.329        0.154       58.001       22.831        0.155      347.248       26.080      860.871
09/07/2014  11:18:00      -16.557       11.276       34.040       21.703       15.444       16.748      471.036      238.511      280.500        0.127        0.050       20.032       12.338        0.379      347.556       26.612      860.864
09/07/2014  11:19:00        9.214       27.302       29.935       29.882       25.312       21.051      892.936      640.678      443.158        0.185        0.099       28.815       21.271        0.545      347.641       26.758      860.841
09/07/2014  11:20:00       17.806      -65.489        3.008       78.822       50.260       34.706     6212.889     2526.029     1204.483        0.728        0.497       67.867       40.594        0.358      347.042       25.724      860.835
09/07/2014  11:21:00       19.125        8.247       57.246       33.390       49.136       29.929     1114.890     2414.305      895.754        0.407        0.221       20.828       29.907        2.062      347.541       26.586      860.816
09/07/2014  11:22:00       45.682       56.456       39.804       54.756       47.334       33.281     2998.227     2240.538     1107.637        0.660        0.317       72.623       34.547        0.226      347.346       26.251      860.813
09/07/2014  11:23:00       85.054      103.051       44.351       35.214       36.083       34.956     1239.994     1301.994     1221.935        1.179        0.188      133.618       24.628        0.034      346.864       25.419      860.798
09/07/2014  11:24:00       67.001       56.456       25.947       48.103       33.218       41.237     2313.921     1103.442     1700.480        0.673        0.256       87.615        9.043        0.011      347.108       25.838      860.791
09/07/2014  11:25:00       98.829       62.687        8.480       54.346       44.189       34.395     2953.478     1952.649     1183.002        0.993        0.304      117.033       14.377        0.015      346.845       25.385      860.778
09/07/2014  11:26:00      105.901       70.805       31.417       63.675       39.026       48.177     4054.503     1523.048     2321.013        1.256        0.395      127.390       42.032        0.109      346.989       25.633      860.775
09/07/2014  11:27:00      100.603       94.232       12.034       41.315       26.058       31.160     1706.924      679.008      970.963        1.125        0.168      137.843        9.983        0.005      346.666       25.079      860.773
09/07/2014  11:28:00      131.626       74.826       13.603       48.223       44.215       33.058     2325.482     1954.993     1092.854        1.424        0.269      151.408       20.417        0.018      346.796       25.299      860.771
09/07/2014  11:29:00      100.616       58.048       14.166       38.229       25.564       34.033     1461.474      653.543     1158.239        0.848        0.164      116.160       26.851        0.053      346.726       25.181      860.760
09/07/2014  11:30:00       99.582       55.810       17.405       30.040       26.378       27.399      902.399      695.795      750.696        0.784        0.117      114.155       13.647        0.014      346.644       25.040      860.752
09/07/2014  11:31:00       34.948       30.971       -5.583       26.652       14.772       19.410      710.339      218.213      376.760        0.176        0.065       46.696       18.596        0.159      346.843       25.382      860.733
09/07/2014  11:32:00        5.105       56.484      -21.933       23.286       17.058       21.619      542.218      290.966      467.386        0.250        0.065       56.715       14.196        0.063      346.694       25.127      860.721
09/07/2014  11:33:00      -18.713       40.571      -26.673       17.920       26.070       14.279      321.133      679.634      203.898        0.196        0.060       44.679        5.941        0.018      346.749       25.219      860.700
09/07/2014  11:34:00      -24.324       19.618        5.843       23.099       17.403       31.489      533.543      302.876      991.543        0.142        0.091       31.249       21.865        0.490      347.432       26.398      860.691
09/07/2014  11:35:00        9.977       24.979        6.734       24.874       30.828       20.289      618.730      950.379      411.641        0.137        0.099       26.898       18.272        0.461      347.910       27.222      860.673
09/07/2014  11:36:00       10.081       14.202       37.802       22.670       31.195       31.084      513.948      973.097      966.189        0.209        0.123       17.416       21.521        1.527      347.998       27.374      860.661
09/07/2014  11:37:00       56.725       46.001       21.753       43.590       22.005       47.459     1900.059      484.239     2252.360        0.522        0.232       73.033       39.762        0.296      347.067       25.766      860.645
09/07/2014  11:38:00      101.383       79.719       35.311       33.708       32.827       39.563     1136.239     1077.612     1565.212        1.083        0.189      128.971       18.284        0.020      346.861       25.413      860.631
09/07/2014  11:39:00       -8.357        5.493       12.678       40.572       22.397       25.205     1646.126      501.635      635.281        0.152        0.139       10.001       12.155        1.477      347.452       26.431      860.629
09/07/2014  11:40:00       33.552      -38.145        7.663       38.677       65.014       30.982     1495.943     4226.847      959.913        0.466        0.334       50.801       30.943        0.371      347.292       26.157      860.620
09/07/2014  11:41:00       92.063       46.301        4.531       64.485       41.285       35.600     4158.287     1704.491     1267.394        0.888        0.357      103.051       29.284        0.081      347.333       26.226      860.604
09/07/2014  11:42:00       60.702       88.280       11.286       52.737       58.559       45.176     2781.213     3429.215     2040.898        0.993        0.413      107.136       38.935        0.132      347.538       26.581      860.594
09/07/2014  11:43:00       56.542      127.165       -5.762       53.107       47.303       40.628     2820.398     2237.608     1650.640        1.305        0.335      139.168       35.584        0.065      347.421       26.378      860.597
09/07/2014  11:44:00       96.918       83.660       -8.782       29.260       34.978       37.347      856.139     1223.463     1394.779        0.997        0.174      128.032       21.726        0.029      347.065       25.764      860.595
09/07/2014  11:45:00       51.280       22.414        4.896       32.459       28.929       22.929     1053.607      836.865      525.748        0.279        0.121       55.965       21.549        0.148      347.222       26.036      860.590
09/07/2014  11:46:00       11.225       58.531       43.732       26.636       48.787       40.850      709.472     2380.192     1668.716        0.511        0.238       59.598       32.118        0.290      347.833       27.090      860.572
09/07/2014  11:47:00       40.616       64.145       47.786       52.317       36.565       32.126     2737.041     1336.975     1032.059        0.658        0.255       75.923       28.924        0.145      347.759       26.962      860.574
09/07/2014  11:48:00       20.146       32.257      -13.410       30.055       26.386       39.658      903.287      696.201     1572.780        0.240        0.159       38.032       25.215        0.440      347.391       26.328      860.561
09/07/2014  11:49:00       10.320      -27.783        6.129       23.476       25.417       30.142      551.125      646.002      908.521        0.151        0.105       29.638       20.640        0.485      347.277       26.131      860.572
09/07/2014  11:50:00        0.328       -6.852       21.017       24.451       31.031       16.345      597.875      962.907      267.148        0.116        0.091        6.860       18.670        7.408      347.667       26.804      860.542
09/07/2014  11:51:00      -22.360       30.582       19.346       36.111       22.600       25.801     1304.000      510.743      665.696        0.214        0.124       37.885       19.038        0.253      347.651       26.776      860.534
09/07/2014  11:52:00        0.400       25.520       12.093       21.235       37.636       28.006      450.915     1416.432      784.338        0.172        0.133       25.523       18.238        0.511      347.933       27.264      860.523
09/07/2014  11:53:00       41.370       58.698       66.186       49.203       47.732       36.814     2420.905     2278.372     1355.263        0.780        0.303       71.812       11.579        0.026      347.965       27.317      860.514
09/07/2014  11:54:00       40.296       -6.197       44.712       70.749       89.278       51.857     5005.481     7970.524     2689.140        0.966        0.783       40.770       54.790        1.806      347.922       27.243      860.487
09/07/2014  11:55:00       91.832      -91.279       13.609       44.458       56.280       34.966     1976.503     3167.476     1222.651        1.166        0.318      129.480       31.008        0.057      347.300       26.171      860.493
09/07/2014  11:56:00       86.386       85.208       53.369       71.461       52.100       52.991     5106.647     2714.396     2808.076        1.410        0.531      121.338       47.436        0.153      347.466       26.455      860.480
09/07/2014  11:57:00      131.480       50.297       10.647       45.479       54.239       37.797     2068.305     2941.906     1428.637        1.318        0.322      140.772       20.013        0.020      347.261       26.103      860.485
09/07/2014  11:58:00       94.193       57.804        9.351       40.565       59.239       29.187     1645.488     3509.224      851.853        0.915        0.300      110.515       22.065        0.040      347.255       26.092      860.485
09/07/2014  11:59:00       20.341       48.483        8.871       34.846       39.744       24.287     1214.264     1579.594      589.864        0.311        0.169       52.577       21.228        0.163      347.667       26.804      860.485
09/07/2014  12:00:00       -5.110       17.608       14.998       23.949       34.701       27.779      573.561     1204.141      771.672        0.155        0.127       18.334       18.587        1.028      348.106       27.559      860.462
09/07/2014  12:01:00       37.110       31.436       17.057       42.255       36.487       32.411     1785.444     1331.302     1050.455        0.341        0.208       48.635       23.871        0.241      348.018       27.407      860.456
09/07/2014  12:02:00      118.727      110.695       60.039       81.738       53.498       58.886     6681.055     2861.986     3467.604        2.148        0.651      162.325       48.958        0.091      347.970       27.324      860.438
09/07/2014  12:03:00      136.857      162.265      118.115      100.254       59.671       78.130    10050.775     3560.601     6104.327        3.936        0.986      212.273       71.421        0.113      347.425       26.379      860.419
09/07/2014  12:04:00      121.283       39.015       34.208       63.960       92.297       62.702     4090.842     8518.735     3931.603        1.697        0.827      127.404       59.490        0.218      347.343       26.243      860.428
09/07/2014  12:05:00      104.759       78.794       38.383       52.483       56.613       44.694     2754.478     3205.050     1997.587        1.331        0.398      131.083       22.025        0.028      347.603       26.691      860.402
09/07/2014  12:06:00      103.113       67.408       18.882       54.338       57.802       34.581     2952.595     3341.056     1195.825        1.151        0.374      123.191       16.866        0.019      347.243       26.071      860.400
09/07/2014  12:07:00      103.225       68.885        1.949       49.237       42.052       23.660     2424.307     1768.345      559.804        1.008        0.238      124.099        8.846        0.005      347.512       26.535      860.383
09/07/2014  12:08:00       88.591       58.304       41.133       90.639       61.842       43.688     8215.496     3824.440     1908.632        1.344        0.697      106.055       36.676        0.120      348.017       27.406      860.366
09/07/2014  12:09:00      108.310      104.585        9.872       88.511       59.051       52.335     7834.180     3487.079     2738.999        1.841        0.703      150.563       20.037        0.018      347.554       26.605      860.383
09/07/2014  12:10:00       28.870       51.272       18.814       35.655       35.944       24.498     1271.283     1292.005      600.173        0.349        0.158       58.841       19.023        0.105      347.550       26.599      860.364
09/07/2014  12:11:00      -14.203       45.861       11.710       22.175       56.642       24.960      491.731     3208.373      623.023        0.338        0.216       48.010       29.849        0.387      348.097       27.545      860.356
09/07/2014  12:12:00        0.275       96.625      -13.197       35.986       57.284       27.901     1295.001     3281.418      778.455        0.743        0.268       96.625       26.685        0.076      347.842       27.105      860.339
09/07/2014  12:13:00       22.054       46.872       11.300       41.963       47.759       30.132     1760.853     2280.944      907.930        0.388        0.247       51.802       28.352        0.300      348.188       27.703      860.328
09/07/2014  12:14:00       77.493       41.378       -4.910       30.969       34.116       27.792      959.106     1163.932      772.403        0.532        0.145       87.848       10.159        0.013      347.534       26.573      860.328
09/07/2014  12:15:00       91.266       51.696       24.839       61.569       39.173       39.842     3790.720     1534.494     1587.401        0.926        0.346      104.890       36.611        0.122      347.704       26.867      860.300
09/07/2014  12:16:00       30.686       94.694        8.978       44.982       84.959       35.101     2023.345     7217.993     1232.085        1.023        0.524       99.542       41.157        0.171      347.926       27.249      860.291
09/07/2014  12:17:00      -36.617      124.151       -9.629       39.675       45.861       29.468     1574.121     2103.273      868.391        1.070        0.227      129.438       19.047        0.022      347.650       26.774      860.294
09/07/2014  12:18:00      -18.593       37.208       11.126       24.484       36.668       29.646      599.448     1344.537      878.903        0.234        0.141       41.595       27.886        0.449      348.204       27.731      860.281
09/07/2014  12:19:00      -33.815       97.847      -13.201       22.520       39.979       25.639      507.131     1598.288      657.369        0.683        0.138      103.525       23.932        0.053      347.482       26.485      860.276
09/07/2014  12:20:00      -35.537       23.747      -17.594       22.115       21.274       15.944      489.089      452.570      254.211        0.167        0.060       42.741       11.440        0.072      347.682       26.829      860.258
09/07/2014  12:21:00        4.919      -13.548       -6.017       23.579       14.868       13.243      555.954      221.060      175.370        0.060        0.048       14.414       12.741        0.781      347.679       26.823      860.241
09/07/2014  12:22:00        7.282       11.987       -5.125       36.173       40.097       26.596     1308.509     1607.778      707.370        0.192        0.181       14.025       19.428        1.919      347.543       26.588      860.220
09/07/2014  12:23:00      -94.028      -14.851       -5.126       90.392       33.516       27.934     8170.707     1123.314      780.285        0.958        0.504       95.194       38.604        0.164      347.566       26.629      860.192
09/07/2014  12:24:00     -108.286       11.766       -5.359       66.790       62.288       42.252     4460.857     3879.750     1785.224        1.101        0.506      108.923       41.980        0.149      347.726       26.905      860.179
09/07/2014  12:25:00      -88.486       58.312      -22.325       44.236       32.690       29.052     1956.857     1068.650      844.026        0.780        0.193      105.972       27.041        0.065      347.600       26.688      860.165
09/07/2014  12:26:00      -87.744       -4.276       11.749       72.804       65.168       37.141     5300.472     4246.931     1379.487        0.939        0.546       87.848       39.060        0.198      348.194       27.711      860.140
09/07/2014  12:27:00     -140.348      -19.407       -7.924       55.477       41.771       33.452     3077.660     1744.812     1119.066        1.304        0.297      141.683       24.956        0.031      347.977       27.337      860.137
09/07/2014  12:28:00      -83.602      -26.757       -7.898       58.944       58.160       22.284     3474.416     3382.563      496.568        0.756        0.368       87.779       19.760        0.051      347.803       27.037      860.123
09/07/2014  12:29:00     -139.846      -60.792      -20.717       67.158       47.125       20.978     4510.130     2220.743      440.079        1.543        0.359      152.488       10.118        0.004      347.553       26.605      860.121
09/07/2014  12:30:00      -43.544      -29.190        4.635       44.424       44.176       25.109     1973.455     1951.534      630.445        0.366        0.228       52.422       23.497        0.201      348.302       27.899      860.100
09/07/2014  12:31:00     -108.692       65.951      -17.016       54.885       49.316       27.260     3012.377     2432.116      743.096        1.132        0.309      127.136       33.061        0.068      347.906       27.215      860.093
09/07/2014  12:32:00      -28.715       43.553       18.542       35.532       58.340       36.045     1262.533     3403.609     1299.268        0.451        0.298       52.167       27.962        0.287      348.489       28.223      860.088
09/07/2014  12:33:00       12.894       50.050       14.305       22.600       33.738       29.596      510.760     1138.256      875.937        0.270        0.126       51.685       26.190        0.257      348.135       27.612      860.056
09/07/2014  12:34:00      -10.222       28.701       30.637       20.539       21.485       22.957      421.864      461.596      527.039        0.164        0.071       30.467       14.514        0.227      348.625       28.457      860.045
09/07/2014  12:35:00       16.724       36.122      -21.029       19.328       44.093       17.741      373.572     1944.221      314.757        0.233        0.132       39.806       13.882        0.122      347.672       26.812      860.020
09/07/2014  12:36:00      -26.609      -22.836       -5.610       62.609       43.474       25.061     3919.883     1890.003      628.068        0.385        0.322       35.064       29.262        0.696      347.879       27.169      859.995
09/07/2014  12:37:00      -23.176      -45.379        4.192       37.534       42.336       37.707     1408.772     1792.318     1421.832        0.362        0.231       50.955       30.748        0.364      347.996       27.371      859.983
09/07/2014  12:38:00      -19.980       -6.353      -26.925       36.563       34.251       21.299     1336.850     1173.152      453.666        0.206        0.148       20.965       20.150        0.924      347.927       27.250      859.958
09/07/2014  12:39:00      -40.919       16.969       -2.998       31.064       20.554       21.185      964.946      422.486      448.800        0.190        0.092       44.298       17.559        0.157      348.232       27.777      859.944
09/07/2014  12:40:00      -93.193       -2.673        1.709       64.586       39.352       31.210     4171.358     1548.564      974.070        0.769        0.335       93.231       35.886        0.148      348.386       28.044      859.922
09/07/2014  12:41:00      -88.598      -32.742       -6.987       50.857       31.468       29.588     2586.398      990.240      875.459        0.671        0.223       94.455       19.447        0.042      348.092       27.536      859.902
09/07/2014  12:42:00      -86.912       38.415        2.940       59.748       30.956       31.916     3569.856      958.244     1018.613        0.729        0.277       95.024       25.221        0.070      348.163       27.657      859.887
09/07/2014  12:43:00     -142.777       42.792      -18.894       26.489       22.983       17.178      701.644      528.200      295.078        1.205        0.076      149.052       10.977        0.005      347.753       26.951      859.866
09/07/2014  12:44:00     -122.460        7.046      -18.345       35.822       35.932       17.675     1283.197     1291.100      312.420        0.913        0.144      122.663       12.251        0.010      347.913       27.227      859.835
09/07/2014  12:45:00      -93.239        9.678       -2.714       43.021       44.430       25.273     1850.794     1974.042      638.734        0.663        0.223       93.740       20.343        0.047      348.363       28.004      859.805
09/07/2014  12:46:00      -31.920       88.773        0.147       34.858       49.807       30.444     1215.081     2480.760      926.824        0.676        0.231       94.338       24.030        0.065      348.688       28.568      859.799
09/07/2014  12:47:00      -27.306      -14.133        6.919       34.586       35.862       28.962     1196.164     1286.093      838.823        0.216        0.166       30.747       25.772        0.703      348.861       28.866      859.783
09/07/2014  12:48:00      -42.706        5.030       16.082       54.405       39.468       33.149     2959.923     1557.736     1098.889        0.386        0.281       43.001       29.051        0.456      348.723       28.626      859.788
09/07/2014  12:49:00      -64.394       -6.174      -11.496       38.583       43.451       22.701     1488.646     1887.957      515.313        0.410        0.195       64.689       17.963        0.077      348.282       27.864      859.783
09/07/2014  12:50:00       -6.331      -37.907        7.979       33.692       25.953       25.065     1135.155      673.538      628.250        0.199        0.122       38.432       19.091        0.247      348.470       28.190      859.787
09/07/2014  12:51:00      -42.854       18.920       10.464       45.088       42.615       26.556     2032.971     1816.043      705.241        0.343        0.228       46.845       20.506        0.192      348.801       28.763      859.781
09/07/2014  12:52:00       64.556       41.438        1.706       76.625       53.350       35.511     5871.461     2846.274     1261.012        0.793        0.499       76.711       27.769        0.131      348.424       28.110      859.781
09/07/2014  12:53:00       54.558       73.901       13.801       46.124       88.628       47.298     2127.451     7854.961     2237.075        1.042        0.611       91.858       49.526        0.291      348.468       28.187      859.757
09/07/2014  12:54:00       22.595      162.805      -18.142       41.448       71.848       45.984     1717.908     5162.161     2114.545        1.817        0.450      164.366       50.134        0.093      348.271       27.845      859.746
09/07/2014  12:55:00       74.245      104.690       29.973       68.373       81.512       52.635     4674.887     6644.264     2770.438        1.573        0.704      128.344       44.954        0.123      348.555       28.335      859.739
09/07/2014  12:56:00      106.007       42.362       49.832       79.423       50.501       54.608     6307.956     2550.390     2981.991        1.368        0.592      114.158       47.298        0.172      348.858       28.861      859.726
09/07/2014  12:57:00      126.896       87.344       43.074       90.243       65.260       50.502     8143.741     4258.867     2550.469        2.027        0.748      154.051       31.619        0.042      348.536       28.303      859.729
09/07/2014  12:58:00      231.606      147.690       28.168      102.418       68.533       52.186    10489.430     4696.771     2723.342        4.708        0.895      274.688       50.270        0.033      348.295       27.884      859.718
09/07/2014  12:59:00      208.641      131.262       18.351       84.748       73.598       59.626     7182.203     5416.665     3555.314        3.862        0.808      246.497       46.932        0.036      348.200       27.720      859.719
09/07/2014  13:00:00      190.666      135.544       44.990       73.705       63.753       46.654     5432.432     4064.422     2176.641        3.421        0.584      233.936       32.925        0.020      348.167       27.662      859.707
09/07/2014  13:01:00      107.675       51.466       13.432       75.257       57.426       36.935     5663.563     3297.794     1364.172        1.237        0.516      119.342       29.952        0.063      348.440       28.138      859.708
09/07/2014  13:02:00      123.607      106.764        9.375       45.425       33.805       30.934     2063.439     1142.776      956.941        1.546        0.208      163.332       10.318        0.004      348.183       27.695      859.702
09/07/2014  13:03:00       90.472       56.801       13.667       71.450       51.802       41.154     5105.165     2683.396     1693.672        1.054        0.474      106.825       32.275        0.091      348.540       28.310      859.692
09/07/2014  13:04:00      126.210       94.992       34.645       79.140       58.680       58.847     6263.126     3443.398     3463.020        1.966        0.658      157.963       46.340        0.086      348.773       28.712      859.664
09/07/2014  13:05:00      129.210       49.942       26.821      102.357       74.850       63.444    10476.859     5602.463     4025.106        2.000        1.005      138.526       41.257        0.089      348.369       28.013      859.654
09/07/2014  13:06:00      174.329      115.725       32.476       85.372       71.298       60.525     7288.443     5083.358     3663.216        3.043        0.802      209.243       40.579        0.038      348.216       27.747      859.646
09/07/2014  13:07:00      149.924       88.425       22.054       56.838       46.731       41.769     3230.594     2183.822     1744.649        1.897        0.358      174.058       22.686        0.017      348.157       27.648      859.634
09/07/2014  13:08:00       59.725       28.929       48.116       61.565       48.325       31.738     3790.242     2335.296     1007.277        0.692        0.357       66.362       26.126        0.155      348.788       28.739      859.622
09/07/2014  13:09:00       34.581       42.673       45.167       65.116       85.076       52.349     4240.034     7237.980     2740.460        0.964        0.711       54.926       41.717        0.577      348.467       28.185      859.604
09/07/2014  13:10:00       24.146      -98.706       -4.661       23.816       27.838       28.877      567.226      774.944      833.897        0.626        0.109      101.616       16.701        0.027      348.088       27.529      859.581
09/07/2014  13:11:00      110.085       55.770       38.779       46.439       34.715       36.168     2156.589     1205.165     1308.137        1.070        0.233      123.406       22.376        0.033      348.449       28.153      859.573
09/07/2014  13:12:00       -8.215      107.192       -8.862       59.669       59.045       48.742     3560.449     3486.309     2375.787        1.053        0.471      107.507       42.314        0.155      348.902       28.937      859.561
09/07/2014  13:13:00       39.758       95.884        5.776       64.224       86.751       45.903     4124.779     7525.667     2107.063        1.228        0.688      103.800       41.899        0.163      348.758       28.688      859.539
09/07/2014  13:14:00       60.917      114.211      -15.645       37.767       59.857       34.019     1426.341     3582.836     1157.323        1.158        0.308      129.441       34.256        0.070      348.600       28.414      859.526
09/07/2014  13:15:00       28.546      154.808      -12.026       44.426       98.902       44.815     1973.638     9781.593     2008.364        1.934        0.688      157.418       53.289        0.115      348.415       28.092      859.518
09/07/2014  13:16:00      -14.271      137.404      -23.930       38.317       49.497       34.388     1468.155     2449.961     1182.521        1.238        0.255      138.143       24.145        0.031      348.404       28.075      859.521
09/07/2014  13:17:00      -55.736       65.012       -3.884       45.367       45.120       47.110     2058.193     2035.775     2219.330        0.683        0.316       85.633       41.010        0.229      348.590       28.398      859.500
09/07/2014  13:18:00       60.976       22.690      -10.103       39.813       55.335       36.091     1585.056     3062.009     1302.558        0.514        0.297       65.061       28.014        0.185      348.434       28.127      859.469
09/07/2014  13:19:00       24.121       30.424       31.055       31.303       35.068       19.340      979.907     1229.746      374.033        0.253        0.129       38.826       18.673        0.231      348.681       28.555      859.438
09/07/2014  13:20:00        3.152       31.537        6.750       26.307       37.225       26.671      692.044     1385.711      711.363        0.192        0.139       31.694       22.078        0.485      349.025       29.150      859.432
09/07/2014  13:21:00       46.520       28.770       25.059       48.525       35.931       25.478     2354.659     1291.059      649.150        0.396        0.215       54.698       16.073        0.086      349.005       29.116      859.423
09/07/2014  13:22:00       89.331       56.839        5.475       37.533       53.382       24.797     1408.761     2849.668      614.901        0.806        0.244      105.880       22.266        0.044      348.667       28.529      859.398
09/07/2014  13:23:00      123.065       99.224       11.449       48.564       44.099       36.094     2358.414     1944.762     1302.786        1.536        0.280      158.083       10.460        0.004      348.640       28.484      859.380
09/07/2014  13:24:00       78.832       43.655       19.164       35.463       50.715       29.886     1257.609     2571.996      893.201        0.660        0.236       90.113       24.169        0.072      348.684       28.560      859.380
09/07/2014  13:25:00      126.054       67.941       13.970       51.176       58.577       43.263     2618.971     3431.231     1871.655        1.431        0.396      143.198       23.633        0.027      348.458       28.168      859.361
09/07/2014  13:26:00       47.066      111.432      -17.577       46.458       49.502       35.206     2158.305     2450.418     1239.437        1.039        0.292      120.964       26.501        0.048      348.498       28.238      859.346
09/07/2014  13:27:00      -61.496      124.702      -17.529       49.860       67.248       38.943     2486.052     4522.296     1516.550        1.408        0.426      139.041       36.324        0.068      348.565       28.355      859.348
09/07/2014  13:28:00       25.231      116.322       -6.417       39.329       62.141       40.119     1546.788     3861.444     1609.570        1.061        0.351      119.027       41.641        0.122      348.952       29.024      859.337
09/07/2014  13:29:00        6.992        3.081       -0.927       18.643       30.449       20.574      347.553      927.148      423.300        0.088        0.085        7.640       14.143        3.427      349.157       29.380      859.326
09/07/2014  13:30:00       52.172       16.036       38.938       41.495       48.339       36.147     1721.809     2336.629     1306.603        0.493        0.268       54.581       25.457        0.218      349.291       29.612      859.314
09/07/2014  13:31:00      161.729       95.148       14.118       80.865       77.148       48.240     6539.154     5951.766     2327.134        2.511        0.741      187.641       40.439        0.046      348.991       29.089      859.302
09/07/2014  13:32:00       89.216       82.616       65.908       77.893       57.407       57.512     6067.346     3295.609     3307.656        1.590        0.634      121.593       48.589        0.160      349.153       29.372      859.278
09/07/2014  13:33:00      106.094      109.921       78.148       83.476       73.897       70.402     6968.187     5460.712     4956.410        2.341        0.869      152.770       44.133        0.083      349.099       29.276      859.268
09/07/2014  13:34:00      197.582      121.269       28.191       89.339       74.693       58.504     7981.487     5579.039     3422.722        3.576        0.849      231.830       44.354        0.037      348.798       28.754      859.273
09/07/2014  13:35:00      183.588      137.117        8.861       75.063       69.344       48.354     5634.447     4808.597     2338.102        3.268        0.639      229.141       25.605        0.012      348.822       28.797      859.251
09/07/2014  13:36:00      137.303       90.901       16.955       62.527       42.726       34.857     3909.661     1825.542     1214.982        1.718        0.348      164.666       15.298        0.009      348.633       28.471      859.256
09/07/2014  13:37:00       98.894       52.277       11.183       47.662       32.914       35.836     2271.622     1083.333     1284.220        0.864        0.232      111.861       29.784        0.071      348.671       28.536      859.233
09/07/2014  13:38:00       87.560       62.188       11.133       32.743       50.636       34.732     1072.101     2564.024     1206.314        0.825        0.242      107.397       26.444        0.061      348.593       28.403      859.203
09/07/2014  13:39:00       32.777       33.016       -6.695       42.156       40.410       23.574     1777.157     1632.996      555.750        0.309        0.198       46.523        6.871        0.022      348.664       28.525      859.191
09/07/2014  13:40:00       52.499       41.621       37.728       31.315       31.083       26.499      980.621      966.159      702.211        0.428        0.132       66.997        6.949        0.011      348.942       29.006      859.161
09/07/2014  13:41:00       81.896       54.717       61.696       63.221       45.437       48.143     3996.894     2064.528     2317.759        1.094        0.419       98.493       29.443        0.089      348.834       28.819      859.145
09/07/2014  13:42:00       46.141       32.248       36.623       36.836       68.313       25.989     1356.857     4666.683      675.408        0.560        0.335       56.293       14.692        0.068      348.761       28.693      859.115
09/07/2014  13:43:00       54.273       28.728       27.438       58.543       99.457       47.396     3427.227     9891.650     2246.354        1.004        0.778       61.407       28.919        0.222      348.753       28.679      859.099
09/07/2014  13:44:00      -30.699       70.674      -11.356       28.745       33.453       29.188      826.261     1119.133      851.923        0.443        0.140       77.053       23.884        0.096      348.888       28.913      859.079
09/07/2014  13:45:00      -26.664       68.699      -12.836       23.298       38.194       21.219      542.784     1458.818      450.242        0.402        0.123       73.692       14.132        0.037      349.000       29.108      859.068
09/07/2014  13:46:00       17.914        2.015       -2.780       23.458       34.109       30.764      550.289     1163.411      946.396        0.150        0.133       18.027       15.323        0.722      349.307       29.639      859.081
09/07/2014  13:47:00       14.877       23.797      -11.914       24.901       39.482       29.457      620.042     1558.846      867.705        0.199        0.152       28.065       17.985        0.411      348.907       28.946      859.069
09/07/2014  13:48:00      -39.714       -5.573       28.828       38.487       44.471       36.624     1481.235     1977.704     1341.349        0.362        0.240       40.103       24.442        0.371      349.342       29.700      859.053
09/07/2014  13:49:00      -57.160        3.053        6.914       28.749       37.291       23.090      826.530     1390.594      533.132        0.304        0.138       57.242       19.038        0.111      349.086       29.257      859.063
09/07/2014  13:50:00      -50.889      -61.445       -8.775       49.581       42.486       30.604     2458.240     1805.100      936.627        0.582        0.260       79.782        5.320        0.004      349.049       29.193      859.068
09/07/2014  13:51:00      -46.794       82.428       -5.886       34.948       44.905       37.732     1221.363     2016.440     1423.690        0.684        0.233       94.784       29.859        0.099      348.913       28.958      859.049
09/07/2014  13:52:00     -115.879       33.692      -13.465       37.310       22.941       21.983     1392.022      526.271      483.253        0.857        0.120      120.678       15.488        0.016      348.683       28.558      859.026
09/07/2014  13:53:00     -135.491       52.038       -8.075       69.347       44.959       21.064     4808.951     2021.342      443.678        1.420        0.364      145.141       22.165        0.023      348.729       28.638      859.003
09/07/2014  13:54:00       30.118      -45.458       20.397       38.846       78.858       29.420     1509.020     6218.567      865.556        0.599        0.430       54.530       20.934        0.147      349.460       29.904      859.015
09/07/2014  13:55:00      210.418     -282.510      -58.217       83.328       86.210       52.226     6943.539     7432.227     2727.583        7.229        0.855      352.260       38.182        0.012      348.798       28.754      858.980
09/07/2014  13:56:00      162.531     -137.455      -16.058       77.644      120.676       63.669     6028.591    14562.670     4053.782        3.510        1.232      212.862       74.292        0.122      348.881       28.898      858.984
09/07/2014  13:57:00       88.755       30.862       73.936       70.341       83.357       43.811     4947.900     6948.330     1919.399        1.405        0.691       93.967       56.159        0.357      349.116       29.307      858.984
09/07/2014  13:58:00       70.945       46.232       15.139       55.066       42.577       38.568     3032.260     1812.820     1487.506        0.687        0.317       84.679       25.903        0.094      348.979       29.071      858.945
09/07/2014  13:59:00       37.541      -81.802       15.240       88.103      115.518       71.192     7762.183    13344.521     5068.370        1.725        1.309       90.005       64.564        0.515      349.349       29.711      858.923
09/07/2014  14:00:00      139.246      132.740      107.706      103.080       93.238       75.265    10625.497     8693.384     5664.786        3.679        1.249      192.379       55.979        0.085      349.312       29.645      858.907
09/07/2014  14:01:00       58.033      136.749      128.263       85.118       86.349       67.532     7245.003     7456.159     4560.635        2.889        0.963      148.553       65.025        0.192      349.207       29.464      858.896
09/07/2014  14:02:00      127.293       86.674       22.025       74.050       53.717       47.328     5483.337     2885.485     2239.895        1.740        0.530      153.999       41.783        0.074      349.151       29.366      858.869
09/07/2014  14:03:00      127.059       80.237       26.193       79.346       68.495       52.954     6295.805     4691.554     2804.095        1.853        0.690      150.273       32.957        0.048      349.202       29.456      858.835
09/07/2014  14:04:00      213.663      145.593       36.575      105.439       63.280       70.587    11117.442     4004.314     4982.528        4.414        1.005      258.552       36.243        0.020      348.967       29.046      858.803
09/07/2014  14:05:00      108.832       88.525       85.193      104.055       72.578       63.395    10827.421     5267.508     4018.901        2.352        1.006      140.289       37.475        0.071      349.279       29.589      858.779
09/07/2014  14:06:00       62.728       60.269       58.271       47.395       62.386       46.365     2246.281     3892.058     2149.713        0.962        0.414       86.989       41.961        0.233      349.548       30.057      858.776
09/07/2014  14:07:00       22.768       61.779       94.205       48.181       53.821       41.995     2321.436     2896.724     1763.550        1.009        0.349       65.840       29.015        0.194      349.796       30.488      858.756
09/07/2014  14:08:00       78.264     -124.149       17.809       84.445      148.676       65.932     7130.907    22104.422     4347.051        2.771        1.679      146.759       92.635        0.398      349.559       30.073      858.740
09/07/2014  14:09:00       65.799     -164.283      -21.469       69.458       73.345       50.595     4824.409     5379.540     2559.895        2.227        0.638      176.970       41.200        0.054      349.044       29.182      858.733
09/07/2014  14:10:00       79.437       15.499       79.667       92.952      115.752       87.308     8640.090    13398.439     7622.643        2.127        1.483       80.935       90.442        1.249      349.375       29.755      858.716
09/07/2014  14:11:00      124.441       68.247       66.961       99.347       52.989       55.947     9869.884     2807.874     3130.079        2.021        0.790      141.927       46.067        0.105      349.305       29.634      858.692
09/07/2014  14:12:00       51.479       37.778       34.026       65.937       46.340       46.408     4347.686     2147.350     2153.694        0.694        0.432       63.853       14.136        0.049      349.369       29.747      858.665
09/07/2014  14:13:00       15.065      -50.022       -2.711       47.225       77.594       33.296     2230.228     6020.782     1108.638        0.605        0.468       52.242       29.033        0.309      349.633       30.203      858.647
09/07/2014  14:14:00       35.886     -126.650        2.934       67.021       98.989       53.081     4491.753     9798.811     2817.585        1.722        0.855      131.636       48.142        0.134      349.496       29.966      858.691
09/07/2014  14:15:00        8.177      -91.332        9.440       50.799       54.726       40.851     2580.565     2994.937     1668.790        0.787        0.362       91.697       29.298        0.102      349.677       30.280      858.666
09/07/2014  14:16:00       71.905      -77.888       14.153      128.337      156.759       58.587    16470.318    24573.457     3432.409        2.795        2.224      106.004       86.044        0.659      349.655       30.242      858.616
09/07/2014  14:17:00       63.799       17.538       97.850      113.045      176.630      118.603    12779.111    31198.129    14066.675        3.599        2.902       66.166      127.592        3.719      349.615       30.172      858.563
09/07/2014  14:18:00      183.858     -180.377       16.712      114.308      171.744       87.256    13066.273    29495.974     7613.546        5.839        2.509      257.565      106.883        0.172      349.272       29.575      858.576
09/07/2014  14:19:00      196.522     -212.718      -20.080      109.367      106.368       62.934    11961.153    11314.166     3960.635        5.575        1.362      289.603       63.479        0.048      349.256       29.547      858.601
09/07/2014  14:20:00       16.454      -75.525       27.755       70.874      118.030       73.700     5023.140    13931.031     5431.716        1.556        1.219       77.297       83.770        1.174      349.424       29.842      858.615
09/07/2014  14:21:00        9.109      -60.502       25.475       59.648       98.992       60.570     3557.857     9799.343     3668.724        1.071        0.851       61.184       69.314        1.283      349.391       29.784      858.622
09/07/2014  14:22:00      -26.587      -33.678       10.279       52.528       58.228       37.615     2759.200     3390.492     1414.903        0.475        0.378       42.908       38.466        0.804      349.846       30.574      858.612
09/07/2014  14:23:00       -0.527      -20.658       34.311       41.769       61.478       32.859     1744.668     3779.531     1079.740        0.410        0.330       20.665       32.809        2.521      349.706       30.331      858.585
09/07/2014  14:24:00        9.777       17.766       32.643       28.117       30.296       25.694      790.570      917.835      660.203        0.192        0.118       20.279       22.213        1.200      349.604       30.154      858.559
09/07/2014  14:25:00       34.594      -40.862        8.891       28.957       36.659       21.734      838.535     1343.883      472.368        0.280        0.133       53.539       21.465        0.161      349.542       30.046      858.542
09/07/2014  14:26:00      -10.951       -4.025        1.181       31.044       50.187       26.103      963.741     2518.729      681.359        0.215        0.208       11.667       20.649        3.132      349.429       29.849      858.521
09/07/2014  14:27:00       35.822       11.601       20.274       40.838       35.483       27.176     1667.750     1259.008      738.547        0.275        0.183       37.653       16.234        0.186      349.568       30.092      858.496
09/07/2014  14:28:00      107.707      -13.778       41.870       89.927       89.978       65.984     8086.916     8096.040     4353.839        1.704        1.027      108.585       62.139        0.327      349.364       29.737      858.490
09/07/2014  14:29:00       46.947      -64.480       12.147       46.827       70.226       42.036     2192.788     4931.638     1767.031        0.770        0.445       79.760       42.736        0.287      349.898       30.665      858.484
09/07/2014  14:30:00       47.588     -152.322      -10.218       63.418       60.172       43.298     4021.823     3620.683     1874.758        1.754        0.476      159.583       35.409        0.049      349.706       30.331      858.478
09/07/2014  14:31:00      -12.726      -73.394      -22.351      111.382       69.473       37.424    12405.988     4826.500     1400.527        1.234        0.932       74.490       36.498        0.240      349.837       30.557      858.480
09/07/2014  14:32:00       71.339      -35.123       66.370       94.755      126.746       68.253     8978.558    16064.573     4658.471        2.021        1.485       79.516       74.847        0.886      349.752       30.411      858.420
09/07/2014  14:33:00     -139.023     -125.591      -15.015       94.138       96.218       63.795     8861.959     9257.854     4069.801        2.875        1.109      187.352       64.969        0.120      349.739       30.385      858.433
09/07/2014  14:34:00      -24.082      -78.838       -0.337       49.508       68.635       47.850     2451.024     4710.816     2289.647        0.812        0.473       82.434       39.702        0.232      349.786       30.469      858.441
09/07/2014  14:35:00      -74.293       -8.383        9.641       74.360       55.636       32.684     5529.462     3095.322     1068.270        0.769        0.485       74.764       29.037        0.151      350.241       31.259      858.431
09/07/2014  14:36:00      -54.833      -89.698        2.182       56.883      105.000       48.425     3235.703    11024.921     2345.000        1.383        0.830      105.130       50.630        0.232      350.040       30.911      858.461
09/07/2014  14:37:00     -124.884      -14.873       19.662      164.683       89.905       60.137    27120.540     8082.937     3616.500        2.751        1.941      125.767       72.528        0.333      350.010       30.857      858.418
09/07/2014  14:38:00     -352.576     -119.026       -6.659      166.115      102.841       57.313    27594.339    10576.282     3284.803        8.998        2.073      372.125       77.502        0.043      349.508       29.985      858.355
09/07/2014  14:39:00     -238.430      -70.043        2.041      185.873      123.236       72.416    34548.593    15187.083     5244.046        5.836        2.749      248.505       76.740        0.095      349.863       30.601      858.372
09/07/2014  14:40:00      -48.970     -142.187      -19.069      128.323      123.963       71.972    16466.690    15366.871     5180.040        2.999        1.851      150.384       70.934        0.222      349.865       30.605      858.414
09/07/2014  14:41:00      -74.100      -81.106       28.473       86.620      140.101       57.288     7502.946    19628.347     3281.914        2.164        1.521      109.859       54.389        0.245      349.658       30.246      858.433
09/07/2014  14:42:00      -26.243      -74.862       27.161       79.779      101.576       40.797     6364.723    10317.691     1664.427        1.269        0.917       79.328       44.825        0.319      349.860       30.599      858.353
09/07/2014  14:43:00       41.472        3.915       58.671       66.427      128.112       80.715     4412.498    16412.568     6514.890        1.625        1.367       41.656       84.441        4.109      349.752       30.408      858.296
09/07/2014  14:44:00     -140.991     -169.716       -8.004      152.608      112.341       49.866    23289.065    12620.533     2486.652        4.356        1.920      220.640       24.323        0.012      349.803       30.497      858.309
09/07/2014  14:45:00     -135.811     -255.885      -27.466      135.660       99.572       61.105    18403.739     9914.606     3733.875        5.836        1.603      289.692       58.222        0.040      349.735       30.376      858.303
09/07/2014  14:46:00     -204.316     -338.083      -12.945      164.516      136.762       91.047    27065.426    18703.799     8289.556       10.513        2.703      395.026       72.302        0.034      349.783       30.462      858.343
09/07/2014  14:47:00      -77.231     -261.660      -16.018      153.947      130.589       70.046    23699.693    17053.519     4906.378        6.017        2.283      272.819       74.900        0.075      349.613       30.166      858.330
09/07/2014  14:48:00     -119.660     -167.790        5.861      117.982      139.622       61.275    13919.843    19494.165     3754.643        3.983        1.858      206.087       58.586        0.081      349.899       30.663      858.306
09/07/2014  14:49:00     -270.484     -202.879       -1.031      169.871      131.560       82.419    28856.002    17308.161     6792.874        8.363        2.648      338.115       87.192        0.067      350.012       30.860      858.322
09/07/2014  14:50:00     -290.740     -255.314        0.519      184.529      179.338       81.301    34051.124    32162.293     6609.796       11.126        3.641      386.930       75.588        0.038      349.851       30.579      858.317
09/07/2014  14:51:00     -175.822     -287.597      -14.628      149.047      144.952       67.269    22215.075    21011.125     4525.169        8.079        2.388      337.084       78.136        0.054      349.726       30.361      858.334
09/07/2014  14:52:00      -53.965      -84.785        8.902       83.883       79.551       54.913     7036.336     6328.305     3015.479        1.328        0.819      100.503       38.461        0.146      349.987       30.817      858.317
09/07/2014  14:53:00     -137.159     -108.635       -4.781      106.456       75.558       53.139    11332.791     5709.050     2823.783        2.525        0.993      174.969       38.894        0.049      350.077       30.973      858.306
09/07/2014  14:54:00      -61.590      -45.322       23.035       85.101      104.353       52.404     7242.182    10889.472     2746.223        1.362        1.044       76.468       53.942        0.498      350.202       31.191      858.283
09/07/2014  14:55:00     -121.380      -53.975       -2.343       88.945       84.565       45.878     7911.129     7151.182     2104.751        1.741        0.858      132.840       48.234        0.132      349.959       30.769      858.248
09/07/2014  14:56:00      -22.231      -36.484       -7.678       50.297       39.374       28.595     2529.749     1550.308      817.673        0.339        0.245       42.724       24.123        0.319      350.075       30.972      858.250
09/07/2014  14:57:00       -4.968     -181.382       -1.461      118.321      144.396       77.156    13999.961    20850.082     5953.118        3.686        2.040      181.450       76.206        0.176      350.096       31.006      858.262
09/07/2014  14:58:00     -263.355     -255.224       -7.216      184.468      129.379       72.563    34028.405    16738.857     5265.388        9.528        2.802      366.736       78.685        0.046      349.975       30.795      858.234
09/07/2014  14:59:00     -202.882     -344.928      -16.447      134.977      139.135       67.934    18218.714    19358.578     4615.070       10.129        2.110      400.171       61.954        0.024      349.770       30.438      858.255
09/07/2014  15:00:00     -184.650     -312.316      -13.187      102.024      161.580       52.218    10408.930    26108.094     2726.745        8.552        1.962      362.818       39.438        0.012      349.704       30.324      858.224
09/07/2014  15:01:00     -271.146     -122.455        8.661      216.113      110.776       69.465    46704.818    12271.365     4825.454        7.619        3.190      297.516       89.893        0.091      349.790       30.474      858.176
09/07/2014  15:02:00      -80.433     -165.543       15.301      159.409      128.219       81.491    25411.157    16440.137     6640.744        4.129        2.425      184.049       54.603        0.088      349.858       30.590      858.197
09/07/2014  15:03:00     -206.170     -177.504       -3.275      149.840      156.254       75.733    22452.045    24415.282     5735.483        6.330        2.630      272.055       63.528        0.055      349.810       30.509      858.189
09/07/2014  15:04:00     -162.950     -255.913        2.361      234.990      126.989       89.976    55220.346    16126.114     8095.622        8.573        3.972      303.388       99.100        0.107      349.766       30.432      858.160
09/07/2014  15:05:00     -319.044     -240.263       25.759      239.753      177.658      104.402    57481.527    31562.188    10899.742       13.004        4.997      399.394      125.169        0.098      349.865       30.604      858.139
09/07/2014  15:06:00     -425.716     -322.731       -1.470      239.979      180.611       98.929    57589.824    32620.219     9787.014       19.268        5.000      534.219      100.905        0.036      349.704       30.322      858.132
09/07/2014  15:07:00     -259.815     -207.471       21.773      189.715      186.524       75.795    35991.639    34791.254     5744.892        9.376        3.826      332.488       77.766        0.055      349.879       30.626      858.149
09/07/2014  15:08:00     -120.645     -130.289       20.410      165.944      117.786       72.824    27537.275    13873.573     5303.275        3.932        2.336      177.568       84.622        0.227      350.134       31.073      858.163
09/07/2014  15:09:00     -237.590     -165.336       -4.930      143.503      106.236       63.744    20593.176    11286.043     4063.278        5.987        1.797      289.456       67.995        0.055      349.993       30.827      858.160
09/07/2014  15:10:00     -362.640      -69.195       -2.137      206.976      128.078       69.599    42838.880    16404.003     4844.052       10.018        3.204      369.183       76.128        0.043      349.828       30.540      858.143
09/07/2014  15:11:00     -276.603     -194.134       -4.502      214.799      123.565       69.770    46138.782    15268.269     4867.816        9.024        3.314      337.931       87.155        0.067      349.842       30.562      858.074
09/07/2014  15:12:00     -196.529     -168.486       19.663      204.443      158.326       94.225    41796.930    25067.100     8878.434        7.156        3.787      258.865      103.146        0.159      349.839       30.558      858.063
09/07/2014  15:13:00     -307.017     -265.047        9.682      216.378      198.182       92.065    46819.423    39276.185     8476.053       12.957        4.729      405.597      106.722        0.069      349.674       30.272      858.093
09/07/2014  15:14:00     -425.015     -277.627      -19.582      256.573      157.566       87.909    65829.474    24826.999     7727.955       17.822        4.919      507.655      109.380        0.046      349.628       30.191      858.055
09/07/2014  15:15:00     -207.896     -223.588       18.157      159.302      136.285       73.761    25377.100    18573.493     5440.649        7.146        2.470      305.308       71.446        0.055      349.556       30.067      858.060
09/07/2014  15:16:00     -288.891     -165.496       -2.025      135.151      136.144       71.920    18265.805    18535.302     5172.490        7.641        2.099      332.937       84.881        0.065      349.815       30.516      858.052
09/07/2014  15:17:00     -355.242     -319.502      -12.316      194.147      157.898       94.820    37693.150    24931.686     8990.852       15.001        3.581      477.785       97.688        0.042      349.664       30.254      858.039
09/07/2014  15:18:00     -310.628     -217.526      -17.847      193.801      148.148       84.748    37558.802    21947.926     7182.191       10.540        3.334      379.220       85.809        0.051      349.696       30.311      858.025
09/07/2014  15:19:00     -446.952     -183.690        0.333      242.815      174.590       88.812    58959.115    30481.787     7887.505       16.540        4.866      483.226       96.201        0.040      349.791       30.475      858.008
09/07/2014  15:20:00      -36.714     -172.707        6.305      123.120       82.348       58.857    15158.607     6781.247     3464.162        2.831        1.270      176.567       55.882        0.100      349.933       30.722      858.034
09/07/2014  15:21:00     -128.972     -106.391        1.582      190.003      118.239       58.159    36101.038    13980.376     3382.457        4.070        2.673      167.191       72.224        0.187      350.178       31.150      858.011
09/07/2014  15:22:00     -237.324     -235.809       -1.463      166.060      192.639       88.322    27575.774    37109.759     7800.822        9.220        3.624      334.557       96.232        0.083      349.810       30.507      857.993
09/07/2014  15:23:00     -313.944     -296.026       -3.220      216.630      188.832       87.633    46928.509    35657.400     7679.543       13.822        4.513      431.500      100.048        0.054      349.771       30.442      857.971
09/07/2014  15:24:00     -319.201     -211.183      -16.110      132.603      127.553       60.330    17583.520    16269.726     3639.693        9.211        1.875      382.737       56.690        0.022      349.839       30.558      857.996
09/07/2014  15:25:00     -289.101      -30.284      -10.355      173.050      112.223       59.656    29946.309    12593.937     3558.865        6.534        2.305      290.682       80.316        0.076      349.878       30.627      857.964
09/07/2014  15:26:00     -272.871     -196.853        5.288      143.133      133.338       71.467    20487.109    17779.044     5107.565        7.830        2.169      336.467       75.716        0.051      349.841       30.562      857.917
09/07/2014  15:27:00     -234.949     -227.454        1.500      199.104      185.117       73.610    39642.342    34268.348     5418.439        9.312        3.966      327.012       92.206        0.080      349.894       30.654      857.932
09/07/2014  15:28:00     -405.413     -300.508      -31.761      163.371      154.605       78.751    26690.086    23902.657     6201.708       15.622        2.840      504.643       79.498        0.025      349.609       30.159      857.949
09/07/2014  15:29:00     -386.237     -212.910       18.768      261.156      193.845       95.153    68202.218    37575.939     9054.098       15.483        5.742      441.033      129.883        0.087      349.670       30.265      857.909
09/07/2014  15:30:00     -160.941     -132.856       16.639      120.352      128.602       64.184    14484.494    16538.539     4119.551        3.948        1.757      208.693       43.018        0.042      349.859       30.593      857.912
09/07/2014  15:31:00     -361.850     -204.093       10.544      262.738      181.639       89.303    69031.361    32992.780     7975.039       14.133        5.500      415.439      120.008        0.083      349.814       30.515      857.920
09/07/2014  15:32:00     -292.792     -142.597       -3.482      218.327      158.770       92.217    47666.593    25207.928     8504.047        9.371        4.069      325.670      104.668        0.103      349.755       30.412      857.913
09/07/2014  15:33:00     -294.314      -82.456        5.711      171.600      145.445       79.321    29446.442    21154.389     6291.780        7.516        2.845      305.646       83.724        0.075      349.677       30.275      857.929
09/07/2014  15:34:00     -259.623     -103.391      -14.186      157.392       93.768       71.720    24772.248     8792.377     5143.781        5.850        1.935      279.453       76.826        0.076      349.735       30.379      857.918
09/07/2014  15:35:00     -322.427     -124.253      -23.825      173.212      127.261       70.232    30002.397    16195.354     4932.505        8.554        2.557      345.540       75.309        0.048      349.709       30.333      857.887
09/07/2014  15:36:00     -163.746     -167.418        4.513      152.223      143.221       68.539    23171.743    20512.213     4697.565        5.161        2.419      234.183       81.597        0.121      349.727       30.364      857.891
09/07/2014  15:37:00     -113.578     -240.711       -6.149      119.087      157.750       60.648    14181.819    24884.924     3678.216        5.681        2.137      266.161       64.813        0.059      349.605       30.153      857.864
09/07/2014  15:38:00     -128.056     -193.983       -3.599      110.903       93.116       61.079    12299.494     8670.569     3730.613        3.937        1.235      232.439       42.619        0.034      349.646       30.222      857.844
09/07/2014  15:39:00     -197.108     -104.350       -8.173       95.432       78.676       49.496     9107.317     6189.949     2449.807        3.377        0.887      223.026       42.246        0.036      349.765       30.430      857.833
09/07/2014  15:40:00     -276.067     -166.567       16.923      228.637      132.270       84.061    52274.845    17495.456     7066.290        9.053        3.842      322.424       99.751        0.096      349.903       30.669      857.797
09/07/2014  15:41:00     -351.783     -217.854       16.023      170.431      171.378       98.926    29046.652    29370.336     9786.369       11.982        3.410      413.777       89.963        0.047      349.696       30.309      857.793
09/07/2014  15:42:00     -314.032      -90.321        4.807      145.386      130.107       74.176    21137.140    16927.870     5502.074        7.517        2.178      326.763       74.287        0.052      349.874       30.618      857.783
09/07/2014  15:43:00     -407.776      -65.614      -10.870      215.961      181.687       91.424    46639.360    33010.227     8358.368       12.934        4.400      413.021      100.332        0.059      349.851       30.579      857.765
09/07/2014  15:44:00     -526.932     -200.603      -22.853      261.070      237.227      121.704    68157.756    56276.738    14811.921       22.881        6.962      563.825      141.458        0.063      349.703       30.322      857.752
09/07/2014  15:45:00     -312.887     -224.727       -7.976      133.643      127.965       69.498    17860.319    16375.000     4829.946        9.376        1.953      385.228       65.260        0.029      349.435       29.857      857.839
09/07/2014  15:46:00     -270.991     -235.157        1.216      195.409      128.320       86.544    38184.850    16465.904     7489.903        9.543        3.107      358.796       91.259        0.065      349.463       29.906      857.792
09/07/2014  15:47:00     -300.492     -212.504       -7.219      114.167      114.445       63.560    13034.005    13097.731     4039.829        8.283        1.509      368.040       51.172        0.019      349.536       30.031      857.765
09/07/2014  15:48:00     -161.624      -59.438       30.221      197.825      133.652       90.608    39134.669    17862.893     8209.806        4.788        3.260      172.207       94.592        0.302      349.875       30.622      857.739
09/07/2014  15:49:00     -259.849     -121.095        2.323      141.586       89.092       57.667    20046.643     7937.396     3325.517        5.674        1.565      286.680       63.746        0.049      349.842       30.564      857.734
09/07/2014  15:50:00     -296.607     -178.011        2.861      173.096      145.748       64.246    29962.177    21242.565     4127.547        8.749        2.767      345.924       69.843        0.041      349.866       30.606      857.758
09/07/2014  15:51:00     -347.395     -187.391        2.475      183.528      122.385       73.712    33682.440    14978.178     5433.397       10.494        2.705      394.713       90.376        0.052      349.690       30.299      857.729
09/07/2014  15:52:00     -337.264     -266.740      -11.146      181.700      162.287       87.640    33014.997    26336.927     7680.764       12.602        3.352      429.997       87.214        0.041      349.727       30.364      857.726
09/07/2014  15:53:00     -390.395     -282.985      -16.245      208.623      164.476       77.269    43523.703    27052.506     5970.539       15.464        3.827      482.171       81.926        0.029      349.522       30.010      857.744
09/07/2014  15:54:00     -362.291     -253.264        0.737      177.516      148.843       81.807    31511.947    22154.274     6692.367       12.787        3.018      442.038      106.791        0.058      349.449       29.880      857.741
09/07/2014  15:55:00     -244.777     -177.149        3.071      123.490      100.790       64.149    15249.716    10158.592     4115.100        6.041        1.476      302.155       61.358        0.041      349.606       30.154      857.731
09/07/2014  15:56:00     -268.978      -65.325       17.089      173.063      143.239       80.747    29950.870    20517.500     6520.152        6.694        2.849      276.797       89.202        0.104      349.767       30.433      857.731
09/07/2014  15:57:00     -326.684     -222.966        7.895      182.486      155.779       84.807    33301.269    24267.250     7192.146       11.062        3.238      395.520      102.081        0.067      349.612       30.165      857.710
09/07/2014  15:58:00     -395.637     -295.366      -34.258      130.272      118.497       75.924    16970.753    14041.570     5764.409       14.085        1.839      493.730       66.868        0.018      349.364       29.734      857.680
09/07/2014  15:59:00     -305.404     -234.698       -4.705      163.457      134.745       68.510    26718.147    18156.265     4693.688        9.896        2.478      385.169       78.390        0.041      349.547       30.053      857.660
09/07/2014  16:00:00     -228.988     -253.828        0.298      126.967      175.258       60.541    16120.568    30715.224     3665.192        8.367        2.525      341.854       77.351        0.051      349.682       30.286      857.684
09/07/2014  16:01:00     -330.578     -242.856       -4.578      163.074      127.624       77.830    26593.195    16287.869     6057.450       10.860        2.447      410.196       81.680        0.040      349.667       30.260      857.639
09/07/2014  16:02:00     -230.587     -178.570      -20.850      159.206      125.292       75.289    25346.525    15698.188     5668.494        6.610        2.336      291.647       76.248        0.068      349.727       30.362      857.639
09/07/2014  16:03:00     -164.659     -220.900       -6.227      161.072      219.758       73.941    25944.130    48293.391     5467.202        7.781        3.985      275.516       82.898        0.091      349.727       30.364      857.625
09/07/2014  16:04:00     -317.695     -282.868       -9.402      182.327      166.816       74.401    33243.014    27827.571     5535.449       12.381        3.330      425.375       73.611        0.030      349.836       30.552      857.617
09/07/2014  16:05:00     -252.202     -228.604        0.158      199.162      187.211       80.175    39665.415    35047.950     6428.091        9.849        4.057      340.390       95.075        0.078      349.747       30.400      857.646
09/07/2014  16:06:00     -297.955     -346.657      -24.790      200.848      189.532       98.509    40339.724    35922.528     9704.050       14.775        4.298      457.109      104.174        0.052      349.561       30.076      857.623
09/07/2014  16:07:00     -288.290     -282.770       15.625      159.625      194.634       88.510    25480.030    37882.316     7834.061       11.724        3.560      403.819       90.765        0.051      349.674       30.271      857.614
09/07/2014  16:08:00     -264.560     -301.087        3.392      133.605      194.918       74.791    17850.364    37993.105     5593.745       11.104        3.072      400.806       59.724        0.022      349.732       30.372      857.624
09/07/2014  16:09:00     -511.611     -351.592       -8.572      209.160      186.733       92.779    43747.899    34869.190     8608.017       23.632        4.361      620.776      102.232        0.027      349.560       30.073      857.607
09/07/2014  16:10:00     -362.066     -205.238       -9.171      186.509      151.199       77.231    34785.470    22861.039     5964.696       11.844        3.181      416.190       78.365        0.035      349.627       30.190      857.581
09/07/2014  16:11:00     -326.524     -271.385        5.968      172.013      202.513       92.746    29588.536    41011.636     8601.862       12.974        3.960      424.580      101.797        0.057      349.579       30.108      857.569
09/07/2014  16:12:00     -429.600     -195.297        0.871      217.118      163.012       94.414    47140.225    26573.060     8914.063       15.265        4.131      471.908      104.458        0.049      349.566       30.083      857.519
09/07/2014  16:13:00     -385.058     -238.592       -6.645      191.709      134.092       78.602    36752.150    17980.715     6178.309       13.307        3.046      452.986       80.794        0.032      349.649       30.229      857.502
09/07/2014  16:14:00     -287.199     -172.708      -20.763      169.132      107.651       66.784    28605.598    11588.706     4460.083        7.869        2.233      335.129       79.242        0.056      349.761       30.423      857.530
09/07/2014  16:15:00     -222.909     -151.703       12.125      183.457      111.922       76.456    33656.491    12526.485     5845.567        6.243        2.601      269.633       81.669        0.092      349.892       30.652      857.514
09/07/2014  16:16:00     -229.858     -323.260       -5.606      129.848      172.328       74.712    16860.495    29696.838     5581.847       10.474        2.607      396.651       64.159        0.026      349.760       30.422      857.531
09/07/2014  16:17:00     -211.422     -335.341       -1.150      112.148      174.338       67.568    12577.086    30393.665     4565.441       10.234        2.377      396.425       60.683        0.023      349.655       30.239      857.524
09/07/2014  16:18:00     -136.483     -171.120       16.110      127.644      134.736       77.409    16293.024    18153.733     5992.106        4.430        2.022      218.883       70.940        0.105      349.810       30.507      857.521
09/07/2014  16:19:00     -160.107     -134.359       -0.711      151.426      139.209       65.310    22929.823    19379.202     4265.437        4.512        2.329      209.013       75.737        0.131      349.935       30.726      857.519
09/07/2014  16:20:00     -108.921      -73.566        9.629       97.220       85.717       47.180     9451.710     7347.326     2225.974        1.819        0.951      131.438       49.822        0.144      349.992       30.826      857.515
09/07/2014  16:21:00     -175.796     -173.809        5.902      141.292      114.937       56.585    19963.325    13210.517     3201.815        4.876        1.819      247.212       56.421        0.052      349.935       30.724      857.516
09/07/2014  16:22:00     -295.121     -273.080      -21.148      141.589      120.160       69.886    20047.538    14438.489     4883.989       10.074        1.969      402.081       70.863        0.031      349.774       30.446      857.504
09/07/2014  16:23:00     -207.352     -222.382        3.564      157.285      132.592       68.794    24738.654    17580.574     4732.605        6.975        2.353      304.053       66.785        0.048      349.805       30.498      857.492
09/07/2014  16:24:00     -322.884     -178.409      -12.385      139.446      128.800       63.123    19445.217    16589.488     3984.563        8.812        2.001      368.896       57.930        0.025      349.856       30.588      857.499
09/07/2014  16:25:00     -229.627     -149.491      -12.332      185.597      156.844       72.992    34446.190    24599.932     5327.866        6.979        3.219      274.001       94.683        0.119      349.866       30.605      857.506
09/07/2014  16:26:00     -339.120     -311.588       -3.899      171.143      182.976       83.425    29290.048    33480.346     6959.739       14.091        3.487      460.532       88.416        0.037      349.572       30.096      857.497
09/07/2014  16:27:00     -355.322     -126.158       -5.071      160.626      133.428       70.895    25800.865    17803.108     5026.044        9.540        2.432      377.054       79.398        0.044      349.651       30.233      857.501
09/07/2014  16:28:00     -302.048     -135.283       -4.537      218.281      181.615       73.718    47646.402    32984.108     5434.294        9.780        4.303      330.960       83.991        0.064      349.659       30.246      857.524
09/07/2014  16:29:00     -359.535     -138.785        1.493      176.463      137.785       81.578    31139.036    18984.768     6654.946       10.264        2.839      385.392       85.645        0.049      349.595       30.135      857.506
09/07/2014  16:30:00     -287.926     -123.107      -12.881      177.984      121.349       71.452    31678.186    14725.519     5105.322        7.486        2.575      313.140       84.044        0.072      349.593       30.132      857.492
09/07/2014  16:31:00     -337.687     -184.375      -22.241      183.446      135.948       72.278    33652.599    18481.974     5224.075       10.293        2.868      384.742       91.083        0.056      349.705       30.326      857.491
09/07/2014  16:32:00     -222.594     -231.447       -0.287      149.923      145.061       64.718    22477.036    21042.638     4188.381        7.540        2.385      321.117       77.258        0.058      349.789       30.472      857.505
09/07/2014  16:33:00     -191.817     -140.581       21.829      156.750      103.526       72.262    24570.573    10717.581     5221.794        4.876        2.025      237.816       65.668        0.076      349.870       30.612      857.497
09/07/2014  16:34:00     -311.392     -169.414       14.547      203.546      175.214       85.233    41430.953    30699.882     7264.701       10.262        3.970      354.494       97.502        0.076      349.659       30.247      857.486
09/07/2014  16:35:00     -414.289     -231.896       -8.838      161.566      108.898       68.708    26103.532    11858.692     4720.788       13.408        2.134      474.775       64.554        0.018      349.599       30.143      857.466
09/07/2014  16:36:00     -368.670     -234.330       -7.978      286.513      169.032       93.374    82089.945    28571.685     8718.647       15.512        5.969      436.839      106.817        0.060      349.519       30.004      857.463
09/07/2014  16:37:00     -308.931     -145.925        2.967      150.295      149.301       71.235    22588.685    22290.894     5074.391        8.334        2.498      341.662       79.276        0.054      349.630       30.194      857.465
09/07/2014  16:38:00     -395.514     -200.601      -26.231      199.108      129.982       77.128    39643.944    16895.352     5948.741       12.991        3.124      443.477      100.698        0.052      349.515       29.995      857.440
09/07/2014  16:39:00     -462.568      -81.766        1.542      244.628      152.296       87.823    59843.048    23194.147     7712.818       15.569        4.538      469.739      111.099        0.056      349.672       30.268      857.398
09/07/2014  16:40:00     -383.442     -148.195       -2.841      208.215      177.084       93.744    43353.532    31358.654     8787.948       12.624        4.175      411.084      109.051        0.070      349.674       30.270      857.383
09/07/2014  16:41:00     -474.516     -318.139      -22.915      199.256      179.876      104.272    39702.880    32355.326    10872.666       20.490        4.147      571.295       96.418        0.028      349.534       30.029      857.385
09/07/2014  16:42:00     -549.057     -220.893      -33.259      204.721      218.547       99.093    41910.819    47762.616     9819.415       22.541        4.975      591.825      110.681        0.035      349.497       29.964      857.371
09/07/2014  16:43:00     -262.138     -168.082        7.797      211.732      149.123       84.266    44830.295    22237.683     7100.814        8.559        3.708      311.397       96.988        0.097      349.632       30.200      857.375
09/07/2014  16:44:00     -328.238     -136.298       -5.780      159.670      110.090       58.128    25494.605    12119.786     3378.865        8.367        2.050      355.411       63.569        0.032      349.749       30.400      857.385
09/07/2014  16:45:00     -256.311     -144.824       -3.672      176.360      137.572       76.164    31102.922    18925.935     5801.015        7.125        2.791      294.397       73.190        0.062      349.684       30.290      857.402
09/07/2014  16:46:00     -269.215      -98.975        8.734      205.960      147.256       70.142    42419.556    21684.358     4919.956        7.567        3.451      286.832       85.729        0.089      349.689       30.299      857.376
09/07/2014  16:47:00     -188.536     -146.039        5.579      135.373      113.453       77.428    18325.745    12871.529     5995.083        4.704        1.860      238.481       65.278        0.075      349.680       30.282      857.375
09/07/2014  16:48:00     -203.267      -94.634       11.680      149.706      141.890       69.795    22411.774    20132.642     4871.378        4.890        2.371      224.217       73.718        0.108      349.753       30.408      857.376
09/07/2014  16:49:00     -154.824     -138.277       -1.440       88.827      166.214       54.135     7890.187    27627.112     2930.607        4.076        1.922      207.584       55.813        0.072      349.748       30.401      857.389
09/07/2014  16:50:00     -302.790     -194.725       -0.627      131.397      126.632       64.062    17265.262    16035.604     4103.888        8.350        1.870      360.000       54.644        0.023      349.625       30.188      857.367
09/07/2014  16:51:00     -256.078     -168.387      -10.943      169.960      129.628       73.746    28886.340    16803.396     5438.445        7.258        2.556      306.480       91.070        0.088      349.560       30.073      857.358
09/07/2014  16:52:00     -192.649      -86.498        9.468      141.680       97.425       49.118    20073.217     9491.601     2412.611        3.833        1.599      211.177       57.240        0.073      349.717       30.349      857.361
09/07/2014  16:53:00     -268.768     -126.697       -1.208      125.511      116.504       65.804    15753.134    13573.221     4330.206        6.097        1.683      297.133       66.402        0.050      349.686       30.293      857.352
09/07/2014  16:54:00     -344.111     -208.276      -18.055      180.781      115.152       78.047    32681.600    13259.971     6091.359       10.707        2.602      402.233       74.080        0.034      349.615       30.169      857.348
09/07/2014  16:55:00     -185.133     -170.712        3.896      164.513      118.848       71.336    27064.476    14124.923     5088.768        5.485        2.314      251.827       73.785        0.086      349.714       30.340      857.366
09/07/2014  16:56:00     -184.450      -63.167        7.355      103.219      100.596       49.218    10654.110    10119.585     2422.423        3.063        1.160      194.966       40.230        0.043      349.693       30.306      857.368
09/07/2014  16:57:00     -366.978      -77.550      -20.959      164.240      159.203       71.368    26974.699    25345.558     5093.410        9.926        2.871      375.082       67.297        0.032      349.574       30.100      857.352
09/07/2014  16:58:00     -325.602      -39.008      -22.392      145.684      112.006       67.072    21223.770    12545.371     4498.652        7.315        1.913      327.930       70.882        0.047      349.651       30.231      857.342
09/07/2014  16:59:00     -263.817      -59.398        4.810      223.208      170.137       92.007    49821.830    28946.526     8465.323        8.018        4.362      270.421      104.934        0.151      349.793       30.479      857.343
09/07/2014  17:00:00     -288.152     -154.915       11.729      181.698      184.082       80.026    33014.069    33886.046     6404.133        9.022        3.665      327.155       79.860        0.060      349.562       30.078      857.362
09/07/2014  17:01:00     -320.779     -240.715       -2.948      184.667      141.845       68.958    34101.731    20120.099     4755.206       10.990        2.949      401.052       69.014        0.030      349.515       29.997      857.370
09/07/2014  17:02:00     -323.400     -202.466       -5.196      181.065      125.269       71.015    32784.631    15692.366     5043.119        9.955        2.676      381.549       76.386        0.040      349.427       29.843      857.335
09/07/2014  17:03:00     -177.636     -200.675        9.469      160.301      154.739       96.202    25696.330    23944.074     9254.797        6.539        2.945      268.001      103.676        0.150      349.582       30.113      857.356
09/07/2014  17:04:00     -284.266     -138.748      -12.124      192.846      127.682       88.686    37189.614    16302.722     7865.152        8.077        3.068      316.320      102.652        0.105      349.550       30.058      857.347
09/07/2014  17:05:00     -392.356     -128.009        6.627      204.185      146.114       78.916    41691.445    21349.431     6227.766       11.981        3.463      412.710       84.231        0.042      349.428       29.845      857.335
09/07/2014  17:06:00     -407.559     -205.674      -27.409      145.100      152.249       82.205    21053.930    23179.609     6757.712       13.007        2.550      456.515       79.568        0.030      349.395       29.788      857.329
09/07/2014  17:07:00     -259.547     -124.855      -13.576      113.640       99.000       55.137    12914.063     9800.971     3040.093        5.444        1.288      288.016       53.291        0.034      349.503       29.975      857.335
09/07/2014  17:08:00     -226.859     -111.572       13.228      162.948      130.517       77.865    26552.019    17034.680     6063.016        5.686        2.482      252.811       71.053        0.079      349.633       30.201      857.325
09/07/2014  17:09:00     -409.623     -196.625      -18.753      215.688      180.303      100.790    46521.348    32509.264    10158.635       14.798        4.459      454.370      102.268        0.051      349.480       29.935      857.293
09/07/2014  17:10:00     -365.054      -63.500      -11.132      166.217      183.869       84.756    27628.123    33807.814     7183.653       10.301        3.431      370.535       85.463        0.053      349.633       30.203      857.274
09/07/2014  17:11:00     -327.897      -96.807       -0.235      227.141      147.089       88.421    51592.877    21635.120     7818.327        9.895        4.052      341.889       97.302        0.081      349.450       29.883      857.289
09/07/2014  17:12:00     -296.798     -118.552       -1.144      186.654      138.100       80.368    34839.701    19071.656     6459.032        8.125        3.019      319.599       64.235        0.040      349.482       29.940      857.304
09/07/2014  17:13:00     -229.047     -159.363        2.748      140.900      136.475       72.495    19852.811    18625.557     5255.565        6.079        2.187      279.032       71.572        0.066      349.491       29.953      857.322
09/07/2014  17:14:00     -277.637      -72.382       -8.548      104.221      108.127       62.337    10862.082    11691.442     3885.905        5.441        1.322      286.917       52.104        0.033      349.501       29.970      857.309
09/07/2014  17:15:00     -288.538     -167.371       -0.624      155.313      150.171       88.925    24121.999    22551.261     7907.618        8.292        2.729      333.568       90.811        0.074      349.471       29.918      857.299
09/07/2014  17:16:00     -263.110      -73.707       -3.110      147.567      108.692       61.698    21775.889    11813.878     3806.681        5.603        1.870      273.239       46.090        0.028      349.552       30.060      857.304
09/07/2014  17:17:00     -224.431     -134.523      -10.737      120.608      101.591       50.033    14546.399    10320.745     2503.262        4.797        1.369      261.660       44.592        0.029      349.503       29.976      857.294
09/07/2014  17:18:00     -292.271     -167.072       -3.605      158.391      155.945       76.141    25087.658    24318.805     5797.452        8.427        2.760      336.653       79.383        0.056      349.422       29.834      857.252
09/07/2014  17:19:00     -477.540     -177.046      -24.831      199.608      128.239       83.755    39843.503    16445.339     7014.906       16.164        3.165      509.303       84.111        0.027      349.474       29.924      857.249
09/07/2014  17:20:00     -622.057      -94.078        3.862      277.440      221.592      105.944    76972.997    49103.176    11224.128       26.654        6.865      629.131      123.164        0.038      349.496       29.962      857.156
09/07/2014  17:21:00     -457.720     -143.201      -14.383      212.872      144.140       81.311    45314.625    20776.213     6611.413       15.145        3.635      479.598       92.313        0.037      349.508       29.983      857.274
09/07/2014  17:22:00     -251.551     -124.839       18.080      181.033      145.379       77.056    32772.990    21134.988     5937.643        6.951        2.992      280.825       78.583        0.078      349.553       30.064      857.277
09/07/2014  17:23:00     -300.617     -206.261       -2.661      188.479      182.644       87.582    35524.175    33358.854     7670.688       10.472        3.828      364.574       68.042        0.035      349.478       29.934      857.276
09/07/2014  17:24:00     -496.973     -202.858       -4.648      209.151      192.468       84.512    43744.249    37043.952     7142.258       18.803        4.397      536.781       86.614        0.026      349.359       29.724      857.270
09/07/2014  17:25:00     -379.817     -228.639      -13.538      151.895      118.271       73.365    23072.097    13987.939     5382.392       11.957        2.122      443.324       75.270        0.029      349.369       29.743      857.313
09/07/2014  17:26:00     -288.530      -79.896      -10.761      165.476      120.745       64.242    27382.471    14579.244     4127.012        6.791        2.304      299.388       58.131        0.038      349.398       29.792      857.327
09/07/2014  17:27:00     -298.938      -84.362       -1.266      153.603      124.532       65.641    23593.983    15508.295     4308.734        6.994        2.171      310.614       71.685        0.053      349.512       29.992      857.316
09/07/2014  17:28:00     -393.469       -0.893      -11.263      218.866      196.113       81.467    47902.271    38460.345     6636.866       12.396        4.650      393.470      100.143        0.065      349.360       29.728      857.277
09/07/2014  17:29:00     -455.101     -226.586       -8.248      318.246      327.829      126.731   101280.495   107471.555    16060.660       24.163       11.241      508.388      151.807        0.089      349.272       29.575      857.241
09/07/2014  17:30:00     -419.411     -182.423        2.536      179.328      147.213       81.327    32158.609    21671.672     6614.037       13.481        3.022      457.366       79.175        0.030      349.248       29.533      857.262
09/07/2014  17:31:00     -269.863      -75.631       -3.508      168.779      119.648       71.458    28486.459    14315.541     5106.295        6.323        2.395      280.261       83.431        0.089      349.362       29.732      857.284
09/07/2014  17:32:00     -377.299      -87.566      -24.495      150.713      135.987       70.500    22714.464    18492.338     4970.310        9.839        2.309      387.327       69.372        0.032      349.276       29.581      857.261
09/07/2014  17:33:00     -360.266     -153.228       -1.315      121.750      101.739       57.521    14823.041    10350.738     3308.619        9.087        1.424      391.497       59.955        0.023      349.272       29.576      857.253
09/07/2014  17:34:00     -471.141      -58.926      -29.579      171.160      129.160       77.479    29295.624    16682.317     6002.994       13.914        2.599      474.811       87.695        0.034      349.286       29.599      857.251
09/07/2014  17:35:00     -377.252     -141.285      -30.309      184.613      145.762       73.831    34081.974    21246.494     5450.944       11.198        3.039      402.840       74.611        0.034      349.357       29.721      857.266
09/07/2014  17:36:00     -497.132     -127.724      -30.208      255.815      203.566       98.073    65441.373    41438.920     9618.344       19.041        5.825      513.277      120.615        0.055      349.272       29.574      857.255
09/07/2014  17:37:00     -385.538     -118.092        5.529      214.871      156.552      100.172    46169.480    24508.622    10034.478       12.165        4.036      403.219      114.104        0.080      349.293       29.610      857.282
09/07/2014  17:38:00     -442.178     -110.899       -7.978      223.290      200.567       90.790    49858.552    40227.025     8242.824       15.309        4.916      455.873      103.844        0.052      349.233       29.508      857.302
09/07/2014  17:39:00     -240.684     -115.267        9.775      157.635      129.860       76.567    24848.828    16863.568     5862.471        5.943        2.379      266.861       88.038        0.109      349.326       29.668      857.308
09/07/2014  17:40:00     -320.915     -158.912        1.917      200.443      173.546       89.852    40177.324    30118.210     8073.303       10.329        3.918      358.105      109.269        0.093      349.279       29.589      857.317
09/07/2014  17:41:00     -342.522     -262.634      -10.664      186.743      157.682       84.589    34872.939    24863.594     7155.251       12.664        3.345      431.623       82.085        0.036      349.225       29.495      857.318
09/07/2014  17:42:00     -253.147     -150.464        9.701      192.099      143.281       70.436    36901.955    20529.560     4961.261        7.459        3.120      294.487       90.912        0.095      349.294       29.614      857.339
09/07/2014  17:43:00     -327.510     -217.397      -13.246      194.182      115.676       82.434    37706.618    13380.894     6795.373       10.628        2.894      393.095      101.409        0.067      349.275       29.582      857.352
09/07/2014  17:44:00     -405.920     -193.518       -3.176      155.887      120.310       72.518    24300.835    14474.520     5258.799       12.312        2.202      449.689       69.511        0.024      349.229       29.499      857.335
09/07/2014  17:45:00     -399.807     -186.595      -18.068      217.014      235.680       90.892    47094.862    55545.182     8261.307       15.293        5.545      441.207       99.115        0.050      349.173       29.404      857.346
09/07/2014  17:46:00     -445.352     -297.268      -13.094      197.206      125.077       90.086    38890.319    15644.226     8115.399       17.475        3.132      535.450       97.463        0.033      349.072       29.227      857.333
09/07/2014  17:47:00     -489.770     -243.602      -32.270      193.622      143.402       76.230    37489.294    20564.231     5810.937       18.205        3.193      547.007       72.367        0.018      348.962       29.037      857.345
09/07/2014  17:48:00     -390.479     -261.023       -5.327      185.983      134.886       85.801    34589.612    18194.100     7361.800       14.038        3.007      469.688       91.308        0.038      348.975       29.061      857.331
09/07/2014  17:49:00     -368.683     -229.467      -17.322      178.205      133.914       71.914    31757.058    17933.047     5171.606       12.186        2.743      434.261       85.626        0.039      348.985       29.078      857.332
09/07/2014  17:50:00     -327.055     -217.636       -7.626      176.227      113.333       74.062    31056.115    12844.287     5485.112       10.188        2.469      392.849       83.710        0.045      349.058       29.204      857.331
09/07/2014  17:51:00     -357.152     -224.878       -9.033      163.233      128.402       83.603    26644.866    16487.145     6989.530       11.416        2.506      422.052       69.956        0.027      349.068       29.219      857.353
09/07/2014  17:52:00     -315.160     -132.465      -14.546      167.181      119.219       71.987    27949.395    14213.221     5182.089        8.221        2.367      341.866       79.702        0.054      349.041       29.175      857.368
09/07/2014  17:53:00     -174.599     -164.482        9.943      123.938      126.343       61.172    15360.541    15962.608     3742.059        4.635        1.753      239.873       59.415        0.061      349.077       29.236      857.341
09/07/2014  17:54:00     -244.982     -160.180        4.205      126.483      112.257       67.124    15998.063    12601.626     4505.656        5.939        1.655      292.701       58.680        0.040      349.168       29.395      857.372
09/07/2014  17:55:00     -253.917     -159.364       -8.966      158.578      143.103       84.911    25147.065    20478.372     7209.866        7.138        2.642      299.784       88.784        0.088      349.100       29.276      857.391
09/07/2014  17:56:00     -302.305     -100.687      -19.568      123.219      136.670       59.900    15182.809    18678.782     3587.980        6.967        1.872      318.631       53.861        0.029      349.071       29.227      857.393
09/07/2014  17:57:00     -298.470     -159.553       -7.951      174.051      141.568       81.479    30293.848    20041.510     6638.865        8.578        2.849      338.440       78.740        0.054      349.027       29.152      857.398
09/07/2014  17:58:00     -223.298     -178.436        5.718      152.436      133.931       85.816    23236.724    17937.497     7364.406        6.513        2.427      285.835       95.778        0.112      349.025       29.145      857.413
09/07/2014  17:59:00     -214.351     -230.156        2.015      167.892      126.044       92.538    28187.648    15887.152     8563.287        7.577        2.632      314.513       94.816        0.091      348.998       29.099      857.400
09/07/2014  18:00:00     -136.246     -104.516       10.384      137.949      104.356       73.158    19029.829    10890.184     5352.115        3.243        1.764      171.716       83.109        0.234      349.077       29.237      857.420
09/07/2014  18:01:00     -348.421     -141.318       -2.671      169.498      154.213       74.039    28729.461    23781.615     5481.713        9.967        2.900      375.989       91.350        0.059      348.992       29.090      857.408
09/07/2014  18:02:00     -221.638     -122.680       -7.614      136.103      129.295       74.974    18523.967    16717.198     5621.161        5.254        2.043      253.325       66.661        0.069      349.016       29.132      857.415
09/07/2014  18:03:00     -248.699       -8.836        3.453      225.278      114.823       64.671    50749.962    13184.241     4182.333        6.502        3.406      248.856       88.324        0.126      349.033       29.162      857.420
09/07/2014  18:04:00     -216.923     -124.933        2.017      150.313      110.240       62.282    22594.003    12152.856     3878.986        5.064        1.931      250.327       69.812        0.078      348.998       29.102      857.439
09/07/2014  18:05:00     -275.166     -118.628      -12.049      214.195       98.779       65.419    45879.460     9757.239     4279.680        7.492        2.996      299.648       88.289        0.087      348.943       29.006      857.432
09/07/2014  18:06:00     -240.139     -200.395       -5.907      120.343      143.629       59.797    14482.409    20629.306     3575.692        6.827        1.934      312.769       50.458        0.026      348.901       28.931      857.405
09/07/2014  18:07:00     -257.264      -83.403       -0.379      132.664      114.536       68.851    17599.675    13118.494     4740.491        5.429        1.773      270.445       73.734        0.074      348.928       28.979      857.416
09/07/2014  18:08:00     -309.948     -141.325      -15.365      147.778      150.944       73.642    21838.434    22784.033     5423.101        8.315        2.502      340.647       84.734        0.062      348.910       28.949      857.402
09/07/2014  18:09:00     -324.719     -181.972      -10.325      208.961      127.706       81.778    43664.898    16308.788     6687.596       10.265        3.333      372.232       94.199        0.064      348.877       28.890      857.391
09/07/2014  18:10:00     -409.277     -116.959      -20.837      177.391      130.326       72.520    31467.410    16984.888     5259.214       11.766        2.686      425.661       80.179        0.035      348.887       28.908      857.403
09/07/2014  18:11:00     -223.812      -92.114        1.146      149.960      113.763       63.224    22488.008    12941.945     3997.317        4.900        1.971      242.027       63.938        0.070      348.918       28.962      857.403
09/07/2014  18:12:00     -240.149     -113.940       -3.955      153.251       85.973       64.362    23485.887     7391.434     4142.499        5.284        1.751      265.808       76.916        0.084      348.896       28.924      857.408
09/07/2014  18:13:00     -370.146      -90.061       -9.751      165.753      120.871       63.259    27473.924    14609.683     4001.693        9.564        2.304      380.945       64.511        0.029      348.880       28.896      857.420
09/07/2014  18:14:00     -187.851     -110.459       22.069      163.932      138.586       80.465    26873.796    19206.191     6474.655        5.026        2.628      217.920       78.794        0.131      348.841       28.828      857.408
09/07/2014  18:15:00     -187.408      -45.007        3.494      129.866       80.599       56.718    16865.167     6496.245     3216.884        3.186        1.329      192.737       46.464        0.058      348.900       28.931      857.412
09/07/2014  18:16:00     -365.734     -214.303       -4.719      217.854      128.229       81.928    47460.435    16442.645     6712.254       12.515        3.531      423.895       94.155        0.049      348.824       28.799      857.421
09/07/2014  18:17:00     -267.866     -203.903       -8.834      141.174      123.873       75.111    19930.059    15344.593     5641.711        7.715        2.046      336.644       67.740        0.040      348.805       28.765      857.422
09/07/2014  18:18:00     -362.732     -164.555      -10.353      191.228      143.698       81.759    36568.192    20648.977     6684.572       11.132        3.195      398.313       88.741        0.050      348.823       28.796      857.430
09/07/2014  18:19:00     -265.589     -155.780        5.800      187.468      134.024       82.292    35144.227    17962.413     6771.993        7.735        2.994      307.904       89.678        0.085      348.787       28.734      857.430
09/07/2014  18:20:00     -278.923     -189.520       -8.285      152.545      147.140       76.631    23269.860    21650.167     5872.249        8.228        2.540      337.218       85.913        0.065      348.771       28.707      857.442
09/07/2014  18:21:00     -261.367     -135.576       -8.577      159.912      123.506       72.483    25571.747    15253.791     5253.773        6.642        2.304      294.437       73.365        0.062      348.755       28.679      857.434
09/07/2014  18:22:00     -167.187      -79.006       -1.087      156.787       96.099       55.924    24582.128     9235.029     3127.522        3.556        1.847      184.915       68.135        0.136      348.754       28.680      857.422
09/07/2014  18:23:00     -231.322     -106.840       -0.631      139.991       72.788       63.609    19597.386     5298.030     4046.050        4.693        1.447      254.804       65.466        0.066      348.742       28.657      857.400
09/07/2014  18:24:00     -252.772     -192.617        8.636      216.211      128.159       72.439    46747.075    16424.607     5247.353        8.473        3.421      317.797       91.453        0.083      348.713       28.609      857.390
09/07/2014  18:25:00     -305.017      -69.220       -1.761      179.452      106.547       67.636    32202.906    11352.306     4574.652        7.297        2.406      312.773       87.045        0.077      348.696       28.577      857.371
09/07/2014  18:26:00     -374.967     -219.300       -6.391      198.878      170.650       87.914    39552.641    29121.590     7728.839       13.256        3.820      434.387       99.670        0.053      348.662       28.517      857.354
09/07/2014  18:27:00     -411.087     -253.929      -13.732      175.249      150.226       91.376    30712.381    22567.793     8349.483       14.763        3.081      483.189       99.904        0.043      348.617       28.439      857.337
09/07/2014  18:28:00     -279.764     -159.781        3.130      163.791      134.706       79.895    26827.441    18145.586     6383.266        7.757        2.568      322.177       76.604        0.057      348.607       28.422      857.368
09/07/2014  18:29:00     -291.509      -95.130      -14.422      189.754      135.242       66.797    36006.684    18290.273     4461.899        7.649        2.938      306.639       79.468        0.067      348.622       28.450      857.382
09/07/2014  18:30:00     -304.489     -194.144      -17.458      179.747      165.465       93.451    32309.065    27378.723     8733.008        9.955        3.421      361.117       76.905        0.045      348.625       28.454      857.393
09/07/2014  18:31:00     -301.763     -258.484      -18.642      135.364      113.453       80.669    18323.547    12871.625     6507.536        9.796        1.885      397.334       80.132        0.041      348.560       28.339      857.394
09/07/2014  18:32:00     -273.099     -191.636      -10.718      148.145      116.051       84.000    21946.951    13467.865     7056.007        7.694        2.124      333.628       76.600        0.053      348.552       28.326      857.404
09/07/2014  18:33:00     -255.791      -64.398       -3.686      125.789      131.766       63.375    15822.923    17362.224     4016.348        5.339        1.860      263.773       57.533        0.048      348.562       28.344      857.400
09/07/2014  18:34:00     -358.861      -10.941      -12.350      113.832      113.764       60.878    12957.620    12942.260     3706.166        7.932        1.480      359.028       46.558        0.017      348.553       28.328      857.395
09/07/2014  18:35:00     -142.057      -43.768        0.659       93.031       75.071       46.395     8654.833     5635.679     2152.526        1.927        0.822      148.646       45.679        0.094      348.595       28.403      857.409
09/07/2014  18:36:00     -237.811      -33.417       -0.449      136.522      131.524       67.045    18638.159    17298.495     4495.089        4.904        2.022      240.148       65.455        0.074      348.581       28.378      857.386
09/07/2014  18:37:00     -240.819      -20.150       -3.500      170.117       93.107       63.333    28939.924     8668.984     4011.021        5.001        2.081      241.661       72.018        0.089      348.541       28.309      857.376
09/07/2014  18:38:00     -239.789     -116.676        3.275      151.508      118.426       54.855    22954.772    14024.712     3009.038        5.555        1.999      266.669       68.196        0.065      348.509       28.254      857.378
09/07/2014  18:39:00     -177.932      -95.114       -8.389       91.678      112.818       53.297     8404.823    12728.011     2840.576        3.237        1.199      201.758       55.225        0.075      348.497       28.234      857.366
09/07/2014  18:40:00     -192.549     -132.495       -6.553       97.784       87.104       52.691     9561.629     7587.175     2776.361        3.730        0.996      233.731       50.982        0.048      348.447       28.148      857.363
09/07/2014  18:41:00      -92.641      -42.490       13.295       86.455       75.932       38.095     7474.512     5765.604     1451.234        1.263        0.735      101.920       39.191        0.148      348.472       28.191      857.367
09/07/2014  18:42:00     -124.722     -129.160        1.697       91.636       74.047       52.697     8397.073     5482.942     2776.942        2.445        0.833      179.549       55.123        0.094      348.436       28.127      857.373
09/07/2014  18:43:00     -125.252      -89.606       13.858      117.843       82.378       56.569    13887.051     6786.099     3200.014        2.389        1.194      154.004       61.616        0.160      348.445       28.144      857.349
09/07/2014  18:44:00     -286.915      -96.521       -0.591      118.569       90.141       51.231    14058.545     8125.490     2624.570        5.822        1.240      302.715       50.779        0.028      348.390       28.048      857.340
09/07/2014  18:45:00     -264.632      -68.981       -2.652      199.498      130.612       77.507    39799.525    17059.518     6007.330        6.882        3.143      273.475       94.691        0.120      348.387       28.044      857.321
09/07/2014  18:46:00     -228.445     -188.295       -3.744      152.309      152.653       81.817    23198.179    23302.897     6694.076        7.042        2.660      296.044       92.756        0.098      348.327       27.938      857.340
09/07/2014  18:47:00     -308.355      -96.227       -9.370      108.324      133.836       56.729    11734.100    17912.108     3218.174        6.864        1.643      323.021       57.043        0.031      348.325       27.934      857.364
09/07/2014  18:48:00     -182.574      -61.863       14.248      148.854       90.756       64.675    22157.366     8236.606     4182.864        3.596        1.729      192.770       75.970        0.155      348.329       27.943      857.369
09/07/2014  18:49:00     -281.743     -186.019        6.139      195.777      149.431       83.817    38328.682    22329.728     7025.269        9.084        3.384      337.612       88.097        0.068      348.297       27.886      857.359
09/07/2014  18:50:00     -162.837        0.543        1.047      117.266       87.469       57.727    13751.380     7650.838     3332.397        2.562        1.237      162.838       55.908        0.118      348.246       27.801      857.377
09/07/2014  18:51:00     -197.552      -72.162      -10.207      111.013       74.282       52.187    12323.891     5517.812     2723.457        3.245        1.028      210.319       45.428        0.047      348.311       27.910      857.384
09/07/2014  18:52:00     -370.197      -64.882      -29.907      222.103      144.048       86.649    49329.758    20749.862     7508.130       10.986        3.879      375.840       99.764        0.070      348.261       27.824      857.376
09/07/2014  18:53:00     -161.108      -99.138       27.992      172.750      140.050       85.958    29842.491    19613.952     7388.751        4.670        2.842      189.167       95.730        0.256      348.223       27.759      857.376
09/07/2014  18:54:00     -321.238     -146.113      -17.609      131.753      119.010       68.467    17358.960    14163.415     4687.697        8.053        1.811      352.906       51.517        0.021      348.233       27.774      857.370
09/07/2014  18:55:00     -262.541      -85.927        7.804      161.989      129.130       83.431    26240.463    16674.680     6960.786        6.312        2.494      276.245       83.299        0.091      348.209       27.734      857.388
09/07/2014  18:56:00     -323.776     -111.462       -3.520      174.511      132.274       73.663    30453.994    17496.332     5426.264        8.531        2.669      342.425       93.681        0.075      348.183       27.690      857.382
09/07/2014  18:57:00     -341.291     -187.976      -11.335      149.982      162.910       74.520    22494.495    26539.797     5553.201       10.326        2.729      389.634       77.910        0.040      348.168       27.664      857.384
09/07/2014  18:58:00     -393.134     -107.048      -28.326      113.956      107.690       51.747    12985.982    11597.195     2677.804        9.703        1.363      407.448       51.178        0.016      348.151       27.635      857.378
09/07/2014  18:59:00     -330.984       -2.814       -8.775      154.038      152.325       72.204    23727.725    23202.934     5213.445        8.088        2.607      330.996       75.464        0.052      348.127       27.594      857.365
09/07/2014  19:00:00     -192.700     -103.078        5.658      137.118      137.290       66.858    18801.364    18848.455     4469.999        4.495        2.106      218.537       62.802        0.083      348.094       27.535      857.361
09/07/2014  19:01:00     -213.770      -91.002       -8.684      142.318      120.648       62.672    20254.432    14555.826     3927.804        4.639        1.937      232.334       75.737        0.106      348.065       27.485      857.366
09/07/2014  19:02:00     -321.800      -70.703      -31.253      122.227       79.469       53.020    14939.374     6315.361     2811.118        6.679        1.203      329.476       59.051        0.032      348.063       27.482      857.381
09/07/2014  19:03:00     -247.178      -84.876       -5.340      122.965      103.111       50.458    15120.466    10631.856     2546.019        4.831        1.415      261.345       49.806        0.036      348.040       27.442      857.388
09/07/2014  19:04:00     -275.921      -75.934       -1.677      102.350       82.660       56.514    10475.514     6832.680     3193.794        5.120        1.025      286.178       43.995        0.024      348.028       27.420      857.404
09/07/2014  19:05:00     -287.887      -28.735      -32.362      133.888      103.919       58.628    17926.056    10799.077     3437.270        5.845        1.608      289.317       64.812        0.050      347.998       27.369      857.412
09/07/2014  19:06:00     -182.775      -30.502       -4.901       92.615       74.548       37.604     8577.587     5557.419     1414.086        2.495        0.777      185.302       40.740        0.048      347.997       27.370      857.406
09/07/2014  19:07:00     -216.098       -7.047      -15.741      109.342       81.788       57.632    11955.637     6689.282     3321.488        3.448        1.098      216.213       49.888        0.053      347.985       27.347      857.395
09/07/2014  19:08:00     -244.403      -38.412      -14.438       76.923       82.809       41.355     5917.211     6857.338     1710.269        3.795        0.724      247.403       36.944        0.022      347.891       27.185      857.381
09/07/2014  19:09:00     -319.941     -113.055      -29.760      174.203       86.976       54.119    30346.847     7564.868     2928.860        7.843        2.042      339.328       69.083        0.041      347.873       27.153      857.379
09/07/2014  19:10:00     -148.828       -1.680        9.763      121.782       97.239       65.045    14830.786     9455.395     4230.888        2.538        1.426      148.838       64.234        0.186      347.818       27.061      857.386
09/07/2014  19:11:00     -156.516      -25.464        1.694      117.140       77.653       54.219    13721.750     6030.018     2939.728        2.392        1.135      158.574       60.513        0.146      347.810       27.047      857.378
09/07/2014  19:12:00     -191.220      -17.114        7.661      115.806       78.092       47.987    13411.120     6098.338     2302.722        2.936        1.091      191.984       57.429        0.089      347.760       26.959      857.374
09/07/2014  19:13:00     -191.686       30.062       -5.518      101.383       63.445       37.683    10278.521     4025.288     1420.045        2.670        0.786      194.029       40.678        0.044      347.746       26.939      857.393
09/07/2014  19:14:00     -161.573     -102.615       11.753      124.131      119.307       64.244    15408.578    14234.194     4127.340        3.527        1.689      191.405       71.167        0.138      347.813       27.051      857.387
09/07/2014  19:15:00     -139.279      -53.432       10.105       91.424       82.078       53.429     8358.298     6736.805     2854.635        2.015        0.897      149.177       55.877        0.140      347.753       26.949      857.402
09/07/2014  19:16:00     -275.965      -91.491      -24.262       97.237       75.387       46.902     9455.095     5683.185     2199.825        5.122        0.867      290.736       40.399        0.019      347.757       26.955      857.407
09/07/2014  19:17:00     -135.526      -48.496        6.516       93.215       65.331       45.972     8689.009     4268.109     2113.405        1.791        0.754      143.942       49.629        0.119      347.695       26.848      857.407
09/07/2014  19:18:00     -239.879      -45.468      -10.049      110.633       65.358       46.179    12239.737     4271.705     2132.490        3.917        0.932      244.150       49.680        0.041      347.721       26.893      857.415
09/07/2014  19:19:00     -157.609      -58.059        0.164      128.122       89.588       61.981    16415.306     8026.094     3841.607        2.824        1.414      167.963       53.064        0.100      347.726       26.901      857.407
09/07/2014  19:20:00     -257.015      -68.933       -2.990      132.252       97.970       49.155    17490.722     9598.179     2416.180        5.016        1.475      266.099       51.824        0.038      347.781       26.995      857.413
09/07/2014  19:21:00     -138.130      -57.334        3.940      100.680       88.786       48.859    10136.479     7882.988     2387.219        2.139        1.020      149.556       47.963        0.103      347.673       26.810      857.408
09/07/2014  19:22:00     -190.550      -97.120       -4.033       89.600       73.249       43.561     8028.192     5365.414     1897.602        3.052        0.765      213.873       50.799        0.056      347.670       26.805      857.400
09/07/2014  19:23:00      -79.230      -27.386       11.569       81.536       67.587       40.571     6648.053     4568.025     1646.002        1.001        0.643       83.829       44.985        0.288      347.602       26.691      857.388
09/07/2014  19:24:00     -279.364      -79.094      -18.912      102.474      120.258       54.812    10500.915    14461.947     3004.369        5.631        1.398      290.345       52.326        0.032      347.736       26.918      857.381
09/07/2014  19:25:00      -96.351      -44.251       15.648      105.532       94.050       46.360    11136.989     8845.434     2149.289        1.681        1.107      106.027       49.321        0.216      347.652       26.774      857.360
09/07/2014  19:26:00     -126.473      -46.457      -11.397       89.702      123.918       47.071     8046.366    15355.736     2215.705        2.195        1.281      134.736       46.763        0.120      347.686       26.835      857.357
09/07/2014  19:27:00     -186.045      -17.218       -1.904      141.307       60.750       44.124    19967.596     3690.518     1946.891        3.025        1.280      186.840       34.115        0.033      347.657       26.783      857.371
09/07/2014  19:28:00     -184.142     -130.745       -9.033      143.714       73.654       57.166    20653.638     5424.985     3267.913        4.021        1.467      225.837       62.665        0.077      347.658       26.784      857.373
09/07/2014  19:29:00     -105.752      -82.992       10.019      100.753      101.071       61.720    10151.198    10215.431     3809.298        2.117        1.209      134.429       62.640        0.217      347.569       26.630      857.393
09/07/2014  19:30:00      -63.211      -38.683        5.691       76.246       49.590       37.056     5813.438     2459.158     1373.126        0.758        0.482       74.108       40.570        0.300      347.527       26.562      857.430
09/07/2014  19:31:00     -161.628     -124.126      -14.551      154.374       89.650       48.241    23831.325     8037.125     2327.235        3.796        1.710      203.791       58.237        0.082      347.629       26.736      857.464
09/07/2014  19:32:00     -265.856     -195.446       -9.032      104.884       97.841       55.164    11000.580     9572.828     3043.119        6.628        1.181      329.967       57.439        0.030      347.661       26.789      857.447
09/07/2014  19:33:00      -83.217     -103.223       21.903       81.563      118.716       39.869     6652.457    14093.417     1589.524        2.019        1.117      132.590       51.829        0.153      347.645       26.762      857.455
09/07/2014  19:34:00     -232.074      -58.180       -9.463       83.902       71.711       46.555     7039.513     5142.427     2167.333        3.584        0.717      239.255       48.529        0.041      347.572       26.635      857.482
09/07/2014  19:35:00     -111.326      -47.436        8.303      121.860       80.604       57.059    14849.938     6497.005     3255.773        1.965        1.230      121.011       62.751        0.269      347.498       26.510      857.482
09/07/2014  19:36:00     -151.959      -57.099      -13.634       89.472       61.428       38.781     8005.255     3773.352     1503.930        1.991        0.664      162.332       43.482        0.072      347.540       26.579      857.494
09/07/2014  19:37:00     -192.856      -68.349        1.668      143.953       92.131       43.094    20722.577     8488.118     1857.078        3.646        1.553      204.609       52.639        0.066      347.445       26.416      857.504
09/07/2014  19:38:00     -175.874      -54.156        4.897      116.105       93.659       51.994    13480.261     8771.965     2703.342        2.942        1.248      184.023       64.091        0.121      347.468       26.457      857.509
09/07/2014  19:39:00     -361.205      -17.349      -13.170      170.779       85.901       70.393    29165.450     7378.902     4955.187        8.621        2.075      361.622       81.574        0.051      347.456       26.436      857.531
09/07/2014  19:40:00     -320.778      -25.178       -7.021      149.770       77.382       61.805    22431.036     5988.044     3819.853        6.791        1.612      321.765       72.159        0.050      347.437       26.401      857.535
09/07/2014  19:41:00     -195.957      -88.371       -8.993      129.650      107.940       47.695    16809.235    11651.056     2274.855        3.851        1.537      214.962       52.528        0.060      347.391       26.325      857.540
09/07/2014  19:42:00     -317.888     -105.119      -16.893      125.659       84.631       52.068    15790.145     7162.470     2711.113        6.902        1.283      334.818       50.834        0.023      347.401       26.339      857.545
09/07/2014  19:43:00     -229.747      -87.369       -7.406      142.607       89.910       60.248    20336.702     8083.866     3629.867        4.626        1.603      245.799       65.853        0.072      347.349       26.252      857.550
09/07/2014  19:44:00     -227.621      -48.248        1.815      102.362       87.642       57.800    10478.012     7681.095     3340.854        3.782        1.075      232.679       54.546        0.055      347.332       26.223      857.570
09/07/2014  19:45:00     -256.234      -98.484       -4.074      101.473       69.505       45.072    10296.807     4830.931     2031.501        4.626        0.858      274.508       46.619        0.029      347.341       26.235      857.591
09/07/2014  19:46:00     -245.873      -44.478       -8.393      101.339      105.183       52.441    10269.621    11063.451     2750.101        4.329        1.204      249.863       51.322        0.042      347.313       26.188      857.617
09/07/2014  19:47:00     -235.519      -49.583       -5.752       94.359       73.640       47.336     8903.539     5422.847     2240.711        3.726        0.828      240.682       47.070        0.038      347.314       26.191      857.628
09/07/2014  19:48:00     -244.126      -64.455       -2.937      105.542      136.697       48.748    11139.143    18686.197     2376.413        4.798        1.610      252.491       50.364        0.040      347.328       26.213      857.631
09/07/2014  19:49:00     -318.066      -45.484      -12.473      143.262       97.456       64.377    20524.001     9497.700     4144.383        6.877        1.708      321.302       67.532        0.044      347.344       26.241      857.627
09/07/2014  19:50:00     -254.186      -46.247       -7.502      128.249      100.302       49.215    16447.761    10060.419     2422.070        4.786        1.447      258.359       50.815        0.039      347.302       26.170      857.636
09/07/2014  19:51:00     -179.547      -46.604        0.672      113.766       66.520       55.569    12942.680     4424.919     3087.877        2.743        1.023      185.497       53.328        0.083      347.245       26.073      857.647
09/07/2014  19:52:00     -291.382      -68.257      -18.295      133.093      104.807       60.297    17713.771    10984.486     3635.701        6.111        1.617      299.270       67.442        0.051      347.294       26.155      857.642
09/07/2014  19:53:00     -212.995       -5.709       -6.672      119.969       73.130       49.245    14392.448     5348.029     2425.031        3.380        1.108      213.071       60.407        0.080      347.240       26.063      857.651
09/07/2014  19:54:00     -205.113      -42.425       -0.119      117.844       96.285       52.235    13887.202     9270.748     2728.488        3.487        1.294      209.455       48.233        0.053      347.233       26.050      857.661
09/07/2014  19:55:00     -282.372      -38.483       -7.320       96.081       69.712       52.864     9231.518     4859.793     2794.573        4.907        0.844      284.982       48.846        0.029      347.248       26.076      857.658
09/07/2014  19:56:00     -334.417      -82.795      -11.876      101.174       77.412       51.448    10236.202     5992.576     2646.913        6.885        0.944      344.513       49.148        0.020      347.243       26.068      857.656
09/07/2014  19:57:00     -279.469      -38.088      -13.110      139.617       86.305       53.487    19492.962     7448.476     2860.814        5.476        1.490      282.052       59.939        0.045      347.203       25.999      857.661
09/07/2014  19:58:00     -201.171      -26.055       -5.651      138.332       75.428       42.549    19135.703     5689.345     1810.449        3.390        1.332      202.852       40.031        0.039      347.199       25.992      857.661
09/07/2014  19:59:00     -176.471      -74.816       13.222      152.936      102.136       71.592    23389.472    10431.674     5125.382        3.792        1.947      191.675       84.248        0.193      347.193       25.982      857.657
09/07/2014  20:00:00      -86.027      -51.067        3.026       78.184       91.922       50.176     6112.774     8449.698     2517.666        1.355        0.854      100.043       34.429        0.118      347.141       25.896      857.654
09/07/2014  20:01:00     -166.847      -33.750      -10.863       60.032       67.821       35.135     3603.830     4599.736     1234.473        1.926        0.472      170.226       26.981        0.025      347.095       25.815      857.669
09/07/2014  20:02:00     -160.614      -76.216        0.449      146.273       72.366       43.073    21395.818     5236.868     1855.259        3.004        1.424      177.780       59.275        0.111      347.086       25.800      857.675
09/07/2014  20:03:00     -370.771     -103.798       -5.305      132.170      120.976       60.970    17468.807    14635.287     3717.397        9.204        1.791      385.026       67.829        0.031      347.118       25.853      857.680
09/07/2014  20:04:00     -302.764      -97.780       -7.872      134.721      116.994       60.866    18149.813    13687.515     3704.610        6.841        1.777      318.161       52.596        0.027      347.107       25.833      857.714
09/07/2014  20:05:00     -221.436      -56.849       -9.829       84.492       82.885       44.049     7138.907     6869.973     1940.342        3.415        0.797      228.617       29.557        0.017      347.042       25.721      857.736
09/07/2014  20:06:00     -344.679      -85.302      -20.664      155.410      122.917       62.044    24152.245    15108.676     3849.433        8.480        2.156      355.077       64.603        0.033      347.135       25.880      857.730
09/07/2014  20:07:00     -395.311      -99.087      -27.993      118.766       91.738       55.365    14105.362     8415.836     3065.336        9.623        1.279      407.541       47.618        0.014      347.169       25.939      857.738
09/07/2014  20:08:00     -278.677      -63.077       -1.595      113.511      104.632       50.931    12884.688    10947.801     2593.939        5.403        1.321      285.726       53.755        0.035      347.116       25.849      857.744
09/07/2014  20:09:00     -217.854      -94.000        2.632      152.597      130.427       70.044    23285.981    17011.300     4906.114        5.075        2.260      237.269       77.331        0.106      347.155       25.916      857.741
09/07/2014  20:10:00     -156.386      -91.536        9.197      105.786       89.303       57.114    11190.782     7975.088     3262.029        2.767        1.121      181.205       51.738        0.082      347.091       25.808      857.750
09/07/2014  20:11:00     -124.181      -32.948       -3.124       78.721       46.465       33.927     6197.020     2158.968     1151.051        1.301        0.475      128.478       32.848        0.065      347.091       25.808      857.749
09/07/2014  20:12:00     -195.146        6.959      -15.494      103.443       67.391       44.497    10700.516     4541.578     1979.980        2.779        0.861      195.270       39.213        0.040      347.046       25.729      857.779
09/07/2014  20:13:00     -155.734      -48.051       -1.739       62.336       55.646       34.218     3885.796     3096.468     1170.871        1.736        0.408      162.979       28.863        0.031      346.979       25.615      857.797
09/07/2014  20:14:00     -239.120      -65.705       -4.626       88.559       71.842       45.784     7842.733     5161.212     2096.165        3.831        0.755      247.983       48.793        0.039      347.000       25.647      857.830
09/07/2014  20:15:00     -194.276      -65.018      -10.421       60.911       52.111       34.834     3710.104     2715.593     1213.400        2.486        0.382      204.867       27.994        0.019      346.959       25.579      857.838
09/07/2014  20:16:00     -305.664      -81.807      -24.220      115.212       82.958       47.185    13273.697     6882.001     2226.426        6.154        1.119      316.422       37.991        0.014      347.033       25.706      857.845
09/07/2014  20:17:00     -275.607      -21.900      -10.459      155.107       88.295       54.539    24058.315     7795.942     2974.539        5.568        1.741      276.476       65.478        0.056      347.017       25.679      857.849
09/07/2014  20:18:00     -164.534      -81.225        4.200      160.625      114.489       63.096    25800.352    13107.793     3981.098        3.828        2.144      183.491       76.773        0.175      346.984       25.622      857.845
09/07/2014  20:19:00     -176.635      -85.973       -1.503       91.339       64.995       44.379     8342.842     4224.365     1969.516        2.656        0.727      196.447       42.617        0.047      346.988       25.628      857.860
09/07/2014  20:20:00     -303.111      -29.155      -13.239      150.450       98.973       58.813    22635.193     9795.656     3458.928        6.439        1.794      304.510       62.100        0.042      347.061       25.754      857.847
09/07/2014  20:21:00     -184.458        1.099       36.377      175.661      112.151       75.171    30856.646    12577.895     5650.625        4.221        2.454      184.462       93.924        0.259      346.954       25.571      857.861
09/07/2014  20:22:00     -111.656      -34.601        0.123       92.558       82.720       60.849     8566.893     6842.654     3702.614        1.639        0.956      116.895       57.183        0.239      346.981       25.618      857.856
09/07/2014  20:23:00     -216.325      -44.386       -0.434      107.171       80.859       35.042    11485.531     6538.137     1227.933        3.401        0.963      220.832       34.729        0.025      347.006       25.659      857.876
09/07/2014  20:24:00     -263.423     -148.300       -2.956      133.942      105.695       66.295    17940.442    11171.331     4395.020        6.244        1.675      302.299       70.132        0.054      347.036       25.710      857.859
09/07/2014  20:25:00     -168.679      -52.663        7.668      101.394       69.782       43.711    10280.752     4869.595     1910.633        2.417        0.853      176.709       54.060        0.094      346.971       25.600      857.875
09/07/2014  20:26:00     -154.096      -39.491        3.360      116.159       80.201       36.180    13492.814     6432.126     1309.000        2.327        1.062      159.075       16.757        0.011      346.891       25.461      857.884
09/07/2014  20:27:00     -194.880      -48.893      -11.990      117.571       72.887       50.610    13822.985     5312.513     2561.372        3.110        1.085      200.919       36.038        0.032      346.915       25.503      857.899
09/07/2014  20:28:00     -321.827      -31.067      -16.275      125.845      107.678       58.134    15837.007    11594.495     3379.574        6.780        1.541      323.323       54.521        0.028      346.974       25.604      857.918
09/07/2014  20:29:00     -204.901      -60.701        2.059      110.604       93.805       47.861    12233.206     8799.428     2290.650        3.449        1.166      213.703       54.573        0.065      346.892       25.463      857.939
09/07/2014  20:30:00      -87.033      -41.944        5.855       83.354       58.020       45.082     6947.948     3366.352     2032.367        1.086        0.617       96.613       43.539        0.203      346.839       25.375      857.959
09/07/2014  20:31:00     -252.099      -58.049      -10.307      101.984       65.860       42.600    10400.742     4337.547     1814.764        4.179        0.828      258.696       49.935        0.037      346.981       25.616      857.970
09/07/2014  20:32:00     -256.243      -52.405       -5.137      103.285      104.711       50.887    10667.845    10964.338     2589.525        4.632        1.211      261.547       41.707        0.025      346.931       25.531      857.994
09/07/2014  20:33:00     -221.648      -82.268       -2.936      108.517       84.409       50.036    11775.970     7124.885     2503.621        3.865        1.070      236.423       54.335        0.053      346.829       25.354      858.013
09/07/2014  20:34:00     -181.185      -80.751        6.055      111.752       72.818       49.098    12488.486     5302.476     2410.639        2.979        1.010      198.365       53.858        0.074      346.836       25.367      858.049
09/07/2014  20:35:00     -174.051      -58.221        6.083      107.345       56.738       52.957    11522.934     3219.196     2804.478        2.563        0.877      183.531       56.806        0.096      346.877       25.437      858.068
09/07/2014  20:36:00     -104.308      -46.410       16.787       72.287       72.260       39.674     5225.360     5221.477     1574.044        1.267        0.601      114.167       40.940        0.129      346.804       25.314      858.082
09/07/2014  20:37:00     -168.826      -65.521       -2.841      124.954       65.631       41.063    15613.492     4307.386     1686.209        2.720        1.080      181.094       57.244        0.100      346.886       25.453      858.100
09/07/2014  20:38:00     -196.831      -72.477        3.253      170.028      144.320       60.124    28909.657    20828.363     3614.909        4.867        2.668      209.751       70.890        0.114      346.854       25.399      858.112
09/07/2014  20:39:00     -212.175     -155.141      -12.266      108.152       90.453       63.534    11696.842     8181.756     4036.598        4.657        1.196      262.844       66.418        0.064      346.855       25.399      858.129
09/07/2014  20:40:00     -106.509      -74.724       -0.804       82.949       77.554       42.195     6880.521     6014.632     1780.378        1.580        0.734      130.106       49.076        0.142      346.806       25.319      858.140
09/07/2014  20:41:00     -175.199      -73.532      -10.332       92.911       91.464       55.917     8632.525     8365.682     3126.723        2.816        1.006      190.004       46.697        0.060      346.831       25.359      858.153
09/07/2014  20:42:00      -57.545        2.117       -0.117       59.373       46.498       32.923     3525.200     2162.106     1083.920        0.504        0.339       57.584       39.088        0.461      346.729       25.185      858.163
09/07/2014  20:43:00      -64.522      -59.251       11.225       74.589       54.287       38.697     5563.547     2947.059     1497.434        0.890        0.500       87.600       39.950        0.208      346.727       25.183      858.172
09/07/2014  20:44:00     -113.175      -82.983        2.885       79.445       45.950       36.833     6311.492     2111.391     1356.652        1.474        0.489      140.338       44.126        0.099      346.677       25.095      858.201
09/07/2014  20:45:00      -74.345      -51.330        2.817       61.713       55.014       29.082     3808.462     3026.569      845.761        0.792        0.384       90.344       32.926        0.133      346.681       25.104      858.200
09/07/2014  20:46:00     -101.414       16.367       -7.821       62.237       31.653       21.913     3873.457     1001.906      480.187        0.798        0.268      102.726       21.635        0.044      346.733       25.194      858.196
09/07/2014  20:47:00     -250.859      -36.589      -20.717       86.617       76.054       32.693     7502.578     5784.236     1068.831        3.952        0.718      253.514       36.949        0.021      346.658       25.059      858.214
09/07/2014  20:48:00     -181.825      -56.650       -5.913       72.036       72.805       40.425     5189.137     5300.553     1634.201        2.421        0.606      190.446       37.576        0.039      346.584       24.935      858.214
09/07/2014  20:49:00     -219.651      -77.680       -8.680       80.739       76.823       33.228     6518.721     5901.755     1104.072        3.394        0.676      232.982       28.740        0.015      346.565       24.901      858.234
09/07/2014  20:50:00     -197.769      -53.476      -19.920       73.912       72.754       46.557     5462.977     5293.100     2167.563        2.764        0.646      204.871       37.582        0.034      346.595       24.953      858.245
09/07/2014  20:51:00     -179.942      -52.333        5.173      101.419       80.334       54.122    10285.776     6453.571     2929.174        2.740        0.983      187.398       46.026        0.060      346.539       24.857      858.272
09/07/2014  20:52:00     -167.370       -6.284      -13.948       69.299       56.758       37.391     4802.338     3221.439     1398.068        1.883        0.471      167.488       28.711        0.029      346.544       24.866      858.310
09/07/2014  20:53:00     -235.113        7.845      -24.084      104.765       64.429       40.811    10975.705     4151.037     1665.540        3.635        0.840      235.243       43.398        0.034      346.745       25.210      858.309
09/07/2014  20:54:00     -148.049      -50.341        1.803       67.506       47.360       36.332     4557.028     2242.967     1319.986        1.629        0.406      156.374       32.396        0.043      346.614       24.987      858.333
09/07/2014  20:55:00     -128.492      -45.860        0.765       49.159       35.939       25.838     2416.560     1291.633      667.593        1.149        0.219      136.431       25.491        0.035      346.614       24.987      858.349
09/07/2014  20:56:00      -50.661      -32.390       16.784       65.872       34.193       28.542     4339.133     1169.188      814.661        0.511        0.316       60.131       39.127        0.423      346.493       24.780      858.360
09/07/2014  20:57:00      -77.849      -27.952        1.364       56.545       30.450       22.754     3197.360      927.213      517.753        0.574        0.232       82.715       27.764        0.113      346.583       24.935      858.383
09/07/2014  20:58:00      -92.318      -50.601       10.825       54.338       32.772       30.082     2952.631     1073.988      904.933        0.807        0.247      105.276       34.011        0.104      346.578       24.925      858.413
09/07/2014  20:59:00      -61.380      -69.572       -2.707       44.159       41.286       20.862     1950.030     1704.548      435.216        0.635        0.204       92.778       16.221        0.031      346.600       24.963      858.432
09/07/2014  21:00:00      -90.828      -42.606       -4.171       42.108       35.394       22.370     1773.064     1252.712      500.418        0.680        0.176      100.324       14.280        0.020      346.536       24.853      858.455
09/07/2014  21:01:00     -122.165      -61.758       -0.191       47.833       37.940       25.499     2288.025     1439.461      650.194        1.156        0.219      136.888       21.742        0.025      346.511       24.810      858.485
09/07/2014  21:02:00     -133.911      -15.074       -6.118       37.360       46.157       23.531     1395.765     2130.458      553.731        1.114        0.204      134.757       14.482        0.012      346.520       24.827      858.486
09/07/2014  21:03:00     -121.369      -35.428        1.844       41.052       38.046       24.019     1685.242     1447.534      576.922        0.985        0.185      126.434       21.255        0.028      346.404       24.627      858.488
09/07/2014  21:04:00     -140.077      -38.754       -2.219       56.971       41.163       27.811     3245.716     1694.412      773.430        1.342        0.286      145.339       23.895        0.027      346.363       24.556      858.501
09/07/2014  21:05:00     -123.895      -45.563       -0.921       36.141       26.484       20.145     1306.138      701.408      405.818        0.992        0.121      132.007       19.820        0.023      346.419       24.653      858.493
09/07/2014  21:06:00     -114.214      -31.598       -1.354       60.077       40.656       23.390     3609.269     1652.880      547.093        0.993        0.290      118.504       28.566        0.058      346.401       24.622      858.477
09/07/2014  21:07:00     -162.714      -34.075       -5.337       68.333       54.608       27.776     4669.354     2981.994      771.499        1.804        0.421      166.244       28.545        0.029      346.454       24.710      858.488
09/07/2014  21:08:00     -234.269      -81.535       -8.699       56.861       52.190       36.024     3233.122     2723.763     1297.733        3.443        0.363      248.052       36.643        0.022      346.541       24.857      858.496
09/07/2014  21:09:00     -181.921      -64.712      -13.110       39.289       37.591       23.241     1543.655     1413.047      540.163        2.048        0.175      193.088       18.321        0.009      346.409       24.635      858.513
09/07/2014  21:10:00     -160.905      -86.900       -6.950       57.118       49.487       30.204     3262.511     2448.996      912.292        2.006        0.331      182.872       31.576        0.030      346.364       24.558      858.534
09/07/2014  21:11:00     -184.005      -72.212       -1.945       70.587       56.105       34.576     4982.497     3147.822     1195.528        2.420        0.466      197.667       34.112        0.030      346.284       24.417      858.552
09/07/2014  21:12:00      -89.009      -75.651        4.361       64.716       59.882       35.554     4188.168     3585.823     1264.075        1.135        0.452      116.815       36.214        0.096      346.233       24.333      858.560
09/07/2014  21:13:00     -160.359      -74.226       -2.138       52.070       38.480       28.302     2711.260     1480.688      801.011        1.811        0.250      176.705       24.361        0.019      346.292       24.434      858.590
09/07/2014  21:14:00     -136.126      -84.533       -1.761       42.533       36.327       28.676     1809.093     1319.657      822.334        1.481        0.198      160.238       24.409        0.023      346.274       24.404      858.614
09/07/2014  21:15:00     -112.814      -45.281       -2.188       51.207       30.163       20.746     2622.136      909.805      430.391        0.937        0.198      121.563       20.040        0.027      346.300       24.448      858.627
09/07/2014  21:16:00      -25.865      -16.736        7.617       31.388       16.943       15.846      985.228      287.057      251.092        0.126        0.076       30.808       15.026        0.238      346.227       24.323      858.648
09/07/2014  21:17:00        8.467      -49.942       -2.382       15.362       14.906       12.478      235.993      222.197      155.712        0.159        0.031       50.654        5.940        0.014      346.530       24.845      858.662
09/07/2014  21:18:00        5.538      -55.484      -13.210       13.606       13.633       10.107      185.128      185.859      102.153        0.188        0.024       55.760        8.287        0.022      346.524       24.833      858.654
09/07/2014  21:19:00       -1.297      -25.058        3.130       14.332       40.241       16.040      205.402     1619.361      257.271        0.136        0.104       25.091       13.250        0.279      346.309       24.464      858.662
09/07/2014  21:20:00       26.668      -43.276        3.384       49.327       50.432       35.645     2433.167     2543.412     1270.574        0.442        0.312       50.833       32.764        0.415      346.007       23.945      858.676
09/07/2014  21:21:00      137.409     -122.384      -21.973       40.133       36.628       21.428     1610.626     1341.609      459.138        1.888        0.171      184.009       18.504        0.010      346.078       24.067      858.674
09/07/2014  21:22:00       99.053      -49.144       14.349       80.341       88.810       58.455     6454.710     7887.297     3417.008        1.509        0.888      110.575       70.607        0.408      346.223       24.314      858.692
09/07/2014  21:23:00       -1.525       52.260       87.013       40.710       64.537       45.051     1657.329     4164.997     2029.621        0.908        0.393       52.282       41.149        0.619      346.467       24.733      858.716
09/07/2014  21:24:00       37.644      -11.774       44.760       58.887      111.481       68.131     3467.666    12428.081     4641.834        1.204        1.027       39.443       84.670        4.608      346.675       25.093      858.743
09/07/2014  21:25:00       32.428      -89.911       -9.962       36.269       42.870       29.049     1315.435     1837.860      843.844        0.662        0.200       95.581       20.309        0.045      346.581       24.932      858.771
09/07/2014  21:26:00       36.897      -25.592        1.744       47.447       39.854       23.025     2251.214     1588.337      530.161        0.319        0.218       44.904       26.000        0.335      346.624       25.006      858.788
09/07/2014  21:27:00       55.681      -14.365       12.209       38.642       40.744       26.067     1493.202     1660.078      679.500        0.364        0.192       57.504       22.164        0.149      346.632       25.020      858.788
09/07/2014  21:28:00       21.990       30.496       23.481       31.672       31.344       18.316     1003.116      982.439      335.466        0.214        0.116       37.597       11.370        0.091      346.324       24.490      858.792
09/07/2014  21:29:00       70.088       39.029       32.413       58.268       33.655       25.420     3395.123     1132.627      646.198        0.633        0.259       80.222       28.839        0.129      346.547       24.873      858.802
09/07/2014  21:30:00       36.256       37.588       24.293       36.281       29.023       22.607     1316.294      842.341      511.075        0.299        0.133       52.224       19.729        0.143      346.516       24.820      858.799
09/07/2014  21:31:00        3.813        2.521       10.490       15.286       20.482       17.287      233.669      419.525      298.835        0.054        0.048        4.571       16.547       13.103      346.439       24.686      858.803
09/07/2014  21:32:00       15.081       -4.125       14.965       31.053       27.643       11.982      964.297      764.121      143.569        0.117        0.094       15.635        9.862        0.398      346.392       24.606      858.813
09/07/2014  21:33:00       48.498       30.549       13.402       19.625       21.218       14.993      385.132      450.197      224.779        0.226        0.053       57.318        7.956        0.019      346.380       24.586      858.807
09/07/2014  21:34:00       47.552       25.673       14.893       28.307       26.556       18.474      801.301      705.215      341.300        0.249        0.092       54.040       13.742        0.065      346.195       24.268      858.804
09/07/2014  21:35:00       -4.549       27.856       38.121       18.677       23.464       15.355      348.824      550.572      235.787        0.169        0.057       28.225       12.191        0.187      346.204       24.283      858.808
09/07/2014  21:36:00      -13.136        8.654       24.667       13.408       22.376       19.349      179.764      500.683      374.377        0.096        0.053       15.730       16.494        1.099      346.406       24.631      858.810
09/07/2014  21:37:00      -10.104      -39.979       -0.426       17.028       24.661       11.016      289.943      608.187      121.357        0.136        0.051       41.236       12.725        0.095      346.154       24.199      858.809
09/07/2014  21:38:00      -54.504      -38.754      -15.552       15.824       21.449        9.883      250.407      460.050       97.678        0.276        0.040       66.877        8.862        0.018      346.140       24.175      858.814
09/07/2014  21:39:00      -64.104      -39.433       -4.999       21.722       17.201       13.613      471.844      295.886      185.301        0.332        0.048       75.262        4.600        0.004      346.089       24.085      858.837
09/07/2014  21:40:00      -58.411      -48.522       -3.961       20.432       19.026       15.043      417.458      361.980      226.285        0.339        0.050       75.936       11.321        0.022      345.903       23.767      858.843
09/07/2014  21:41:00      -75.879      -50.108      -10.217       21.731       17.780       15.758      472.224      316.124      248.301        0.470        0.052       90.931       13.899        0.023      345.934       23.819      858.845
09/07/2014  21:42:00      -83.635      -98.786       -4.241       44.832       54.728       22.889     2009.905     2995.194      523.926        1.115        0.276      129.435       21.244        0.027      346.261       24.381      858.852
09/07/2014  21:43:00     -120.033     -111.963      -15.816       52.715       64.492       22.339     2778.857     4159.177      499.013        1.731        0.372      164.145       23.540        0.021      346.624       25.006      858.840
09/07/2014  21:44:00     -112.580     -130.348       -5.312       59.226       80.678       27.358     3507.718     6509.018      748.438        2.023        0.538      172.235       29.184        0.029      346.524       24.834      858.822
09/07/2014  21:45:00      -40.573     -118.164        2.689       39.330       50.986       28.193     1546.882     2599.611      794.834        1.028        0.247      124.935       23.948        0.037      346.421       24.657      858.822
09/07/2014  21:46:00      -32.307      -63.507       -6.070       34.432       49.678       19.294     1185.561     2467.910      372.265        0.457        0.201       71.252       19.859        0.078      346.323       24.489      858.814
09/07/2014  21:47:00      -55.809       -8.250       -6.430       20.516       24.317       10.193      420.887      591.328      103.906        0.217        0.056       56.415        7.646        0.018      345.967       23.876      858.805
09/07/2014  21:48:00      -73.753       -5.839       -0.741       25.974       20.215       11.212      674.644      408.655      125.710        0.334        0.060       73.983       10.670        0.021      345.857       23.688      858.818
09/07/2014  21:49:00      -64.525      -34.783        1.696       26.230       18.997       15.390      687.991      360.882      236.850        0.333        0.064       73.303       15.403        0.044      345.790       23.573      858.831
09/07/2014  21:50:00      -29.891      -22.498        8.450       31.906       20.294       10.845     1018.009      411.854      117.614        0.151        0.077       37.412       12.159        0.106      345.838       23.655      858.827
09/07/2014  21:51:00      -45.302      -52.041        0.116       25.341       27.832       14.576      642.169      774.612      212.467        0.319        0.081       68.997       14.686        0.045      346.114       24.128      858.824
09/07/2014  21:52:00      -31.422      -39.995       -3.027       25.942       16.380       14.303      672.969      268.293      204.575        0.187        0.057       50.862       14.263        0.079      346.036       23.993      858.836
09/07/2014  21:53:00      -34.090      -61.430       -0.375       31.994       23.941       13.244     1023.585      573.182      175.399        0.335        0.089       70.255        9.682        0.019      346.204       24.285      858.841
09/07/2014  21:54:00      -35.929      -26.598        3.469       19.102       22.154       13.221      364.898      490.805      174.783        0.152        0.052       44.703       11.087        0.062      346.095       24.097      858.833
09/07/2014  21:55:00      -39.399      -23.316        1.546       22.439       19.231       13.055      503.500      369.819      170.445        0.157        0.052       45.781       11.118        0.059      345.968       23.878      858.832
09/07/2014  21:56:00      -57.796      -16.852       -8.920       11.677       13.327        8.910      136.345      177.599       79.380        0.205        0.020       60.203        7.268        0.015      345.862       23.697      858.843
09/07/2014  21:57:00      -45.715      -38.377       -1.675        9.588       16.942        8.093       91.932      287.027       65.495        0.200        0.022       59.688        7.127        0.014      345.983       23.905      858.849
09/07/2014  21:58:00      -48.220      -10.241       -9.374       21.076        9.331        8.540      444.191       87.071       72.931        0.156        0.030       49.296        9.919        0.040      345.914       23.787      858.843
09/07/2014  21:59:00      -15.288       -2.794       -1.867        4.323        4.382        3.477       18.691       19.200       12.092        0.015        0.002       15.541        1.540        0.010      345.991       23.916      858.840
09/07/2014  22:00:00      -11.711       -2.928        0.464        6.297        9.082        3.853       39.648       82.482       14.843        0.014        0.007       12.071        2.593        0.046      346.073       24.060      858.851
09/07/2014  22:01:00      -60.968      -31.306       -3.807       19.225       15.725        9.337      369.583      247.277       87.187        0.271        0.035       68.535        7.164        0.011      345.707       23.431      858.866
09/07/2014  22:02:00      -56.961      -27.445       -2.627       31.526       15.949       12.883      993.899      254.363      165.978        0.271        0.071       63.228       14.256        0.051      345.356       22.828      858.873
09/07/2014  22:03:00      -44.205      -15.976       -1.232       21.289       15.748       10.930      453.220      247.997      119.475        0.152        0.041       47.004       10.154        0.047      345.225       22.603      858.878
09/07/2014  22:04:00      -71.908        3.090       -4.522       30.642       18.118       11.544      938.930      328.246      133.275        0.330        0.070       71.974        8.900        0.015      345.184       22.532      858.892
09/07/2014  22:05:00      -85.493       -4.597       -9.886       24.159       17.671       12.643      583.641      312.268      159.858        0.424        0.053       85.616       10.825        0.016      345.163       22.498      858.900
09/07/2014  22:06:00      -94.974      -38.543       -8.307       19.512       12.100        9.910      380.722      146.405       98.208        0.560        0.031      102.497        8.339        0.007      344.995       22.210      858.906
09/07/2014  22:07:00      -73.161      -17.604       -7.736       18.373       20.345       13.223      337.579      413.908      174.859        0.332        0.046       75.249        8.554        0.013      345.012       22.240      858.923
09/07/2014  22:08:00      -59.405      -36.224      -10.116       16.529       20.474       12.486      273.206      419.168      155.910        0.290        0.042       69.578        7.889        0.013      345.114       22.413      858.939
09/07/2014  22:09:00      -49.283      -41.720       -6.664       16.679       14.126       15.029      278.180      199.548      225.876        0.246        0.035       64.571       11.021        0.029      345.035       22.278      858.946
09/07/2014  22:10:00      -63.615       -3.596       -6.218       14.969       20.514        8.992      224.077      420.815       80.857        0.241        0.036       63.717        8.194        0.017      344.960       22.150      858.953
09/07/2014  22:11:00      -51.837      -13.410       -4.143       22.446       21.881       10.595      503.813      478.785      112.263        0.199        0.055       53.543       12.493        0.054      345.009       22.234      858.959
09/07/2014  22:12:00      -94.620      -25.525       -9.811       11.136       16.203        7.391      124.000      262.542       54.628        0.507        0.022       98.003        3.909        0.002      345.037       22.283      858.966
09/07/2014  22:13:00      -76.527      -24.362        0.938       28.227       18.089       13.789      796.748      327.206      190.136        0.388        0.066       80.311       13.404        0.028      344.959       22.148      858.992
09/07/2014  22:14:00      -80.363      -29.971       -7.475       20.348       16.411       11.950      414.044      269.311      142.798        0.412        0.041       85.770        8.727        0.010      345.033       22.275      859.003
09/07/2014  22:15:00     -115.676      -50.237       -6.575       29.887       18.629       12.623      893.207      347.057      159.331        0.867        0.070      126.114        7.789        0.004      345.082       22.358      858.997
09/07/2014  22:16:00     -107.095      -47.242       -0.234       30.085       20.745       17.050      905.097      430.338      290.715        0.766        0.081      117.052       16.163        0.019      345.114       22.413      859.003
09/07/2014  22:17:00      -56.239       -3.301        1.037       33.088       23.825       15.321     1094.837      567.615      234.719        0.254        0.095       56.336       13.307        0.056      344.925       22.090      858.990
09/07/2014  22:18:00      -41.319       27.903        1.446       24.075       21.324       14.139      579.587      454.703      199.906        0.186        0.062       49.858       10.909        0.048      344.904       22.053      858.983
09/07/2014  22:19:00      -59.011       40.168       -8.000       15.392       18.628        9.864      236.928      346.987       97.296        0.292        0.034       71.385        7.841        0.012      345.151       22.477      858.998
09/07/2014  22:20:00     -115.972      -19.925       -9.788       42.164       26.295       22.204     1777.805      691.416      493.004        0.845        0.148      117.671       20.319        0.030      344.822       21.915      859.015
09/07/2014  22:21:00     -110.418      -30.584      -10.628       44.239       33.395       24.349     1957.122     1115.238      592.856        0.845        0.183      114.575       23.837        0.043      344.421       21.227      859.051
09/07/2014  22:22:00        7.421      -35.983       19.339       30.630       20.812       17.569      938.192      433.142      308.655        0.170        0.084       36.741       19.556        0.283      344.365       21.132      859.070
09/07/2014  22:23:00      -52.921      -22.297       -1.684       44.827       16.808       13.012     2009.449      282.508      169.317        0.288        0.123       57.427       16.522        0.083      344.413       21.213      859.077
09/07/2014  22:24:00      -85.697      -26.444       -7.607       22.946       15.412       10.436      526.510      237.541      108.918        0.449        0.044       89.685        9.736        0.012      344.468       21.309      859.092
09/07/2014  22:25:00      -45.592      -38.608        1.358       23.396       22.253       13.876      547.350      495.197      192.555        0.240        0.062       59.743       15.474        0.067      344.783       21.849      859.103
09/07/2014  22:26:00      -39.914      -90.902      -14.293       23.149       35.492       18.417      535.898     1259.713      339.197        0.610        0.107       99.279       16.434        0.027      345.254       22.653      859.096
09/07/2014  22:27:00      -30.289     -108.455        0.388       23.944       25.515       18.541      573.311      651.014      343.763        0.712        0.078      112.605       15.248        0.018      345.454       22.996      859.083
09/07/2014  22:28:00      -11.308     -103.737        9.322       15.746       16.941       15.467      247.952      286.998      239.231        0.588        0.039      104.351        4.985        0.002      345.554       23.167      859.064
09/07/2014  22:29:00      -27.128      -34.778        5.922       22.675       27.230       17.292      514.134      741.493      299.003        0.177        0.078       44.107       14.652        0.110      345.116       22.416      859.053
09/07/2014  22:30:00      -74.315       33.481       -8.738       31.025       16.706       11.479      962.525      279.094      131.762        0.405        0.069       81.509        5.919        0.005      344.636       21.595      859.035
09/07/2014  22:31:00      -65.089       12.634      -11.483       21.759       17.184       10.765      473.450      295.306      115.885        0.271        0.044       66.304        7.520        0.013      344.730       21.756      859.016
09/07/2014  22:32:00      -94.163      -28.669       -9.925       11.195       17.046        9.212      125.336      290.576       84.862        0.514        0.025       98.431        8.231        0.007      344.773       21.830      859.012
09/07/2014  22:33:00      -99.915      -38.020       -5.050       37.511       22.867       15.808     1407.110      522.887      249.899        0.682        0.109      106.905       16.868        0.025      344.686       21.681      859.007
09/07/2014  22:34:00     -130.040      -38.524       -7.733       25.724       24.874       16.254      661.716      618.693      264.205        1.000        0.077      135.626       14.472        0.011      344.273       20.974      859.031
09/07/2014  22:35:00     -142.621      -61.042       -5.086       34.705       41.074       21.443     1204.404     1687.055      459.795        1.372        0.168      155.135       18.622        0.014      344.113       20.702      859.052
09/07/2014  22:36:00      -78.533      -47.357       -0.048       40.233       25.338       16.603     1618.698      642.008      275.657        0.547        0.127       91.706       17.646        0.037      344.073       20.634      859.062
09/07/2014  22:37:00      -50.516      -72.744        2.367       31.821       22.779       19.214     1012.600      518.904      369.191        0.487        0.095       88.564       13.673        0.024      344.573       21.487      859.080
09/07/2014  22:38:00      -60.806      -64.216        7.721       44.377       40.559       23.273     1969.313     1645.000      541.611        0.602        0.208       88.437       22.897        0.067      344.476       21.322      859.093
09/07/2014  22:39:00      -72.800      -56.648        5.609       43.993       51.241       26.412     1935.354     2625.671      697.596        0.690        0.263       92.244       23.880        0.067      344.520       21.397      859.097
09/07/2014  22:40:00     -142.910      -37.298       -3.179       49.549       35.279       23.134     2455.060     1244.624      535.175        1.303        0.212      147.697       21.895        0.022      344.564       21.473      859.073
09/07/2014  22:41:00     -156.875      -37.509        1.661       60.881       47.367       29.964     3706.525     2243.607      897.813        1.643        0.342      161.297       29.790        0.034      344.650       21.618      859.008
09/07/2014  22:42:00     -208.905       18.406      -18.102       43.947       44.538       26.710     1931.374     1983.633      713.441        2.447        0.231      209.715       21.514        0.011      344.427       21.234      858.961
09/07/2014  22:43:00     -209.676       18.800      -13.954       52.289       51.882       30.693     2734.109     2691.713      942.038        2.544        0.318      210.517       22.891        0.012      344.437       21.252      858.915
09/07/2014  22:44:00     -156.891      -65.699       -0.439       82.192       67.932       34.985     6755.592     4614.758     1223.917        2.076        0.630      170.091       38.872        0.052      344.365       21.130      858.922
09/07/2014  22:45:00     -128.115     -102.769        5.187       71.967       62.934       39.974     5179.287     3960.646     1597.954        1.887        0.537      164.241       41.232        0.063      344.473       21.315      858.957
09/07/2014  22:46:00     -234.925     -123.305       -5.058       75.949       64.043       40.048     5768.197     4101.514     1603.851        4.094        0.574      265.318       41.526        0.024      344.501       21.361      858.962
09/07/2014  22:47:00     -224.895      -95.701       -6.481      107.701       81.071       44.018    11599.555     6572.561     1937.580        3.994        1.005      244.410       50.329        0.042      344.595       21.521      858.956
09/07/2014  22:48:00     -263.650      -73.547       -6.133       98.350       57.846       45.542     9672.629     3346.187     2074.116        4.502        0.755      273.716       53.333        0.038      344.618       21.561      858.915
09/07/2014  22:49:00     -230.131      -64.709        3.983       78.443       54.841       39.012     6153.366     3007.557     1521.951        3.392        0.534      239.055       38.795        0.026      344.603       21.534      858.899
09/07/2014  22:50:00     -206.562      -56.963       -4.208       51.083       46.890       38.023     2609.499     2198.656     1445.720        2.609        0.313      214.273       29.989        0.020      344.641       21.601      858.865
09/07/2014  22:51:00     -222.328      -74.142       -4.096       57.333       39.651       32.867     3287.095     1572.210     1080.217        3.044        0.297      234.364       30.154        0.017      344.523       21.398      858.853
09/07/2014  22:52:00     -135.719      -19.001       -2.774       64.819       56.568       31.891     4201.552     3199.984     1017.010        1.360        0.421      137.042       33.441        0.060      344.428       21.238      858.884
09/07/2014  22:53:00     -166.723      -87.938        2.796       93.412       73.587       41.092     8725.859     5415.021     1688.524        2.568        0.791      188.493       45.534        0.058      344.463       21.297      858.887
09/07/2014  22:54:00     -154.199      -46.020       -4.861       65.454       47.059       28.149     4284.166     2214.571      792.363        1.660        0.365      160.920       19.796        0.015      344.414       21.214      858.874
09/07/2014  22:55:00     -209.343      -50.518      -22.409       38.994       42.231       26.925     1520.566     1783.463      724.969        2.545        0.201      215.352       24.592        0.013      344.691       21.688      858.840
09/07/2014  22:56:00     -250.487      -29.547      -23.257       80.149       60.013       38.653     6423.905     3601.616     1494.078        3.784        0.576      252.224       42.593        0.029      344.587       21.508      858.828
09/07/2014  22:57:00     -269.785      -67.044       -4.758       93.915       71.909       46.725     8820.067     5170.839     2183.259        4.674        0.809      277.991       44.683        0.026      344.621       21.565      858.830
09/07/2014  22:58:00     -224.681      -67.777       -6.131       61.578       73.001       37.720     3791.815     5329.109     1422.764        3.283        0.527      234.681       34.459        0.022      344.640       21.598      858.842
09/07/2014  22:59:00     -209.314      -17.326       -6.230       82.729       51.784       40.337     6844.066     2681.555     1627.044        2.765        0.558      210.030       44.596        0.045      344.632       21.584      858.849
09/07/2014  23:00:00      -64.529      -34.646       16.126      118.965       67.765       43.997    14152.768     4592.035     1935.724        1.315        1.034       73.242       44.094        0.362      344.751       21.792      858.941
09/07/2014  23:01:00       64.644      184.246      177.848      103.510      112.837       83.743    10714.278    12732.117     7012.866        5.010        1.523      195.257       80.603        0.170      344.533       21.416      858.997
09/07/2014  23:02:00      149.679      108.524      103.449      102.778       78.946       67.507    10563.304     6232.545     4557.224        3.311        1.068      184.881       62.454        0.114      344.351       21.104      859.040
09/07/2014  23:03:00       69.031       -6.051       75.293       67.129       92.726       56.016     4506.309     8598.022     3137.801        1.335        0.812       69.296       65.060        0.881      344.476       21.322      859.067
09/07/2014  23:04:00      121.643      102.694       88.457       91.034       49.024       54.280     8287.146     2403.330     2946.366        2.340        0.682      159.195       49.919        0.098      344.322       21.056      859.089
09/07/2014  23:05:00      107.697      123.758      110.235       73.509       50.255       57.334     5403.513     2525.560     3287.133        2.514        0.561      164.057       49.595        0.091      344.350       21.104      859.093
09/07/2014  23:06:00       97.184      154.568      153.665       71.326       74.526       56.863     5087.463     5554.191     3233.398        3.541        0.694      182.581       44.853        0.060      344.330       21.069      859.071
09/07/2014  23:07:00      154.939      212.622      188.487      119.747      107.513       67.915    14339.312    11558.975     4612.458        6.762        1.526      263.086       41.823        0.025      344.381       21.155      859.015
09/07/2014  23:08:00      143.843      217.186      204.919      108.176       90.668       70.938    11702.059     8220.758     5032.261        6.740        1.248      260.500       57.344        0.048      344.715       21.726      858.969
09/07/2014  23:09:00      135.262      147.321      156.134       96.013       78.512       59.177     9218.416     6164.070     3501.899        4.163        0.944      199.999       44.398        0.049      344.715       21.727      859.014
09/07/2014  23:10:00      147.681       71.397       20.012       62.225       68.458       46.250     3872.012     4686.537     2139.025        1.900        0.535      164.034       16.575        0.010      344.545       21.437      859.036
09/07/2014  23:11:00      109.817       18.515       21.447       90.068       62.103       34.732     8112.230     3856.758     1206.284        1.302        0.659      111.367       30.361        0.074      344.729       21.754      859.041
09/07/2014  23:12:00      151.276       55.461        5.785       67.468       62.398       37.581     4551.927     3893.506     1412.367        1.792        0.493      161.122       29.225        0.033      344.826       21.919      859.030
09/07/2014  23:13:00       95.734       82.089       56.750       60.756       40.801       37.700     3691.268     1664.754     1421.288        1.295        0.339      126.109       28.093        0.050      344.727       21.751      859.021
09/07/2014  23:14:00       39.987      -22.206       31.063       48.431       52.525       34.151     2345.540     2758.905     1166.283        0.466        0.314       45.739       31.473        0.473      344.647       21.613      859.008
09/07/2014  23:15:00       17.019       27.164       55.349       41.139       42.405       33.217     1692.452     1798.158     1103.386        0.434        0.230       32.055       31.778        0.983      344.624       21.575      859.027
09/07/2014  23:16:00       36.377      -60.559       23.764       43.472       69.315       40.757     1889.822     4804.572     1661.136        0.695        0.418       70.645       47.223        0.447      344.742       21.777      859.097
09/07/2014  23:17:00       28.222     -113.186      -14.348       37.146       34.992       24.392     1379.837     1224.459      594.989        0.851        0.160      116.651       15.786        0.018      344.762       21.812      859.129
09/07/2014  23:18:00      -38.579      -37.420        4.572       50.670       33.278       22.071     2567.492     1107.398      487.113        0.354        0.208       53.746       26.425        0.242      344.588       21.512      859.147
09/07/2014  23:19:00       22.338        7.111       12.831       33.548       33.377       23.344     1125.489     1114.033      544.931        0.175        0.139       23.443       23.240        0.983      344.561       21.468      859.114
09/07/2014  23:20:00       38.240       -7.993       33.261       38.302       55.382       34.781     1467.059     3067.220     1209.705        0.419        0.287       39.066       36.757        0.885      344.537       21.427      859.060
09/07/2014  23:21:00       89.953      -62.508        1.122       21.623       18.118       19.076      467.555      328.268      363.910        0.658        0.058      109.539       16.181        0.022      344.761       21.808      859.047
09/07/2014  23:22:00       21.438        9.957       14.137       28.428       29.874       10.748      808.129      892.479      115.511        0.129        0.091       23.638       10.669        0.204      344.542       21.434      859.037
09/07/2014  23:23:00       -3.116      -34.685       -1.031       20.539       30.141       15.108      421.860      908.484      228.265        0.139        0.078       34.825       10.822        0.097      344.580       21.500      859.027
09/07/2014  23:24:00     -112.110      -53.385       -6.539       46.226       31.923       23.854     2136.876     1019.057      569.034        0.959        0.186      124.171       16.258        0.017      344.407       21.204      859.040
09/07/2014  23:25:00      -78.162      -61.487        5.484       56.659       39.323       30.902     3210.236     1546.275      954.912        0.781        0.286       99.449       26.521        0.071      344.363       21.130      859.067
09/07/2014  23:26:00      -71.488      -31.978        2.537       46.420       31.636       18.981     2154.789     1000.854      360.284        0.483        0.176       78.314       20.698        0.070      344.314       21.045      859.088
09/07/2014  23:27:00      -45.492       22.359        1.142       18.207       30.924       12.923      331.507      956.315      166.995        0.201        0.073       50.689       14.263        0.079      344.293       21.009      859.060
09/07/2014  23:28:00      -36.617      103.452      -10.005       22.207       19.055       12.387      493.163      363.087      153.434        0.658        0.050      109.741        5.321        0.002      344.393       21.182      859.033
09/07/2014  23:29:00       10.558      104.961      -13.784       21.809       19.154       10.251      475.637      366.881      105.077        0.613        0.047      105.490       10.051        0.009      344.586       21.509      859.032
09/07/2014  23:30:00       26.819       38.495      -14.300       22.554       26.011       13.003      508.681      676.589      169.065        0.188        0.068       46.916       15.152        0.104      344.377       21.154      859.029
09/07/2014  23:31:00       23.568        8.618       -5.016       14.309       18.674       11.354      204.751      348.704      128.907        0.067        0.034       25.094       10.304        0.169      344.505       21.371      859.017
09/07/2014  23:32:00      -20.873        1.501       -3.361       26.242       14.481       11.998      688.642      209.695      143.956        0.075        0.052       20.927        9.485        0.205      344.495       21.355      859.008
09/07/2014  23:33:00      -88.786      -26.962       -6.978       25.705       26.030       16.953      660.767      677.541      287.407        0.514        0.081       92.790       12.932        0.019      344.322       21.060      859.008
09/07/2014  23:34:00     -105.555      -43.623       -6.233       35.708       38.815       16.675     1275.033     1506.588      278.046        0.807        0.153      114.214       16.709        0.021      344.063       20.616      859.014
09/07/2014  23:35:00      -86.643        9.721      -10.757       31.520       24.047       14.203      993.514      578.278      201.730        0.475        0.089       87.187       12.414        0.020      343.983       20.482      859.026
09/07/2014  23:36:00      -56.766       42.220       -7.532       23.118       19.351       18.229      534.426      374.451      332.288        0.315        0.062       70.745       14.913        0.044      344.221       20.886      859.010
09/07/2014  23:37:00      -40.600       51.261       -7.851       11.022       17.541        7.801      121.484      307.688       60.860        0.241        0.025       65.392        4.956        0.006      344.650       21.620      858.981
09/07/2014  23:38:00      -61.149       24.072       -9.158       10.445       21.596        6.812      109.094      466.397       46.401        0.251        0.031       65.716        7.457        0.013      344.562       21.469      858.966
09/07/2014  23:39:00     -117.416      -45.140       -7.977       34.206       27.585       15.459     1170.028      760.928      238.979        0.903        0.108      125.794        9.502        0.006      344.025       20.552      858.962
09/07/2014  23:40:00     -139.403      -81.959       -4.072       64.225       48.907       31.642     4124.796     2391.890     1001.187        1.684        0.376      161.710       32.528        0.040      343.832       20.220      858.959
09/07/2014  23:41:00      -75.249      -19.719        0.799       54.096       33.389       19.986     2926.352     1114.815      399.427        0.525        0.222       77.790       24.225        0.097      343.832       20.220      858.954
09/07/2014  23:42:00      -59.245       16.133       -3.998       40.111       22.642       14.870     1608.876      512.641      221.116        0.306        0.117       61.402       17.624        0.082      343.877       20.299      858.936
09/07/2014  23:43:00      -44.071      -11.750       -1.990       35.592       27.742       13.685     1266.826      769.614      187.268        0.215        0.111       45.611       12.084        0.070      343.940       20.405      858.924
09/07/2014  23:44:00     -129.039      -14.244      -18.616       37.282       42.382       21.158     1389.919     1796.221      447.650        1.042        0.182      129.823       18.720        0.021      343.811       20.185      858.944
09/07/2014  23:45:00     -141.689      -61.248      -11.658       35.774       33.656       24.718     1279.771     1132.738      610.984        1.349        0.151      154.361       12.391        0.006      343.659       19.925      858.985
09/07/2014  23:46:00      -88.584      -78.750        1.565       51.277       34.851       28.928     2629.298     1214.576      836.844        0.937        0.234      118.527       23.457        0.039      343.763       20.102      859.019
09/07/2014  23:47:00      -62.353      -54.195        2.060       36.286       39.385       26.398     1316.648     1551.199      696.862        0.520        0.178       82.613       20.726        0.063      343.879       20.302      859.031
09/07/2014  23:48:00      -64.401      -43.022        6.556       50.233       38.906       23.827     2523.320     1513.711      567.725        0.532        0.230       77.450       26.612        0.118      344.004       20.516      859.028
09/07/2014  23:49:00      -41.430       -8.386       -2.141       18.841       16.091        9.368      354.973      258.905       87.754        0.125        0.035       42.270        5.403        0.016      343.952       20.426      859.033
09/07/2014  23:50:00      -76.645       24.162       -6.643       26.937       15.088       10.883      725.603      227.642      118.448        0.379        0.054       80.363        8.436        0.011      343.887       20.315      859.043
09/07/2014  23:51:00     -131.954       37.834      -15.492       56.239       27.673       22.443     3162.780      765.815      503.669        1.176        0.222      137.270       21.350        0.024      343.679       19.960      859.059
09/07/2014  23:52:00     -147.954      -18.960      -20.930       36.366       48.979       21.828     1322.519     2398.986      476.470        1.344        0.210      149.164       16.202        0.012      343.706       20.007      859.082
09/07/2014  23:53:00     -125.750      -59.247       -8.329       41.918       41.025       24.777     1757.123     1683.052      613.910        1.172        0.203      139.008       16.948        0.015      343.589       19.807      859.100
09/07/2014  23:54:00     -115.584      -29.594       -1.965       37.252       30.815       20.613     1387.731      949.591      424.902        0.850        0.138      119.312       20.889        0.031      343.491       19.641      859.104
09/07/2014  23:55:00      -96.652      -13.463       -1.346       35.360       28.667       19.753     1250.332      821.777      390.198        0.599        0.123       97.585       17.350        0.032      343.603       19.831      859.091
09/07/2014  23:56:00      -39.892      -17.335        0.262       31.076       15.235        9.038      965.703      232.105       81.686        0.159        0.064       43.496        5.459        0.016      343.642       19.897      859.079
09/07/2014  23:57:00      -13.619        1.205        0.742       12.955        8.192        5.550      167.845       67.114       30.802        0.023        0.013       13.672        1.701        0.015      343.756       20.092      859.057
09/07/2014  23:58:00      -59.196       -0.989       -8.994       33.692       13.583        9.468     1135.163      184.494       89.650        0.250        0.070       59.204       12.837        0.047      343.883       20.310      859.060
09/07/2014  23:59:00     -155.636      -43.660       -6.990       44.242       25.978       15.912     1957.376      674.846      253.195        1.453        0.144      161.644       11.427        0.005      343.610       19.841      859.093
